Time,TemperatureF,DewpointF,PressureIn,WindDirection,WindDirectionDegrees,WindSpeedMPH,WindSpeedGustMPH,Humidity,HourlyPrecipIn,Conditions,Clouds,dailyrainin,SoftwareType,DateUTC
2013-01-25 00:00:00,8.1,-6.7,30.14,West,270,5.0,9.0,50,0.00,,CLR,0.00,VWS V14.01,2013-01-25 05:00:00,
2013-01-25 00:01:00,8.1,-6.7,30.14,West,264,10.0,10.0,50,0.00,,FEW060,0.00,VWS V14.01,2013-01-25 05:01:00,
2013-01-25 00:02:00,8.0,-6.8,30.13,NW,308,3.0,7.0,50,0.00,,CLR,0.00,VWS V14.01,2013-01-25 05:02:00,
2013-01-25 00:03:00,8.0,-6.8,30.13,WNW,285,9.0,11.0,50,0.00,,CLR,0.00,VWS V14.01,2013-01-25 05:03:00,
2013-01-25 00:04:00,8.0,-6.8,30.13,WNW,285,9.0,11.0,50,0.00,,FEW060,0.00,VWS V14.01,2013-01-25 05:04:00,
2013-01-25 00:05:00,8.0,-6.8,30.14,West,276,4.0,15.0,50,0.00,,FEW060,0.00,VWS V14.01,2013-01-25 05:05:00,
2013-01-25 00:06:00,8.0,-6.8,30.14,West,263,6.0,8.0,50,0.00,,FEW060,0.00,VWS V14.01,2013-01-25 05:06:00,
2013-01-25 00:07:00,8.0,-6.8,30.15,West,281,2.0,6.0,50,0.00,,FEW060,0.00,VWS V14.01,2013-01-25 05:07:00,
2013-01-25 00:08:00,8.0,-6.4,30.16,WSW,252,5.0,5.0,51,0.00,,CLR,0.00,VWS V14.01,2013-01-25 05:08:00,
2013-01-25 00:09:00,8.0,-6.4,30.15,West,259,4.0,10.0,51,0.00,,FEW060,0.00,VWS V14.01,2013-01-25 05:09:00,
2013-01-25 00:10:00,8.0,-6.4,30.15,WNW,300,3.0,8.0,51,0.00,,FEW060,0.00,VWS V14.01,2013-01-25 05:10:00,
2013-01-25 00:11:00,8.0,-6.8,30.16,West,266,3.0,8.0,50,0.00,,FEW060,0.00,VWS V14.01,2013-01-25 05:11:00,
2013-01-25 00:12:00,8.0,-6.8,30.16,WSW,256,5.0,6.0,50,0.00,,FEW060,0.00,VWS V14.01,2013-01-25 05:12:00,
2013-01-25 00:13:00,7.9,-6.5,30.16,WNW,302,6.0,6.0,51,0.00,,CLR,0.00,VWS V14.01,2013-01-25 05:13:00,
2013-01-25 00:14:00,8.0,-6.4,30.16,West,271,2.0,10.0,51,0.00,,FEW060,0.00,VWS V14.01,2013-01-25 05:14:00,
2013-01-25 00:15:00,7.9,-6.5,30.16,West,263,4.0,7.0,51,0.00,,FEW060,0.00,VWS V14.01,2013-01-25 05:15:00,
2013-01-25 00:16:00,7.9,-6.5,30.15,West,270,2.0,6.0,51,0.00,,FEW060,0.00,VWS V14.01,2013-01-25 05:16:00,
2013-01-25 00:17:00,7.9,-6.5,30.15,WNW,285,5.0,5.0,51,0.00,,FEW060,0.00,VWS V14.01,2013-01-25 05:17:00,
2013-01-25 00:18:00,7.8,-6.6,30.15,NW,320,2.0,8.0,51,0.00,,CLR,0.00,VWS V14.01,2013-01-25 05:18:00,
2013-01-25 00:19:00,7.9,-6.5,30.15,WNW,283,6.0,14.0,51,0.00,,FEW060,0.00,VWS V14.01,2013-01-25 05:19:00,
2013-01-25 00:20:00,7.8,-6.6,30.15,WNW,290,8.0,9.0,51,0.00,,FEW060,0.00,VWS V14.01,2013-01-25 05:20:00,
2013-01-25 00:21:00,7.8,-6.6,30.15,SSW,194,2.0,9.0,51,0.00,,FEW060,0.00,VWS V14.01,2013-01-25 05:21:00,
2013-01-25 00:22:00,7.8,-6.6,30.15,West,274,8.0,10.0,51,0.00,,FEW060,0.00,VWS V14.01,2013-01-25 05:22:00,
2013-01-25 00:23:00,7.7,-6.7,30.16,North,356,1.0,2.0,51,0.00,,CLR,0.00,VWS V14.01,2013-01-25 05:23:00,
2013-01-25 00:24:00,7.8,-6.6,30.15,NNE,27,3.0,4.0,51,0.00,,FEW060,0.00,VWS V14.01,2013-01-25 05:24:00,
2013-01-25 00:25:00,7.7,-6.7,30.16,West,276,6.0,7.0,51,0.00,,FEW060,0.00,VWS V14.01,2013-01-25 05:25:00,
2013-01-25 00:26:00,7.7,-6.7,30.16,West,264,7.0,14.0,51,0.00,,FEW060,0.00,VWS V14.01,2013-01-25 05:26:00,
2013-01-25 00:27:00,7.7,-6.7,30.16,East,84,3.0,5.0,51,0.00,,FEW060,0.00,VWS V14.01,2013-01-25 05:27:00,
2013-01-25 00:28:00,7.7,-6.7,30.16,NW,321,4.0,4.0,51,0.00,,CLR,0.00,VWS V14.01,2013-01-25 05:28:00,
2013-01-25 00:29:00,7.7,-6.7,30.16,WSW,256,2.0,11.0,51,0.00,,FEW060,0.00,VWS V14.01,2013-01-25 05:29:00,
2013-01-25 00:30:00,7.7,-6.7,30.16,West,262,7.0,7.0,51,0.00,,FEW060,0.00,VWS V14.01,2013-01-25 05:30:00,
2013-01-25 00:31:00,7.6,-6.7,30.16,West,267,4.0,12.0,51,0.00,,FEW060,0.00,VWS V14.01,2013-01-25 05:31:00,
2013-01-25 00:32:00,7.6,-6.7,30.16,NNW,332,1.0,7.0,51,0.00,,FEW060,0.00,VWS V14.01,2013-01-25 05:32:00,
2013-01-25 00:33:00,7.6,-6.7,30.16,West,260,0.0,2.0,51,0.00,,FEW060,0.00,VWS V14.01,2013-01-25 05:33:00,
2013-01-25 00:34:00,7.6,-6.7,30.16,WSW,250,1.0,6.0,51,0.00,,CLR,0.00,VWS V14.01,2013-01-25 05:34:00,
2013-01-25 00:35:00,7.6,-6.7,30.16,West,276,5.0,6.0,51,0.00,,FEW060,0.00,VWS V14.01,2013-01-25 05:35:00,
2013-01-25 00:37:00,7.6,-6.7,30.16,WNW,297,3.0,6.0,51,0.00,,FEW060,0.00,VWS V14.01,2013-01-25 05:37:00,
2013-01-25 00:38:00,7.5,-6.8,30.16,WNW,283,2.0,5.0,51,0.00,,FEW060,0.00,VWS V14.01,2013-01-25 05:38:00,
2013-01-25 00:39:00,7.5,-6.8,30.15,NNW,346,4.0,12.0,51,0.00,,CLR,0.00,VWS V14.01,2013-01-25 05:39:00,
2013-01-25 00:40:00,7.5,-6.8,30.15,West,276,3.0,12.0,51,0.00,,FEW060,0.00,VWS V14.01,2013-01-25 05:40:00,
2013-01-25 00:41:00,7.4,-6.9,30.15,West,275,8.0,8.0,51,0.00,,FEW060,0.00,VWS V14.01,2013-01-25 05:41:00,
2013-01-25 00:42:00,7.5,-6.8,30.15,WSW,257,4.0,10.0,51,0.00,,FEW060,0.00,VWS V14.01,2013-01-25 05:42:00,
2013-01-25 00:43:00,7.4,-6.9,30.15,West,270,6.0,8.0,51,0.00,,FEW060,0.00,VWS V14.01,2013-01-25 05:43:00,
2013-01-25 00:44:00,7.4,-6.9,30.15,WNW,300,3.0,5.0,51,0.00,,CLR,0.00,VWS V14.01,2013-01-25 05:44:00,
2013-01-25 00:45:00,7.4,-6.9,30.15,WNW,300,3.0,5.0,51,0.00,,FEW060,0.00,VWS V14.01,2013-01-25 05:45:00,
2013-01-25 00:46:00,7.4,-6.9,30.15,West,281,3.0,9.0,51,0.00,,FEW060,0.00,VWS V14.01,2013-01-25 05:46:00,
2013-01-25 00:47:00,7.4,-6.9,30.15,North,354,2.0,8.0,51,0.00,,FEW060,0.00,VWS V14.01,2013-01-25 05:47:00,
2013-01-25 00:48:00,7.3,-7.0,30.15,West,264,5.0,6.0,51,0.00,,FEW060,0.00,VWS V14.01,2013-01-25 05:48:00,
2013-01-25 00:49:00,7.3,-7.0,30.15,NW,313,6.0,7.0,51,0.00,,CLR,0.00,VWS V14.01,2013-01-25 05:49:00,
2013-01-25 00:50:00,7.3,-7.0,30.15,NW,313,6.0,7.0,51,0.00,,FEW060,0.00,VWS V14.01,2013-01-25 05:50:00,
2013-01-25 00:51:00,7.3,-7.0,30.15,WSW,240,1.0,7.0,51,0.00,,FEW060,0.00,VWS V14.01,2013-01-25 05:51:00,
2013-01-25 00:52:00,7.3,-7.0,30.15,WNW,300,6.0,14.0,51,0.00,,FEW060,0.00,VWS V14.01,2013-01-25 05:52:00,
2013-01-25 00:53:00,7.3,-7.0,30.15,West,276,8.0,9.0,51,0.00,,FEW060,0.00,VWS V14.01,2013-01-25 05:53:00,
2013-01-25 00:54:00,7.3,-7.0,30.15,WSW,238,2.0,6.0,51,0.00,,CLR,0.00,VWS V14.01,2013-01-25 05:54:00,
2013-01-25 00:55:00,7.3,-7.0,30.15,WSW,238,2.0,6.0,51,0.00,,FEW060,0.00,VWS V14.01,2013-01-25 05:55:00,
2013-01-25 00:56:00,7.2,-7.1,30.15,WNW,302,1.0,6.0,51,0.00,,FEW060,0.00,VWS V14.01,2013-01-25 05:56:00,
2013-01-25 00:57:00,7.2,-7.1,30.16,WNW,294,3.0,7.0,51,0.00,,FEW060,0.00,VWS V14.01,2013-01-25 05:57:00,
2013-01-25 00:58:00,7.2,-7.1,30.16,ENE,73,2.0,4.0,51,0.00,,FEW060,0.00,VWS V14.01,2013-01-25 05:58:00,
2013-01-25 00:59:00,7.2,-7.1,30.16,WSW,245,10.0,13.0,51,0.00,,CLR,0.00,VWS V14.01,2013-01-25 05:59:00,
2013-01-25 01:00:00,7.2,-7.1,30.16,WSW,245,10.0,13.0,51,0.00,,FEW060,0.00,VWS V14.01,2013-01-25 06:00:00,
2013-01-25 01:01:00,7.2,-7.1,30.15,WNW,302,4.0,9.0,51,0.00,,FEW060,0.00,VWS V14.01,2013-01-25 06:01:00,
2013-01-25 01:02:00,7.2,-7.1,30.16,NW,304,1.0,10.0,51,0.00,,FEW060,0.00,VWS V14.01,2013-01-25 06:02:00,
2013-01-25 01:04:00,7.2,-7.1,30.15,West,273,1.0,4.0,51,0.00,,CLR,0.00,VWS V14.01,2013-01-25 06:04:00,
2013-01-25 01:05:00,7.2,-7.1,30.15,West,273,1.0,4.0,51,0.00,,FEW060,0.00,VWS V14.01,2013-01-25 06:05:00,
2013-01-25 01:06:00,7.2,-7.1,30.15,West,269,4.0,6.0,51,0.00,,FEW060,0.00,VWS V14.01,2013-01-25 06:06:00,
2013-01-25 01:07:00,7.2,-7.1,30.15,WSW,252,2.0,6.0,51,0.00,,FEW060,0.00,VWS V14.01,2013-01-25 06:07:00,
2013-01-25 01:08:00,7.2,-6.7,30.15,West,271,4.0,4.0,52,0.00,,FEW060,0.00,VWS V14.01,2013-01-25 06:08:00,
2013-01-25 01:09:00,7.2,-6.7,30.15,WNW,294,1.0,3.0,52,0.00,,CLR,0.00,VWS V14.01,2013-01-25 06:09:00,
2013-01-25 01:10:00,7.2,-6.7,30.15,WNW,294,1.0,3.0,52,0.00,,FEW060,0.00,VWS V14.01,2013-01-25 06:10:00,
2013-01-25 01:11:00,7.1,-6.8,30.15,West,259,1.0,5.0,52,0.00,,FEW060,0.00,VWS V14.01,2013-01-25 06:11:00,
2013-01-25 01:12:00,7.1,-6.8,30.15,West,266,5.0,5.0,52,0.00,,FEW060,0.00,VWS V14.01,2013-01-25 06:12:00,
2013-01-25 01:13:00,7.1,-6.8,30.15,WNW,290,3.0,6.0,52,0.00,,FEW060,0.00,VWS V14.01,2013-01-25 06:13:00,
2013-01-25 01:14:00,7.1,-6.8,30.15,WNW,287,5.0,5.0,52,0.00,,CLR,0.00,VWS V14.01,2013-01-25 06:14:00,
2013-01-25 01:15:00,7.1,-6.8,30.15,NW,316,3.0,11.0,52,0.00,,FEW060,0.00,VWS V14.01,2013-01-25 06:15:00,
2013-01-25 01:16:00,7.1,-6.8,30.15,WNW,291,5.0,12.0,52,0.00,,FEW060,0.00,VWS V14.01,2013-01-25 06:16:00,
2013-01-25 01:17:00,7.1,-6.8,30.15,WNW,293,7.0,8.0,52,0.00,,FEW060,0.00,VWS V14.01,2013-01-25 06:17:00,
2013-01-25 01:18:00,7.2,-6.7,30.15,West,264,3.0,8.0,52,0.00,,FEW060,0.00,VWS V14.01,2013-01-25 06:18:00,
2013-01-25 01:19:00,7.2,-6.7,30.15,WSW,238,3.0,6.0,52,0.00,,CLR,0.00,VWS V14.01,2013-01-25 06:19:00,
2013-01-25 01:20:00,7.1,-6.8,30.15,West,280,4.0,10.0,52,0.00,,FEW060,0.00,VWS V14.01,2013-01-25 06:20:00,
2013-01-25 01:21:00,7.2,-6.7,30.15,West,278,1.0,6.0,52,0.00,,FEW060,0.00,VWS V14.01,2013-01-25 06:21:00,
2013-01-25 01:22:00,7.2,-6.7,30.15,WSW,257,3.0,6.0,52,0.00,,FEW060,0.00,VWS V14.01,2013-01-25 06:22:00,
2013-01-25 01:23:00,7.2,-6.7,30.15,NW,316,2.0,5.0,52,0.00,,FEW060,0.00,VWS V14.01,2013-01-25 06:23:00,
2013-01-25 01:24:00,7.2,-6.7,30.16,West,273,6.0,7.0,52,0.00,,CLR,0.00,VWS V14.01,2013-01-25 06:24:00,
2013-01-25 01:25:00,7.2,-6.7,30.15,WNW,288,1.0,6.0,52,0.00,,FEW060,0.00,VWS V14.01,2013-01-25 06:25:00,
2013-01-25 01:26:00,7.2,-6.7,30.15,WNW,302,4.0,9.0,52,0.00,,FEW060,0.00,VWS V14.01,2013-01-25 06:26:00,
2013-01-25 01:27:00,7.2,-6.7,30.15,West,266,5.0,10.0,52,0.00,,FEW060,0.00,VWS V14.01,2013-01-25 06:27:00,
2013-01-25 01:28:00,7.2,-6.7,30.15,WSW,257,7.0,9.0,52,0.00,,FEW060,0.00,VWS V14.01,2013-01-25 06:28:00,
2013-01-25 01:29:00,7.2,-6.7,30.15,WSW,257,8.0,10.0,52,0.00,,CLR,0.00,VWS V14.01,2013-01-25 06:29:00,
2013-01-25 01:30:00,7.2,-6.7,30.15,WSW,238,10.0,10.0,52,0.00,,FEW060,0.00,VWS V14.01,2013-01-25 06:30:00,
2013-01-25 01:31:00,7.2,-6.7,30.15,West,262,11.0,11.0,52,0.00,,FEW060,0.00,VWS V14.01,2013-01-25 06:31:00,
2013-01-25 01:32:00,7.2,-6.7,30.15,WSW,255,4.0,11.0,52,0.00,,FEW060,0.00,VWS V14.01,2013-01-25 06:32:00,
2013-01-25 01:33:00,7.2,-6.7,30.15,West,260,5.0,6.0,52,0.00,,FEW060,0.00,VWS V14.01,2013-01-25 06:33:00,
2013-01-25 01:34:00,7.2,-6.7,30.15,WSW,255,9.0,9.0,52,0.00,,FEW060,0.00,VWS V14.01,2013-01-25 06:34:00,
2013-01-25 01:35:00,7.2,-6.7,30.15,WNW,283,2.0,8.0,52,0.00,,CLR,0.00,VWS V14.01,2013-01-25 06:35:00,
2013-01-25 01:36:00,7.2,-6.7,30.15,NW,315,2.0,8.0,52,0.00,,FEW060,0.00,VWS V14.01,2013-01-25 06:36:00,
2013-01-25 01:37:00,7.2,-6.7,30.15,WSW,238,4.0,9.0,52,0.00,,FEW060,0.00,VWS V14.01,2013-01-25 06:37:00,
2013-01-25 01:38:00,7.2,-6.7,30.15,East,82,2.0,4.0,52,0.00,,FEW060,0.00,VWS V14.01,2013-01-25 06:38:00,
2013-01-25 01:39:00,7.2,-6.7,30.16,WSW,250,11.0,11.0,52,0.00,,FEW060,0.00,VWS V14.01,2013-01-25 06:39:00,
2013-01-25 01:40:00,7.2,-6.7,30.16,WNW,289,4.0,8.0,52,0.00,,CLR,0.00,VWS V14.01,2013-01-25 06:40:00,
2013-01-25 01:41:00,7.2,-6.7,30.15,WNW,289,4.0,8.0,52,0.00,,FEW060,0.00,VWS V14.01,2013-01-25 06:41:00,
2013-01-25 01:42:00,7.2,-6.7,30.15,WNW,287,3.0,11.0,52,0.00,,FEW060,0.00,VWS V14.01,2013-01-25 06:42:00,
2013-01-25 01:43:00,7.2,-6.7,30.16,NNW,343,0.0,4.0,52,0.00,,FEW060,0.00,VWS V14.01,2013-01-25 06:43:00,
2013-01-25 01:44:00,7.2,-6.7,30.16,West,280,3.0,4.0,52,0.00,,FEW060,0.00,VWS V14.01,2013-01-25 06:44:00,
2013-01-25 01:45:00,7.2,-6.7,30.16,NW,320,4.0,8.0,52,0.00,,CLR,0.00,VWS V14.01,2013-01-25 06:45:00,
2013-01-25 01:46:00,7.2,-6.7,30.16,NW,320,4.0,8.0,52,0.00,,FEW060,0.00,VWS V14.01,2013-01-25 06:46:00,
2013-01-25 01:47:00,7.2,-6.7,30.16,West,273,0.0,6.0,52,0.00,,FEW060,0.00,VWS V14.01,2013-01-25 06:47:00,
2013-01-25 01:48:00,7.2,-6.7,30.16,West,263,3.0,5.0,52,0.00,,FEW060,0.00,VWS V14.01,2013-01-25 06:48:00,
2013-01-25 01:49:00,7.2,-6.7,30.16,West,266,2.0,4.0,52,0.00,,FEW060,0.00,VWS V14.01,2013-01-25 06:49:00,
2013-01-25 01:50:00,7.2,-6.7,30.16,West,276,3.0,4.0,52,0.00,,CLR,0.00,VWS V14.01,2013-01-25 06:50:00,
2013-01-25 01:51:00,7.2,-6.7,30.16,West,276,3.0,4.0,52,0.00,,FEW060,0.00,VWS V14.01,2013-01-25 06:51:00,
2013-01-25 01:52:00,7.2,-6.7,30.16,West,269,2.0,10.0,52,0.00,,FEW060,0.00,VWS V14.01,2013-01-25 06:52:00,
2013-01-25 01:53:00,7.2,-6.7,30.16,WNW,299,2.0,6.0,52,0.00,,FEW060,0.00,VWS V14.01,2013-01-25 06:53:00,
2013-01-25 01:54:00,7.2,-6.7,30.16,West,274,4.0,4.0,52,0.00,,FEW060,0.00,VWS V14.01,2013-01-25 06:54:00,
2013-01-25 01:55:00,7.2,-6.7,30.16,WNW,287,4.0,6.0,52,0.00,,CLR,0.00,VWS V14.01,2013-01-25 06:55:00,
2013-01-25 01:56:00,7.2,-6.7,30.16,WNW,287,4.0,6.0,52,0.00,,FEW060,0.00,VWS V14.01,2013-01-25 06:56:00,
2013-01-25 01:57:00,7.2,-6.7,30.16,WSW,250,6.0,6.0,52,0.00,,FEW060,0.00,VWS V14.01,2013-01-25 06:57:00,
2013-01-25 01:58:00,7.2,-6.7,30.16,WSW,253,6.0,6.0,52,0.00,,FEW060,0.00,VWS V14.01,2013-01-25 06:58:00,
2013-01-25 01:59:00,7.2,-6.7,30.16,West,263,5.0,11.0,52,0.00,,FEW060,0.00,VWS V14.01,2013-01-25 06:59:00,
2013-01-25 02:00:00,7.2,-6.7,30.16,North,354,3.0,9.0,52,0.00,,CLR,0.00,VWS V14.01,2013-01-25 07:00:00,
2013-01-25 02:01:00,7.2,-6.7,30.16,North,354,3.0,9.0,52,0.00,,FEW060,0.00,VWS V14.01,2013-01-25 07:01:00,
2013-01-25 02:02:00,7.2,-6.7,30.16,West,273,8.0,10.0,52,0.00,,FEW060,0.00,VWS V14.01,2013-01-25 07:02:00,
2013-01-25 02:03:00,7.2,-6.7,30.17,WNW,284,1.0,8.0,52,0.00,,FEW060,0.00,VWS V14.01,2013-01-25 07:03:00,
2013-01-25 02:04:00,7.3,-6.6,30.17,North,354,3.0,10.0,52,0.00,,FEW060,0.00,VWS V14.01,2013-01-25 07:04:00,
2013-01-25 02:05:00,7.3,-6.6,30.17,West,263,5.0,5.0,52,0.00,,CLR,0.00,VWS V14.01,2013-01-25 07:05:00,
2013-01-25 02:06:00,7.3,-6.6,30.17,NW,306,1.0,7.0,52,0.00,,FEW060,0.00,VWS V14.01,2013-01-25 07:06:00,
2013-01-25 02:07:00,7.3,-6.6,30.17,NW,308,4.0,9.0,52,0.00,,FEW060,0.00,VWS V14.01,2013-01-25 07:07:00,
2013-01-25 02:08:00,7.3,-6.6,30.17,WSW,256,1.0,5.0,52,0.00,,FEW060,0.00,VWS V14.01,2013-01-25 07:08:00,
2013-01-25 02:09:00,7.3,-6.6,30.17,NW,311,3.0,4.0,52,0.00,,FEW060,0.00,VWS V14.01,2013-01-25 07:09:00,
2013-01-25 02:10:00,7.3,-6.6,30.17,West,274,2.0,4.0,52,0.00,,CLR,0.00,VWS V14.01,2013-01-25 07:10:00,
2013-01-25 02:11:00,7.3,-6.6,30.17,WNW,283,4.0,8.0,52,0.00,,FEW060,0.00,VWS V14.01,2013-01-25 07:11:00,
2013-01-25 02:12:00,7.3,-6.6,30.17,WNW,295,1.0,4.0,52,0.00,,FEW060,0.00,VWS V14.01,2013-01-25 07:12:00,
2013-01-25 02:13:00,7.3,-6.6,30.17,NW,307,3.0,5.0,52,0.00,,FEW060,0.00,VWS V14.01,2013-01-25 07:13:00,
2013-01-25 02:14:00,7.3,-6.6,30.17,West,264,2.0,4.0,52,0.00,,FEW060,0.00,VWS V14.01,2013-01-25 07:14:00,
2013-01-25 02:15:00,7.3,-6.6,30.17,West,269,3.0,8.0,52,0.00,,CLR,0.00,VWS V14.01,2013-01-25 07:15:00,
2013-01-25 02:16:00,7.3,-6.6,30.17,WSW,250,8.0,9.0,52,0.00,,FEW060,0.00,VWS V14.01,2013-01-25 07:16:00,
2013-01-25 02:17:00,7.3,-6.6,30.17,North,8,1.0,8.0,52,0.00,,FEW060,0.00,VWS V14.01,2013-01-25 07:17:00,
2013-01-25 02:18:00,7.3,-6.6,30.17,WSW,240,3.0,5.0,52,0.00,,FEW060,0.00,VWS V14.01,2013-01-25 07:18:00,
2013-01-25 02:19:00,7.3,-6.6,30.17,WSW,256,4.0,8.0,52,0.00,,FEW060,0.00,VWS V14.01,2013-01-25 07:19:00,
2013-01-25 02:20:00,7.3,-6.6,30.17,NW,324,3.0,6.0,52,0.00,,CLR,0.00,VWS V14.01,2013-01-25 07:20:00,
2013-01-25 02:21:00,7.3,-6.6,30.17,West,259,6.0,7.0,52,0.00,,FEW060,0.00,VWS V14.01,2013-01-25 07:21:00,
2013-01-25 02:22:00,7.3,-6.6,30.17,NW,305,1.0,6.0,52,0.00,,FEW060,0.00,VWS V14.01,2013-01-25 07:22:00,
2013-01-25 02:23:00,7.3,-6.2,30.17,WNW,284,5.0,5.0,53,0.00,,FEW060,0.00,VWS V14.01,2013-01-25 07:23:00,
2013-01-25 02:24:00,7.3,-6.2,30.17,WSW,257,8.0,10.0,53,0.00,,FEW060,0.00,VWS V14.01,2013-01-25 07:24:00,
2013-01-25 02:25:00,7.3,-6.6,30.17,West,281,6.0,11.0,52,0.00,,FEW060,0.00,VWS V14.01,2013-01-25 07:25:00,
2013-01-25 02:26:00,7.3,-6.2,30.17,SW,226,5.0,7.0,53,0.00,,CLR,0.00,VWS V14.01,2013-01-25 07:26:00,
2013-01-25 02:27:00,7.3,-6.2,30.17,NW,319,7.0,7.0,53,0.00,,FEW060,0.00,VWS V14.01,2013-01-25 07:27:00,
2013-01-25 02:28:00,7.3,-6.2,30.17,WSW,248,4.0,9.0,53,0.00,,FEW060,0.00,VWS V14.01,2013-01-25 07:28:00,
2013-01-25 02:29:00,7.3,-6.2,30.17,WSW,245,4.0,6.0,53,0.00,,FEW060,0.00,VWS V14.01,2013-01-25 07:29:00,
2013-01-25 02:30:00,7.3,-6.2,30.17,SE,143,1.0,4.0,53,0.00,,FEW060,0.00,VWS V14.01,2013-01-25 07:30:00,
2013-01-25 02:31:00,7.3,-6.2,30.17,NW,305,7.0,7.0,53,0.00,,CLR,0.00,VWS V14.01,2013-01-25 07:31:00,
2013-01-25 02:32:00,7.3,-6.2,30.17,NW,305,8.0,8.0,53,0.00,,FEW060,0.00,VWS V14.01,2013-01-25 07:32:00,
2013-01-25 02:33:00,7.3,-6.2,30.17,WNW,287,2.0,7.0,53,0.00,,FEW060,0.00,VWS V14.01,2013-01-25 07:33:00,
2013-01-25 02:34:00,7.3,-6.2,30.17,WSW,254,6.0,6.0,53,0.00,,FEW060,0.00,VWS V14.01,2013-01-25 07:34:00,
2013-01-25 02:35:00,7.3,-6.2,30.17,West,259,4.0,6.0,53,0.00,,FEW060,0.00,VWS V14.01,2013-01-25 07:35:00,
2013-01-25 02:36:00,7.2,-6.3,30.17,West,269,8.0,8.0,53,0.00,,CLR,0.00,VWS V14.01,2013-01-25 07:36:00,
2013-01-25 02:37:00,7.2,-6.3,30.17,West,269,8.0,8.0,53,0.00,,FEW060,0.00,VWS V14.01,2013-01-25 07:37:00,
2013-01-25 02:38:00,7.2,-6.3,30.17,WSW,252,6.0,8.0,53,0.00,,FEW060,0.00,VWS V14.01,2013-01-25 07:38:00,
2013-01-25 02:39:00,7.2,-6.3,30.17,West,266,3.0,6.0,53,0.00,,FEW060,0.00,VWS V14.01,2013-01-25 07:39:00,
2013-01-25 02:40:00,7.2,-6.3,30.17,WSW,242,6.0,8.0,53,0.00,,FEW060,0.00,VWS V14.01,2013-01-25 07:40:00,
2013-01-25 02:41:00,7.2,-6.3,30.17,NW,317,6.0,7.0,53,0.00,,CLR,0.00,VWS V14.01,2013-01-25 07:41:00,
2013-01-25 02:42:00,7.2,-6.3,30.17,NW,317,6.0,7.0,53,0.00,,FEW060,0.00,VWS V14.01,2013-01-25 07:42:00,
2013-01-25 02:43:00,7.2,-6.3,30.17,WNW,297,3.0,6.0,53,0.00,,FEW060,0.00,VWS V14.01,2013-01-25 07:43:00,
2013-01-25 02:44:00,7.2,-6.3,30.17,West,273,3.0,4.0,53,0.00,,FEW060,0.00,VWS V14.01,2013-01-25 07:44:00,
2013-01-25 02:45:00,7.2,-6.3,30.17,WNW,283,2.0,4.0,53,0.00,,FEW060,0.00,VWS V14.01,2013-01-25 07:45:00,
2013-01-25 02:46:00,7.2,-6.3,30.17,NNW,336,1.0,5.0,53,0.00,,CLR,0.00,VWS V14.01,2013-01-25 07:46:00,
2013-01-25 02:47:00,7.2,-6.3,30.17,NNW,336,1.0,5.0,53,0.00,,FEW060,0.00,VWS V14.01,2013-01-25 07:47:00,
2013-01-25 02:48:00,7.2,-5.9,30.17,West,273,0.0,6.0,54,0.00,,FEW060,0.00,VWS V14.01,2013-01-25 07:48:00,
2013-01-25 02:49:00,7.2,-5.9,30.17,SW,226,1.0,2.0,54,0.00,,FEW060,0.00,VWS V14.01,2013-01-25 07:49:00,
2013-01-25 02:50:00,7.1,-6.0,30.17,West,260,2.0,7.0,54,0.00,,FEW060,0.00,VWS V14.01,2013-01-25 07:50:00,
2013-01-25 02:51:00,7.1,-6.4,30.17,NW,305,2.0,7.0,53,0.00,,CLR,0.00,VWS V14.01,2013-01-25 07:51:00,
2013-01-25 02:52:00,7.1,-6.4,30.17,NW,305,2.0,7.0,53,0.00,,FEW060,0.00,VWS V14.01,2013-01-25 07:52:00,
2013-01-25 02:53:00,7.1,-6.4,30.17,West,276,4.0,4.0,53,0.00,,FEW060,0.00,VWS V14.01,2013-01-25 07:53:00,
2013-01-25 02:54:00,7.2,-5.9,30.17,SW,222,1.0,5.0,54,0.00,,FEW060,0.00,VWS V14.01,2013-01-25 07:54:00,
2013-01-25 02:55:00,7.1,-6.0,30.17,WNW,300,1.0,3.0,54,0.00,,FEW060,0.00,VWS V14.01,2013-01-25 07:55:00,
2013-01-25 02:56:00,7.1,-6.4,30.17,ESE,123,2.0,4.0,53,0.00,,CLR,0.00,VWS V14.01,2013-01-25 07:56:00,
2013-01-25 02:57:00,7.1,-6.4,30.17,ESE,123,2.0,4.0,53,0.00,,FEW060,0.00,VWS V14.01,2013-01-25 07:57:00,
2013-01-25 02:58:00,7.0,-6.5,30.17,West,264,3.0,6.0,53,0.00,,FEW060,0.00,VWS V14.01,2013-01-25 07:58:00,
2013-01-25 02:59:00,7.1,-6.4,30.17,North,6,3.0,6.0,53,0.00,,FEW060,0.00,VWS V14.01,2013-01-25 07:59:00,
2013-01-25 03:00:00,7.1,-6.4,30.17,WNW,300,2.0,3.0,53,0.00,,FEW060,0.00,VWS V14.01,2013-01-25 08:00:00,
2013-01-25 03:01:00,7.1,-6.4,30.17,South,186,0.0,1.0,53,0.00,,CLR,0.00,VWS V14.01,2013-01-25 08:01:00,
2013-01-25 03:02:00,7.1,-6.4,30.17,South,186,0.0,1.0,53,0.00,,FEW060,0.00,VWS V14.01,2013-01-25 08:02:00,
2013-01-25 03:03:00,7.0,-6.1,30.17,NW,318,2.0,3.0,54,0.00,,FEW060,0.00,VWS V14.01,2013-01-25 08:03:00,
2013-01-25 03:04:00,7.0,-6.1,30.17,WSW,256,1.0,2.0,54,0.00,,FEW060,0.00,VWS V14.01,2013-01-25 08:04:00,
2013-01-25 03:05:00,7.0,-6.5,30.17,West,275,2.0,4.0,53,0.00,,FEW060,0.00,VWS V14.01,2013-01-25 08:05:00,
2013-01-25 03:06:00,7.0,-6.5,30.17,West,263,6.0,6.0,53,0.00,,CLR,0.00,VWS V14.01,2013-01-25 08:06:00,
2013-01-25 03:07:00,7.0,-6.5,30.17,West,263,6.0,6.0,53,0.00,,FEW060,0.00,VWS V14.01,2013-01-25 08:07:00,
2013-01-25 03:08:00,7.0,-6.5,30.17,WNW,290,1.0,6.0,53,0.00,,FEW060,0.00,VWS V14.01,2013-01-25 08:08:00,
2013-01-25 03:09:00,7.0,-6.5,30.17,NW,305,4.0,5.0,53,0.00,,FEW060,0.00,VWS V14.01,2013-01-25 08:09:00,
2013-01-25 03:10:00,7.0,-6.5,30.17,WSW,255,4.0,7.0,53,0.00,,FEW060,0.00,VWS V14.01,2013-01-25 08:10:00,
2013-01-25 03:11:00,7.0,-6.5,30.17,NW,307,1.0,9.0,53,0.00,,CLR,0.00,VWS V14.01,2013-01-25 08:11:00,
2013-01-25 03:12:00,7.0,-6.5,30.17,NW,307,1.0,9.0,53,0.00,,FEW060,0.00,VWS V14.01,2013-01-25 08:12:00,
2013-01-25 03:13:00,7.0,-6.5,30.17,West,276,3.0,3.0,53,0.00,,FEW060,0.00,VWS V14.01,2013-01-25 08:13:00,
2013-01-25 03:14:00,7.0,-6.5,30.17,WSW,248,3.0,4.0,53,0.00,,FEW060,0.00,VWS V14.01,2013-01-25 08:14:00,
2013-01-25 03:15:00,7.0,-6.5,30.17,West,262,5.0,11.0,53,0.00,,FEW060,0.00,VWS V14.01,2013-01-25 08:15:00,
2013-01-25 03:16:00,7.1,-6.4,30.17,WNW,285,3.0,6.0,53,0.00,,CLR,0.00,VWS V14.01,2013-01-25 08:16:00,
2013-01-25 03:17:00,7.1,-6.4,30.17,WNW,285,3.0,6.0,53,0.00,,FEW060,0.00,VWS V14.01,2013-01-25 08:17:00,
2013-01-25 03:18:00,7.1,-6.4,30.17,NW,314,2.0,4.0,53,0.00,,FEW060,0.00,VWS V14.01,2013-01-25 08:18:00,
2013-01-25 03:19:00,7.1,-6.4,30.17,West,276,3.0,7.0,53,0.00,,FEW060,0.00,VWS V14.01,2013-01-25 08:19:00,
2013-01-25 03:20:00,7.1,-6.4,30.17,West,274,1.0,8.0,53,0.00,,FEW060,0.00,VWS V14.01,2013-01-25 08:20:00,
2013-01-25 03:21:00,7.1,-6.4,30.17,NNW,346,4.0,8.0,53,0.00,,CLR,0.00,VWS V14.01,2013-01-25 08:21:00,
2013-01-25 03:22:00,7.1,-6.4,30.17,NNW,346,4.0,8.0,53,0.00,,FEW060,0.00,VWS V14.01,2013-01-25 08:22:00,
2013-01-25 03:23:00,7.1,-6.4,30.17,North,5,2.0,4.0,53,0.00,,FEW060,0.00,VWS V14.01,2013-01-25 08:23:00,
2013-01-25 03:24:00,7.1,-6.4,30.18,NW,312,0.0,3.0,53,0.00,,FEW060,0.00,VWS V14.01,2013-01-25 08:24:00,
2013-01-25 03:25:00,7.1,-6.4,30.18,West,277,0.0,3.0,53,0.00,,FEW060,0.00,VWS V14.01,2013-01-25 08:25:00,
2013-01-25 03:26:00,7.1,-6.0,30.18,WNW,297,6.0,8.0,54,0.00,,CLR,0.00,VWS V14.01,2013-01-25 08:26:00,
2013-01-25 03:27:00,7.1,-6.0,30.18,WNW,297,6.0,8.0,54,0.00,,FEW060,0.00,VWS V14.01,2013-01-25 08:27:00,
2013-01-25 03:28:00,7.1,-6.0,30.18,WSW,248,1.0,9.0,54,0.00,,FEW060,0.00,VWS V14.01,2013-01-25 08:28:00,
2013-01-25 03:29:00,7.2,-5.9,30.18,SW,235,1.0,2.0,54,0.00,,FEW060,0.00,VWS V14.01,2013-01-25 08:29:00,
2013-01-25 03:30:00,7.2,-6.3,30.18,SW,225,0.0,2.0,53,0.00,,FEW060,0.00,VWS V14.01,2013-01-25 08:30:00,
2013-01-25 03:31:00,7.1,-6.0,30.18,WSW,256,0.0,6.0,54,0.00,,CLR,0.00,VWS V14.01,2013-01-25 08:31:00,
2013-01-25 03:32:00,7.1,-6.0,30.18,WSW,256,0.0,6.0,54,0.00,,FEW060,0.00,VWS V14.01,2013-01-25 08:32:00,
2013-01-25 03:33:00,7.1,-6.0,30.18,WSW,255,2.0,2.0,54,0.00,,FEW060,0.00,VWS V14.01,2013-01-25 08:33:00,
2013-01-25 03:34:00,7.1,-6.0,30.18,WSW,246,3.0,4.0,54,0.00,,SCT040,0.00,VWS V14.01,2013-01-25 08:34:00,
2013-01-25 03:35:00,7.1,-6.0,30.18,WNW,284,0.0,4.0,54,0.00,,SCT040,0.00,VWS V14.01,2013-01-25 08:35:00,
2013-01-25 03:36:00,7.0,-6.1,30.18,WNW,290,3.0,5.0,54,0.00,,CLR,0.00,VWS V14.01,2013-01-25 08:36:00,
2013-01-25 03:37:00,7.0,-6.1,30.18,WNW,290,3.0,5.0,54,0.00,,SCT040,0.00,VWS V14.01,2013-01-25 08:37:00,
2013-01-25 03:38:00,7.0,-6.1,30.18,WNW,283,3.0,7.0,54,0.00,,SCT040,0.00,VWS V14.01,2013-01-25 08:38:00,
2013-01-25 03:39:00,6.9,-6.2,30.18,NNW,335,0.0,3.0,54,0.00,,SCT040,0.00,VWS V14.01,2013-01-25 08:39:00,
2013-01-25 03:40:00,6.9,-6.2,30.18,NNW,337,0.0,1.0,54,0.00,,SCT040,0.00,VWS V14.01,2013-01-25 08:40:00,
2013-01-25 03:41:00,6.9,-6.2,30.18,NNW,333,3.0,3.0,54,0.00,,CLR,0.00,VWS V14.01,2013-01-25 08:41:00,
2013-01-25 03:42:00,6.9,-6.2,30.18,NNW,333,3.0,3.0,54,0.00,,SCT040,0.00,VWS V14.01,2013-01-25 08:42:00,
2013-01-25 03:43:00,6.9,-6.2,30.18,NW,322,1.0,3.0,54,0.00,,SCT040,0.00,VWS V14.01,2013-01-25 08:43:00,
2013-01-25 03:44:00,6.8,-6.3,30.18,West,263,3.0,3.0,54,0.00,,SCT040,0.00,VWS V14.01,2013-01-25 08:44:00,
2013-01-25 03:45:00,6.8,-6.3,30.18,SW,235,4.0,4.0,54,0.00,,SCT040,0.00,VWS V14.01,2013-01-25 08:45:00,
2013-01-25 03:46:00,6.7,-6.4,30.18,West,274,1.0,5.0,54,0.00,,CLR,0.00,VWS V14.01,2013-01-25 08:46:00,
2013-01-25 03:47:00,6.7,-6.4,30.18,West,274,1.0,5.0,54,0.00,,SCT040,0.00,VWS V14.01,2013-01-25 08:47:00,
2013-01-25 03:48:00,6.7,-6.4,30.18,WSW,256,3.0,5.0,54,0.00,,SCT040,0.00,VWS V14.01,2013-01-25 08:48:00,
2013-01-25 03:49:00,6.7,-6.0,30.18,West,264,3.0,8.0,55,0.00,,SCT040,0.00,VWS V14.01,2013-01-25 08:49:00,
2013-01-25 03:50:00,6.7,-6.0,30.18,WSW,238,0.0,5.0,55,0.00,,SCT040,0.00,VWS V14.01,2013-01-25 08:50:00,
2013-01-25 03:51:00,6.6,-6.1,30.18,West,278,4.0,5.0,55,0.00,,CLR,0.00,VWS V14.01,2013-01-25 08:51:00,
2013-01-25 03:52:00,6.6,-6.1,30.18,West,278,4.0,5.0,55,0.00,,SCT040,0.00,VWS V14.01,2013-01-25 08:52:00,
2013-01-25 03:53:00,6.7,-6.4,30.18,WNW,298,7.0,11.0,54,0.00,,SCT040,0.00,VWS V14.01,2013-01-25 08:53:00,
2013-01-25 03:54:00,6.7,-6.4,30.18,NNW,340,2.0,8.0,54,0.00,,SCT040,0.00,VWS V14.01,2013-01-25 08:54:00,
2013-01-25 03:55:00,6.7,-6.4,30.18,West,271,3.0,4.0,54,0.00,,SCT040,0.00,VWS V14.01,2013-01-25 08:55:00,
2013-01-25 03:56:00,6.7,-6.4,30.18,SE,141,0.0,2.0,54,0.00,,CLR,0.00,VWS V14.01,2013-01-25 08:56:00,
2013-01-25 03:57:00,6.7,-6.4,30.18,SE,141,0.0,2.0,54,0.00,,SCT040,0.00,VWS V14.01,2013-01-25 08:57:00,
2013-01-25 03:58:00,6.7,-6.0,30.18,West,270,1.0,5.0,55,0.00,,SCT040,0.00,VWS V14.01,2013-01-25 08:58:00,
2013-01-25 03:59:00,6.6,-6.1,30.18,NW,305,2.0,5.0,55,0.00,,SCT040,0.00,VWS V14.01,2013-01-25 08:59:00,
2013-01-25 04:00:00,6.6,-6.1,30.18,NW,318,0.0,2.0,55,0.00,,SCT040,0.00,VWS V14.01,2013-01-25 09:00:00,
2013-01-25 04:01:00,6.6,-6.1,30.18,WNW,297,2.0,9.0,55,0.00,,CLR,0.00,VWS V14.01,2013-01-25 09:01:00,
2013-01-25 04:02:00,6.6,-6.1,30.18,WNW,297,2.0,9.0,55,0.00,,SCT040,0.00,VWS V14.01,2013-01-25 09:02:00,
2013-01-25 04:03:00,6.6,-6.1,30.18,WNW,283,2.0,8.0,55,0.00,,SCT040,0.00,VWS V14.01,2013-01-25 09:03:00,
2013-01-25 04:04:00,6.6,-6.5,30.18,WSW,238,6.0,6.0,54,0.00,,SCT040,0.00,VWS V14.01,2013-01-25 09:04:00,
2013-01-25 04:05:00,6.6,-6.1,30.18,West,263,6.0,6.0,55,0.00,,SCT040,0.00,VWS V14.01,2013-01-25 09:05:00,
2013-01-25 04:06:00,6.7,-6.0,30.18,West,278,6.0,6.0,55,0.00,,CLR,0.00,VWS V14.01,2013-01-25 09:06:00,
2013-01-25 04:07:00,6.7,-6.0,30.18,West,278,6.0,6.0,55,0.00,,SCT040,0.00,VWS V14.01,2013-01-25 09:07:00,
2013-01-25 04:08:00,6.7,-6.0,30.18,West,274,6.0,8.0,55,0.00,,SCT040,0.00,VWS V14.01,2013-01-25 09:08:00,
2013-01-25 04:09:00,6.7,-6.0,30.18,WNW,287,10.0,10.0,55,0.00,,SCT040,0.00,VWS V14.01,2013-01-25 09:09:00,
2013-01-25 04:10:00,6.7,-6.4,30.18,WSW,250,2.0,10.0,54,0.00,,SCT040,0.00,VWS V14.01,2013-01-25 09:10:00,
2013-01-25 04:11:00,6.7,-6.4,30.18,NW,318,1.0,6.0,54,0.00,,CLR,0.00,VWS V14.01,2013-01-25 09:11:00,
2013-01-25 04:12:00,6.7,-6.4,30.18,NW,318,1.0,6.0,54,0.00,,SCT040,0.00,VWS V14.01,2013-01-25 09:12:00,
2013-01-25 04:13:00,6.7,-6.4,30.18,WNW,292,0.0,2.0,54,0.00,,SCT040,0.00,VWS V14.01,2013-01-25 09:13:00,
2013-01-25 04:14:00,6.7,-6.0,30.18,West,278,5.0,9.0,55,0.00,,SCT040,0.00,VWS V14.01,2013-01-25 09:14:00,
2013-01-25 04:15:00,6.7,-6.0,30.18,West,269,4.0,7.0,55,0.00,,SCT040,0.00,VWS V14.01,2013-01-25 09:15:00,
2013-01-25 04:16:00,6.8,-5.9,30.18,West,262,5.0,6.0,55,0.00,,CLR,0.00,VWS V14.01,2013-01-25 09:16:00,
2013-01-25 04:17:00,6.8,-5.9,30.18,West,262,5.0,6.0,55,0.00,,SCT040,0.00,VWS V14.01,2013-01-25 09:17:00,
2013-01-25 04:18:00,6.7,-6.0,30.18,WSW,256,1.0,5.0,55,0.00,,SCT040,0.00,VWS V14.01,2013-01-25 09:18:00,
2013-01-25 04:19:00,6.8,-5.9,30.18,West,269,3.0,9.0,55,0.00,,SCT040,0.00,VWS V14.01,2013-01-25 09:19:00,
2013-01-25 04:20:00,6.8,-5.9,30.18,NW,308,5.0,7.0,55,0.00,,SCT040,0.00,VWS V14.01,2013-01-25 09:20:00,
2013-01-25 04:21:00,6.8,-5.9,30.18,NW,312,4.0,8.0,55,0.00,,CLR,0.00,VWS V14.01,2013-01-25 09:21:00,
2013-01-25 04:22:00,6.8,-5.9,30.18,NW,312,4.0,8.0,55,0.00,,SCT040,0.00,VWS V14.01,2013-01-25 09:22:00,
2013-01-25 04:23:00,6.8,-5.9,30.18,West,263,2.0,6.0,55,0.00,,SCT040,0.00,VWS V14.01,2013-01-25 09:23:00,
2013-01-25 04:24:00,6.8,-5.9,30.18,WNW,283,5.0,7.0,55,0.00,,SCT040,0.00,VWS V14.01,2013-01-25 09:24:00,
2013-01-25 04:25:00,6.8,-5.9,30.18,West,273,5.0,7.0,55,0.00,,SCT040,0.00,VWS V14.01,2013-01-25 09:25:00,
2013-01-25 04:26:00,6.9,-5.8,30.18,WSW,252,7.0,8.0,55,0.00,,CLR,0.00,VWS V14.01,2013-01-25 09:26:00,
2013-01-25 04:27:00,6.9,-5.8,30.18,WSW,252,7.0,8.0,55,0.00,,SCT040,0.00,VWS V14.01,2013-01-25 09:27:00,
2013-01-25 04:28:00,6.9,-5.8,30.18,West,269,3.0,7.0,55,0.00,,SCT040,0.00,VWS V14.01,2013-01-25 09:28:00,
2013-01-25 04:29:00,6.9,-5.8,30.19,NNE,27,2.0,5.0,55,0.00,,SCT040,0.00,VWS V14.01,2013-01-25 09:29:00,
2013-01-25 04:30:00,6.9,-5.8,30.19,WSW,256,3.0,3.0,55,0.00,,SCT040,0.00,VWS V14.01,2013-01-25 09:30:00,
2013-01-25 04:31:00,6.9,-5.8,30.19,North,9,2.0,7.0,55,0.00,,CLR,0.00,VWS V14.01,2013-01-25 09:31:00,
2013-01-25 04:32:00,6.9,-5.8,30.19,North,9,2.0,7.0,55,0.00,,SCT040,0.00,VWS V14.01,2013-01-25 09:32:00,
2013-01-25 04:33:00,6.9,-5.8,30.18,WSW,238,6.0,10.0,55,0.00,,SCT040,0.00,VWS V14.01,2013-01-25 09:33:00,
2013-01-25 04:34:00,6.9,-5.8,30.18,NNW,335,2.0,6.0,55,0.00,,SCT040,0.00,VWS V14.01,2013-01-25 09:34:00,
2013-01-25 04:35:00,6.9,-5.8,30.18,West,262,3.0,5.0,55,0.00,,SCT040,0.00,VWS V14.01,2013-01-25 09:35:00,
2013-01-25 04:36:00,6.9,-5.8,30.18,WSW,257,4.0,4.0,55,0.00,,CLR,0.00,VWS V14.01,2013-01-25 09:36:00,
2013-01-25 04:37:00,6.9,-5.8,30.18,WSW,257,4.0,4.0,55,0.00,,SCT040,0.00,VWS V14.01,2013-01-25 09:37:00,
2013-01-25 04:38:00,6.9,-5.8,30.18,West,271,3.0,4.0,55,0.00,,SCT040,0.00,VWS V14.01,2013-01-25 09:38:00,
2013-01-25 04:39:00,6.9,-5.8,30.18,West,263,5.0,13.0,55,0.00,,SCT040,0.00,VWS V14.01,2013-01-25 09:39:00,
2013-01-25 04:40:00,6.9,-5.8,30.18,WNW,294,3.0,6.0,55,0.00,,SCT040,0.00,VWS V14.01,2013-01-25 09:40:00,
2013-01-25 04:41:00,6.9,-5.8,30.18,West,271,5.0,8.0,55,0.00,,CLR,0.00,VWS V14.01,2013-01-25 09:41:00,
2013-01-25 04:42:00,6.9,-5.8,30.18,WNW,287,4.0,8.0,55,0.00,,SCT040,0.00,VWS V14.01,2013-01-25 09:42:00,
2013-01-25 04:43:00,6.9,-5.8,30.18,WSW,258,8.0,8.0,55,0.00,,SCT040,0.00,VWS V14.01,2013-01-25 09:43:00,
2013-01-25 04:44:00,6.9,-5.8,30.18,West,264,5.0,9.0,55,0.00,,SCT040,0.00,VWS V14.01,2013-01-25 09:44:00,
2013-01-25 04:45:00,6.9,-5.8,30.18,WNW,290,6.0,8.0,55,0.00,,SCT040,0.00,VWS V14.01,2013-01-25 09:45:00,
2013-01-25 04:46:00,6.9,-5.8,30.18,West,266,2.0,6.0,55,0.00,,CLR,0.00,VWS V14.01,2013-01-25 09:46:00,
2013-01-25 04:47:00,6.9,-5.8,30.18,West,266,2.0,6.0,55,0.00,,SCT040,0.00,VWS V14.01,2013-01-25 09:47:00,
2013-01-25 04:48:00,6.9,-5.8,30.18,West,270,8.0,8.0,55,0.00,,SCT040,0.00,VWS V14.01,2013-01-25 09:48:00,
2013-01-25 04:49:00,6.9,-5.8,30.18,WNW,284,4.0,9.0,55,0.00,,SCT040,0.00,VWS V14.01,2013-01-25 09:49:00,
2013-01-25 04:50:00,6.9,-5.8,30.18,West,263,1.0,4.0,55,0.00,,SCT040,0.00,VWS V14.01,2013-01-25 09:50:00,
2013-01-25 04:51:00,6.9,-5.8,30.18,WNW,292,2.0,5.0,55,0.00,,CLR,0.00,VWS V14.01,2013-01-25 09:51:00,
2013-01-25 04:52:00,6.9,-5.8,30.18,WNW,292,2.0,5.0,55,0.00,,SCT040,0.00,VWS V14.01,2013-01-25 09:52:00,
2013-01-25 04:53:00,6.9,-5.8,30.18,NW,316,3.0,5.0,55,0.00,,SCT040,0.00,VWS V14.01,2013-01-25 09:53:00,
2013-01-25 04:54:00,6.9,-5.8,30.18,WSW,248,1.0,6.0,55,0.00,,SCT040,0.00,VWS V14.01,2013-01-25 09:54:00,
2013-01-25 04:55:00,6.9,-5.8,30.18,NW,325,3.0,6.0,55,0.00,,SCT040,0.00,VWS V14.01,2013-01-25 09:55:00,
2013-01-25 04:56:00,6.9,-5.8,30.18,West,280,1.0,3.0,55,0.00,,CLR,0.00,VWS V14.01,2013-01-25 09:56:00,
2013-01-25 04:57:00,6.9,-5.8,30.18,West,280,1.0,3.0,55,0.00,,SCT040,0.00,VWS V14.01,2013-01-25 09:57:00,
2013-01-25 04:58:00,6.8,-5.9,30.18,West,259,3.0,6.0,55,0.00,,SCT040,0.00,VWS V14.01,2013-01-25 09:58:00,
2013-01-25 04:59:00,6.8,-5.9,30.18,SW,224,1.0,5.0,55,0.00,,SCT040,0.00,VWS V14.01,2013-01-25 09:59:00,
2013-01-25 05:00:00,6.8,-5.9,30.18,West,264,4.0,4.0,55,0.00,,SCT040,0.00,VWS V14.01,2013-01-25 10:00:00,
2013-01-25 05:01:00,6.8,-5.9,30.18,NW,315,1.0,8.0,55,0.00,,CLR,0.00,VWS V14.01,2013-01-25 10:01:00,
2013-01-25 05:02:00,6.8,-5.9,30.18,NW,315,1.0,8.0,55,0.00,,SCT040,0.00,VWS V14.01,2013-01-25 10:02:00,
2013-01-25 05:03:00,6.8,-5.9,30.18,WNW,285,3.0,5.0,55,0.00,,SCT040,0.00,VWS V14.01,2013-01-25 10:03:00,
2013-01-25 05:04:00,6.8,-5.9,30.18,West,278,2.0,5.0,55,0.00,,SCT040,0.00,VWS V14.01,2013-01-25 10:04:00,
2013-01-25 05:05:00,6.8,-5.9,30.18,West,266,3.0,3.0,55,0.00,,SCT040,0.00,VWS V14.01,2013-01-25 10:05:00,
2013-01-25 05:06:00,6.8,-5.9,30.19,West,271,3.0,4.0,55,0.00,,CLR,0.00,VWS V14.01,2013-01-25 10:06:00,
2013-01-25 05:07:00,6.8,-5.9,30.18,West,273,4.0,8.0,55,0.00,,SCT040,0.00,VWS V14.01,2013-01-25 10:07:00,
2013-01-25 05:08:00,6.8,-5.9,30.19,West,269,5.0,6.0,55,0.00,,SCT040,0.00,VWS V14.01,2013-01-25 10:08:00,
2013-01-25 05:09:00,6.8,-5.9,30.19,West,276,4.0,5.0,55,0.00,,SCT040,0.00,VWS V14.01,2013-01-25 10:09:00,
2013-01-25 05:10:00,6.9,-5.8,30.19,West,280,7.0,9.0,55,0.00,,SCT040,0.00,VWS V14.01,2013-01-25 10:10:00,
2013-01-25 05:11:00,6.9,-5.8,30.19,West,269,6.0,6.0,55,0.00,,CLR,0.00,VWS V14.01,2013-01-25 10:11:00,
2013-01-25 05:12:00,6.9,-5.8,30.19,WNW,290,2.0,6.0,55,0.00,,SCT040,0.00,VWS V14.01,2013-01-25 10:12:00,
2013-01-25 05:13:00,6.9,-5.8,30.19,WNW,292,6.0,9.0,55,0.00,,SCT040,0.00,VWS V14.01,2013-01-25 10:13:00,
2013-01-25 05:14:00,6.9,-5.8,30.19,NW,307,1.0,7.0,55,0.00,,SCT040,0.00,VWS V14.01,2013-01-25 10:14:00,
2013-01-25 05:15:00,6.9,-5.8,30.19,West,270,1.0,5.0,55,0.00,,SCT040,0.00,VWS V14.01,2013-01-25 10:15:00,
2013-01-25 05:16:00,6.9,-5.8,30.19,NW,307,4.0,9.0,55,0.00,,CLR,0.00,VWS V14.01,2013-01-25 10:16:00,
2013-01-25 05:17:00,6.9,-5.8,30.19,West,259,8.0,8.0,55,0.00,,SCT040,0.00,VWS V14.01,2013-01-25 10:17:00,
2013-01-25 05:18:00,6.9,-5.8,30.19,WNW,284,3.0,9.0,55,0.00,,SCT040,0.00,VWS V14.01,2013-01-25 10:18:00,
2013-01-25 05:19:00,6.9,-5.8,30.19,West,273,3.0,10.0,55,0.00,,SCT040,0.00,VWS V14.01,2013-01-25 10:19:00,
2013-01-25 05:20:00,6.9,-5.8,30.18,West,270,1.0,4.0,55,0.00,,SCT040,0.00,VWS V14.01,2013-01-25 10:20:00,
2013-01-25 05:21:00,6.9,-5.8,30.19,West,281,3.0,4.0,55,0.00,,CLR,0.00,VWS V14.01,2013-01-25 10:21:00,
2013-01-25 05:22:00,6.9,-5.8,30.18,West,262,4.0,10.0,55,0.00,,SCT040,0.00,VWS V14.01,2013-01-25 10:22:00,
2013-01-25 05:23:00,6.9,-5.8,30.19,West,269,4.0,8.0,55,0.00,,SCT040,0.00,VWS V14.01,2013-01-25 10:23:00,
2013-01-25 05:24:00,6.9,-5.8,30.19,WNW,290,3.0,7.0,55,0.00,,SCT040,0.00,VWS V14.01,2013-01-25 10:24:00,
2013-01-25 05:25:00,6.9,-5.8,30.19,West,264,2.0,7.0,55,0.00,,SCT040,0.00,VWS V14.01,2013-01-25 10:25:00,
2013-01-25 05:26:00,6.9,-5.8,30.19,SE,142,2.0,6.0,55,0.00,,CLR,0.00,VWS V14.01,2013-01-25 10:26:00,
2013-01-25 05:27:00,6.9,-5.8,30.19,West,263,5.0,10.0,55,0.00,,SCT040,0.00,VWS V14.01,2013-01-25 10:27:00,
2013-01-25 05:28:00,6.9,-5.8,30.19,NW,313,7.0,7.0,55,0.00,,SCT040,0.00,VWS V14.01,2013-01-25 10:28:00,
2013-01-25 05:29:00,6.9,-5.8,30.19,NNW,343,1.0,9.0,55,0.00,,SCT040,0.00,VWS V14.01,2013-01-25 10:29:00,
2013-01-25 05:30:00,6.9,-5.8,30.20,NE,47,3.0,6.0,55,0.00,,SCT040,0.00,VWS V14.01,2013-01-25 10:30:00,
2013-01-25 05:31:00,6.9,-5.8,30.20,West,274,9.0,9.0,55,0.00,,SCT040,0.00,VWS V14.01,2013-01-25 10:31:00,
2013-01-25 05:32:00,7.0,-5.8,30.20,West,259,6.0,7.0,55,0.00,,CLR,0.00,VWS V14.01,2013-01-25 10:32:00,
2013-01-25 05:33:00,6.9,-5.8,30.20,West,276,6.0,7.0,55,0.00,,SCT040,0.00,VWS V14.01,2013-01-25 10:33:00,
2013-01-25 05:34:00,6.9,-5.8,30.20,SW,215,2.0,10.0,55,0.00,,SCT040,0.00,VWS V14.01,2013-01-25 10:34:00,
2013-01-25 05:35:00,6.9,-5.8,30.20,WNW,294,0.0,9.0,55,0.00,,SCT040,0.00,VWS V14.01,2013-01-25 10:35:00,
2013-01-25 05:36:00,6.9,-5.8,30.20,West,267,1.0,2.0,55,0.00,,SCT040,0.00,VWS V14.01,2013-01-25 10:36:00,
2013-01-25 05:37:00,6.9,-5.8,30.20,West,276,9.0,11.0,55,0.00,,CLR,0.00,VWS V14.01,2013-01-25 10:37:00,
2013-01-25 05:38:00,6.9,-5.8,30.20,West,276,9.0,11.0,55,0.00,,SCT040,0.00,VWS V14.01,2013-01-25 10:38:00,
2013-01-25 05:39:00,6.9,-5.8,30.20,NNW,331,2.0,8.0,55,0.00,,SCT040,0.00,VWS V14.01,2013-01-25 10:39:00,
2013-01-25 05:40:00,6.9,-5.8,30.20,WSW,252,3.0,12.0,55,0.00,,SCT040,0.00,VWS V14.01,2013-01-25 10:40:00,
2013-01-25 05:41:00,6.9,-5.8,30.20,South,174,1.0,4.0,55,0.00,,SCT040,0.00,VWS V14.01,2013-01-25 10:41:00,
2013-01-25 05:42:00,6.9,-5.8,30.20,WSW,253,1.0,4.0,55,0.00,,CLR,0.00,VWS V14.01,2013-01-25 10:42:00,
2013-01-25 05:43:00,6.9,-5.8,30.20,WSW,253,1.0,4.0,55,0.00,,SCT040,0.00,VWS V14.01,2013-01-25 10:43:00,
2013-01-25 05:44:00,6.9,-5.8,30.21,West,269,3.0,3.0,55,0.00,,SCT040,0.00,VWS V14.01,2013-01-25 10:44:00,
2013-01-25 05:45:00,6.9,-5.5,30.21,West,266,1.0,3.0,56,0.00,,SCT040,0.00,VWS V14.01,2013-01-25 10:45:00,
2013-01-25 05:46:00,6.9,-5.5,30.21,West,262,0.0,4.0,56,0.00,,SCT040,0.00,VWS V14.01,2013-01-25 10:46:00,
2013-01-25 05:47:00,6.9,-5.5,30.20,WSW,250,0.0,0.0,56,0.00,,CLR,0.00,VWS V14.01,2013-01-25 10:47:00,
2013-01-25 05:48:00,6.9,-5.5,30.20,WSW,252,0.0,2.0,56,0.00,,SCT040,0.00,VWS V14.01,2013-01-25 10:48:00,
2013-01-25 05:49:00,6.8,-5.6,30.20,WSW,255,0.0,3.0,56,0.00,,SCT040,0.00,VWS V14.01,2013-01-25 10:49:00,
2013-01-25 05:50:00,6.7,-5.7,30.20,West,274,1.0,2.0,56,0.00,,SCT040,0.00,VWS V14.01,2013-01-25 10:50:00,
2013-01-25 05:51:00,6.7,-5.7,30.20,ESE,122,0.0,2.0,56,0.00,,SCT040,0.00,VWS V14.01,2013-01-25 10:51:00,
2013-01-25 05:52:00,6.6,-5.8,30.20,SSE,160,0.0,0.0,56,0.00,,CLR,0.00,VWS V14.01,2013-01-25 10:52:00,
2013-01-25 05:53:00,6.6,-5.8,30.20,WSW,246,0.0,0.0,56,0.00,,SCT040,0.00,VWS V14.01,2013-01-25 10:53:00,
2013-01-25 05:54:00,6.6,-5.8,30.21,SSW,207,2.0,3.0,56,0.00,,SCT040,0.00,VWS V14.01,2013-01-25 10:54:00,
2013-01-25 05:55:00,6.6,-5.8,30.21,SSW,203,0.0,1.0,56,0.00,,SCT040,0.00,VWS V14.01,2013-01-25 10:55:00,
2013-01-25 05:56:00,6.5,-5.8,30.21,SW,225,2.0,5.0,56,0.00,,SCT040,0.00,VWS V14.01,2013-01-25 10:56:00,
2013-01-25 05:57:00,6.4,-5.9,30.21,West,278,3.0,3.0,56,0.00,,CLR,0.00,VWS V14.01,2013-01-25 10:57:00,
2013-01-25 05:58:00,6.5,-5.8,30.21,NW,322,1.0,6.0,56,0.00,,SCT040,0.00,VWS V14.01,2013-01-25 10:58:00,
2013-01-25 05:59:00,6.4,-5.9,30.21,West,271,2.0,3.0,56,0.00,,SCT040,0.00,VWS V14.01,2013-01-25 10:59:00,
2013-01-25 06:00:00,6.4,-5.9,30.21,West,269,2.0,3.0,56,0.00,,SCT040,0.00,VWS V14.01,2013-01-25 11:00:00,
2013-01-25 06:02:00,6.3,-6.0,30.21,West,271,2.0,3.0,56,0.00,,CLR,0.00,VWS V14.01,2013-01-25 11:02:00,
2013-01-25 06:03:00,6.3,-6.0,30.21,West,273,3.0,3.0,56,0.00,,SCT040,0.00,VWS V14.01,2013-01-25 11:03:00,
2013-01-25 06:04:00,6.3,-5.7,30.21,WNW,293,3.0,5.0,57,0.00,,SCT040,0.00,VWS V14.01,2013-01-25 11:04:00,
2013-01-25 06:06:00,6.3,-6.0,30.21,WNW,300,0.0,3.0,56,0.00,,SCT040,0.00,VWS V14.01,2013-01-25 11:06:00,
2013-01-25 06:07:00,6.3,-6.0,30.21,SW,232,3.0,5.0,56,0.00,,CLR,0.00,VWS V14.01,2013-01-25 11:07:00,
2013-01-25 06:09:00,6.3,-6.0,30.21,WNW,302,1.0,5.0,56,0.00,,SCT040,0.00,VWS V14.01,2013-01-25 11:09:00,
2013-01-25 06:10:00,6.3,-6.0,30.21,NW,323,1.0,5.0,56,0.00,,SCT040,0.00,VWS V14.01,2013-01-25 11:10:00,
2013-01-25 06:12:00,6.3,-6.0,30.21,SW,226,2.0,4.0,56,0.00,,SCT040,0.00,VWS V14.01,2013-01-25 11:12:00,
2013-01-25 06:13:00,6.3,-6.0,30.21,WNW,284,1.0,2.0,56,0.00,,CLR,0.00,VWS V14.01,2013-01-25 11:13:00,
2013-01-25 06:15:00,6.3,-5.7,30.21,West,277,8.0,8.0,57,0.00,,SCT040,0.00,VWS V14.01,2013-01-25 11:15:00,
2013-01-25 06:16:00,6.3,-6.0,30.21,WNW,285,5.0,8.0,56,0.00,,SCT040,0.00,VWS V14.01,2013-01-25 11:16:00,
2013-01-25 06:17:00,6.3,-6.0,30.21,West,266,4.0,8.0,56,0.00,,SCT040,0.00,VWS V14.01,2013-01-25 11:17:00,
2013-01-25 06:18:00,6.3,-6.0,30.20,West,266,4.0,4.0,56,0.00,,CLR,0.00,VWS V14.01,2013-01-25 11:18:00,
2013-01-25 06:19:00,6.3,-6.0,30.20,West,259,3.0,4.0,56,0.00,,SCT040,0.00,VWS V14.01,2013-01-25 11:19:00,
2013-01-25 06:20:00,6.3,-6.0,30.21,West,262,5.0,5.0,56,0.00,,SCT040,0.00,VWS V14.01,2013-01-25 11:20:00,
2013-01-25 06:21:00,6.3,-6.0,30.21,West,259,2.0,5.0,56,0.00,,SCT040,0.00,VWS V14.01,2013-01-25 11:21:00,
2013-01-25 06:22:00,6.4,-5.9,30.21,WSW,256,1.0,2.0,56,0.00,,SCT040,0.00,VWS V14.01,2013-01-25 11:22:00,
2013-01-25 06:23:00,6.3,-6.0,30.20,WNW,287,1.0,4.0,56,0.00,,CLR,0.00,VWS V14.01,2013-01-25 11:23:00,
2013-01-25 06:24:00,6.3,-6.0,30.20,WNW,287,1.0,4.0,56,0.00,,SCT040,0.00,VWS V14.01,2013-01-25 11:24:00,
2013-01-25 06:25:00,6.3,-6.0,30.21,South,177,0.0,2.0,56,0.00,,SCT040,0.00,VWS V14.01,2013-01-25 11:25:00,
2013-01-25 06:26:00,6.3,-5.7,30.21,SW,235,3.0,4.0,57,0.00,,SCT040,0.00,VWS V14.01,2013-01-25 11:26:00,
2013-01-25 06:27:00,6.3,-5.7,30.21,West,273,4.0,7.0,57,0.00,,SCT040,0.00,VWS V14.01,2013-01-25 11:27:00,
2013-01-25 06:28:00,6.3,-6.0,30.21,West,264,0.0,6.0,56,0.00,,CLR,0.00,VWS V14.01,2013-01-25 11:28:00,
2013-01-25 06:29:00,6.3,-6.0,30.21,West,264,0.0,6.0,56,0.00,,SCT040,0.00,VWS V14.01,2013-01-25 11:29:00,
2013-01-25 06:30:00,6.3,-6.0,30.21,WSW,249,4.0,6.0,56,0.00,,SCT040,0.00,VWS V14.01,2013-01-25 11:30:00,
2013-01-25 06:31:00,6.3,-6.0,30.21,West,267,5.0,7.0,56,0.00,,SCT040,0.00,VWS V14.01,2013-01-25 11:31:00,
2013-01-25 06:32:00,6.3,-6.0,30.21,West,269,3.0,6.0,56,0.00,,SCT040,0.00,VWS V14.01,2013-01-25 11:32:00,
2013-01-25 06:33:00,6.3,-6.0,30.21,East,81,1.0,3.0,56,0.00,,CLR,0.00,VWS V14.01,2013-01-25 11:33:00,
2013-01-25 06:34:00,6.3,-6.0,30.21,East,81,1.0,3.0,56,0.00,,SCT040,0.00,VWS V14.01,2013-01-25 11:34:00,
2013-01-25 06:35:00,6.3,-6.0,30.21,NW,316,3.0,4.0,56,0.00,,SCT040,0.00,VWS V14.01,2013-01-25 11:35:00,
2013-01-25 06:36:00,6.3,-6.0,30.21,WNW,291,1.0,5.0,56,0.00,,SCT040,0.00,VWS V14.01,2013-01-25 11:36:00,
2013-01-25 06:37:00,6.3,-6.0,30.21,South,181,2.0,2.0,56,0.00,,SCT040,0.00,VWS V14.01,2013-01-25 11:37:00,
2013-01-25 06:38:00,6.3,-6.0,30.21,West,260,7.0,8.0,56,0.00,,FEW250,0.00,VWS V14.01,2013-01-25 11:38:00,
2013-01-25 06:39:00,6.3,-6.0,30.21,West,260,7.0,8.0,56,0.00,,SCT040,0.00,VWS V14.01,2013-01-25 11:39:00,
2013-01-25 06:40:00,6.3,-6.0,30.21,SSW,203,2.0,7.0,56,0.00,,SCT040,0.00,VWS V14.01,2013-01-25 11:40:00,
2013-01-25 06:41:00,6.3,-6.0,30.21,SW,224,3.0,6.0,56,0.00,,SCT040,0.00,VWS V14.01,2013-01-25 11:41:00,
2013-01-25 06:42:00,6.3,-6.0,30.21,NNW,327,1.0,4.0,56,0.00,,SCT040,0.00,VWS V14.01,2013-01-25 11:42:00,
2013-01-25 06:43:00,6.3,-6.0,30.21,West,259,3.0,6.0,56,0.00,,FEW250,0.00,VWS V14.01,2013-01-25 11:43:00,
2013-01-25 06:44:00,6.3,-6.0,30.21,West,259,3.0,6.0,56,0.00,,SCT040,0.00,VWS V14.01,2013-01-25 11:44:00,
2013-01-25 06:45:00,6.3,-6.0,30.21,NNW,336,1.0,5.0,56,0.00,,SCT040,0.00,VWS V14.01,2013-01-25 11:45:00,
2013-01-25 06:46:00,6.3,-6.0,30.22,WSW,252,1.0,3.0,56,0.00,,SCT040,0.00,VWS V14.01,2013-01-25 11:46:00,
2013-01-25 06:47:00,6.3,-6.0,30.22,NW,305,4.0,5.0,56,0.00,,SCT040,0.00,VWS V14.01,2013-01-25 11:47:00,
2013-01-25 06:48:00,6.3,-6.0,30.22,West,278,5.0,7.0,56,0.00,,FEW250,0.00,VWS V14.01,2013-01-25 11:48:00,
2013-01-25 06:49:00,6.3,-6.0,30.22,West,278,5.0,7.0,56,0.00,,SCT040,0.00,VWS V14.01,2013-01-25 11:49:00,
2013-01-25 06:50:00,6.3,-6.0,30.22,West,278,2.0,7.0,56,0.00,,SCT040,0.00,VWS V14.01,2013-01-25 11:50:00,
2013-01-25 06:51:00,6.3,-6.0,30.22,West,263,1.0,3.0,56,0.00,,SCT040,0.00,VWS V14.01,2013-01-25 11:51:00,
2013-01-25 06:52:00,6.3,-6.0,30.22,West,276,7.0,8.0,56,0.00,,SCT040,0.00,VWS V14.01,2013-01-25 11:52:00,
2013-01-25 06:53:00,6.3,-6.4,30.22,West,278,1.0,3.0,55,0.00,,FEW250,0.00,VWS V14.01,2013-01-25 11:53:00,
2013-01-25 06:54:00,6.3,-6.4,30.22,West,278,1.0,3.0,55,0.00,,SCT040,0.00,VWS V14.01,2013-01-25 11:54:00,
2013-01-25 06:55:00,6.3,-6.0,30.22,West,270,2.0,3.0,56,0.00,,SCT040,0.00,VWS V14.01,2013-01-25 11:55:00,
2013-01-25 06:56:00,6.3,-6.0,30.22,West,264,3.0,5.0,56,0.00,,SCT040,0.00,VWS V14.01,2013-01-25 11:56:00,
2013-01-25 06:57:00,6.3,-6.0,30.22,West,270,2.0,4.0,56,0.00,,SCT040,0.00,VWS V14.01,2013-01-25 11:57:00,
2013-01-25 06:58:00,6.3,-6.0,30.22,West,271,7.0,10.0,56,0.00,,FEW250,0.00,VWS V14.01,2013-01-25 11:58:00,
2013-01-25 06:59:00,6.3,-6.0,30.22,West,271,7.0,10.0,56,0.00,,SCT040,0.00,VWS V14.01,2013-01-25 11:59:00,
2013-01-25 07:00:00,6.3,-6.4,30.22,WSW,240,4.0,7.0,55,0.00,,SCT040,0.00,VWS V14.01,2013-01-25 12:00:00,
2013-01-25 07:01:00,6.4,-6.3,30.22,WSW,245,3.0,6.0,55,0.00,,SCT040,0.00,VWS V14.01,2013-01-25 12:01:00,
2013-01-25 07:02:00,6.4,-5.9,30.22,West,269,2.0,4.0,56,0.00,,SCT040,0.00,VWS V14.01,2013-01-25 12:02:00,
2013-01-25 07:03:00,6.4,-5.9,30.22,NW,313,2.0,4.0,56,0.00,,FEW250,0.00,VWS V14.01,2013-01-25 12:03:00,
2013-01-25 07:04:00,6.4,-5.9,30.22,NW,313,2.0,4.0,56,0.00,,SCT040,0.00,VWS V14.01,2013-01-25 12:04:00,
2013-01-25 07:05:00,6.4,-5.9,30.22,West,271,2.0,6.0,56,0.00,,SCT040,0.00,VWS V14.01,2013-01-25 12:05:00,
2013-01-25 07:06:00,6.4,-5.9,30.22,West,278,0.0,4.0,56,0.00,,SCT040,0.00,VWS V14.01,2013-01-25 12:06:00,
2013-01-25 07:07:00,6.4,-6.3,30.22,West,276,3.0,7.0,55,0.00,,SCT040,0.00,VWS V14.01,2013-01-25 12:07:00,
2013-01-25 07:08:00,6.5,-6.2,30.22,West,266,4.0,5.0,55,0.00,,FEW250,0.00,VWS V14.01,2013-01-25 12:08:00,
2013-01-25 07:09:00,6.5,-6.2,30.22,West,266,4.0,5.0,55,0.00,,SCT040,0.00,VWS V14.01,2013-01-25 12:09:00,
2013-01-25 07:10:00,6.5,-6.2,30.22,WSW,257,2.0,5.0,55,0.00,,SCT040,0.00,VWS V14.01,2013-01-25 12:10:00,
2013-01-25 07:11:00,6.5,-5.8,30.22,WNW,283,1.0,3.0,56,0.00,,SCT040,0.00,VWS V14.01,2013-01-25 12:11:00,
2013-01-25 07:12:00,6.5,-5.8,30.22,SW,231,2.0,3.0,56,0.00,,SCT040,0.00,VWS V14.01,2013-01-25 12:12:00,
2013-01-25 07:13:00,6.5,-6.2,30.22,SSW,192,0.0,6.0,55,0.00,,FEW250,0.00,VWS V14.01,2013-01-25 12:13:00,
2013-01-25 07:14:00,6.5,-6.2,30.22,SSW,192,0.0,6.0,55,0.00,,SCT040,0.00,VWS V14.01,2013-01-25 12:14:00,
2013-01-25 07:15:00,6.5,-6.2,30.22,WSW,248,1.0,4.0,55,0.00,,SCT040,0.00,VWS V14.01,2013-01-25 12:15:00,
2013-01-25 07:16:00,6.5,-6.2,30.22,West,262,1.0,2.0,55,0.00,,SCT040,0.00,VWS V14.01,2013-01-25 12:16:00,
2013-01-25 07:17:00,6.5,-6.2,30.22,WNW,294,1.0,5.0,55,0.00,,SCT040,0.00,VWS V14.01,2013-01-25 12:17:00,
2013-01-25 07:18:00,6.6,-5.8,30.22,West,267,2.0,2.0,56,0.00,,FEW250,0.00,VWS V14.01,2013-01-25 12:18:00,
2013-01-25 07:19:00,6.6,-5.8,30.22,West,267,2.0,2.0,56,0.00,,SCT040,0.00,VWS V14.01,2013-01-25 12:19:00,
2013-01-25 07:20:00,6.6,-5.8,30.22,West,267,1.0,3.0,56,0.00,,SCT040,0.00,VWS V14.01,2013-01-25 12:20:00,
2013-01-25 07:21:00,6.6,-5.8,30.22,SSW,212,2.0,2.0,56,0.00,,SCT040,0.00,VWS V14.01,2013-01-25 12:21:00,
2013-01-25 07:22:00,6.6,-5.8,30.22,West,260,3.0,3.0,56,0.00,,SCT040,0.00,VWS V14.01,2013-01-25 12:22:00,
2013-01-25 07:23:00,6.6,-5.8,30.22,West,271,6.0,7.0,56,0.00,,FEW250,0.00,VWS V14.01,2013-01-25 12:23:00,
2013-01-25 07:24:00,6.6,-5.8,30.22,West,271,6.0,7.0,56,0.00,,SCT040,0.00,VWS V14.01,2013-01-25 12:24:00,
2013-01-25 07:25:00,6.7,-6.0,30.22,WSW,250,2.0,6.0,55,0.00,,SCT040,0.00,VWS V14.01,2013-01-25 12:25:00,
2013-01-25 07:26:00,6.7,-6.0,30.22,SSW,205,1.0,6.0,55,0.00,,SCT040,0.00,VWS V14.01,2013-01-25 12:26:00,
2013-01-25 07:27:00,6.7,-6.0,30.22,West,271,2.0,4.0,55,0.00,,SCT040,0.00,VWS V14.01,2013-01-25 12:27:00,
2013-01-25 07:28:00,6.8,-5.9,30.22,WSW,245,5.0,7.0,55,0.00,,FEW250,0.00,VWS V14.01,2013-01-25 12:28:00,
2013-01-25 07:29:00,6.8,-5.9,30.22,WSW,245,5.0,7.0,55,0.00,,SCT040,0.00,VWS V14.01,2013-01-25 12:29:00,
2013-01-25 07:30:00,6.8,-5.9,30.22,West,264,4.0,5.0,55,0.00,,SCT040,0.00,VWS V14.01,2013-01-25 12:30:00,
2013-01-25 07:31:00,6.9,-5.8,30.22,West,280,7.0,9.0,55,0.00,,SCT040,0.00,VWS V14.01,2013-01-25 12:31:00,
2013-01-25 07:32:00,6.9,-6.2,30.22,West,264,4.0,9.0,54,0.00,,SCT040,0.00,VWS V14.01,2013-01-25 12:32:00,
2013-01-25 07:33:00,7.0,-5.8,30.22,WNW,302,7.0,11.0,55,0.00,,FEW250,0.00,VWS V14.01,2013-01-25 12:33:00,
2013-01-25 07:34:00,7.0,-5.8,30.22,WNW,302,7.0,11.0,55,0.00,,SCT040,0.00,VWS V14.01,2013-01-25 12:34:00,
2013-01-25 07:35:00,7.0,-6.1,30.22,WNW,293,3.0,8.0,54,0.00,,SCT040,0.00,VWS V14.01,2013-01-25 12:35:00,
2013-01-25 07:36:00,7.0,-6.1,30.22,WSW,253,4.0,4.0,54,0.00,,SCT040,0.00,VWS V14.01,2013-01-25 12:36:00,
2013-01-25 07:37:00,7.1,-6.0,30.22,NW,314,6.0,13.0,54,0.00,,SCT040,0.00,VWS V14.01,2013-01-25 12:37:00,
2013-01-25 07:38:00,7.2,-6.3,30.22,North,8,6.0,10.0,53,0.00,,BKN250,0.00,VWS V14.01,2013-01-25 12:38:00,
2013-01-25 07:39:00,7.2,-6.3,30.22,North,8,6.0,10.0,53,0.00,,SCT040,0.00,VWS V14.01,2013-01-25 12:39:00,
2013-01-25 07:40:00,7.2,-6.3,30.22,West,277,7.0,8.0,53,0.00,,SCT040,0.00,VWS V14.01,2013-01-25 12:40:00,
2013-01-25 07:41:00,7.2,-6.3,30.22,SSW,195,7.0,8.0,53,0.00,,SCT040,0.00,VWS V14.01,2013-01-25 12:41:00,
2013-01-25 07:42:00,7.2,-6.3,30.22,West,269,3.0,8.0,53,0.00,,SCT040,0.00,VWS V14.01,2013-01-25 12:42:00,
2013-01-25 07:43:00,7.3,-6.2,30.22,NW,318,3.0,4.0,53,0.00,,BKN250,0.00,VWS V14.01,2013-01-25 12:43:00,
2013-01-25 07:44:00,7.3,-6.2,30.22,NW,318,3.0,4.0,53,0.00,,SCT040,0.00,VWS V14.01,2013-01-25 12:44:00,
2013-01-25 07:45:00,7.4,-6.1,30.22,WSW,256,4.0,8.0,53,0.00,,SCT040,0.00,VWS V14.01,2013-01-25 12:45:00,
2013-01-25 07:46:00,7.4,-6.1,30.22,WNW,293,2.0,12.0,53,0.00,,SCT040,0.00,VWS V14.01,2013-01-25 12:46:00,
2013-01-25 07:47:00,7.4,-6.1,30.22,WSW,249,4.0,5.0,53,0.00,,SCT040,0.00,VWS V14.01,2013-01-25 12:47:00,
2013-01-25 07:48:00,7.5,-6.0,30.22,West,259,3.0,5.0,53,0.00,,BKN250,0.00,VWS V14.01,2013-01-25 12:48:00,
2013-01-25 07:49:00,7.5,-6.0,30.22,West,259,3.0,5.0,53,0.00,,SCT040,0.00,VWS V14.01,2013-01-25 12:49:00,
2013-01-25 07:50:00,7.6,-5.9,30.22,WNW,290,5.0,8.0,53,0.00,,SCT040,0.00,VWS V14.01,2013-01-25 12:50:00,
2013-01-25 07:51:00,7.6,-5.9,30.22,WNW,283,4.0,7.0,53,0.00,,SCT040,0.00,VWS V14.01,2013-01-25 12:51:00,
2013-01-25 07:52:00,7.6,-6.3,30.22,West,270,8.0,8.0,52,0.00,,SCT040,0.00,VWS V14.01,2013-01-25 12:52:00,
2013-01-25 07:53:00,7.7,-6.2,30.22,WSW,248,4.0,7.0,52,0.00,,BKN250,0.00,VWS V14.01,2013-01-25 12:53:00,
2013-01-25 07:54:00,7.7,-6.2,30.22,WSW,248,4.0,7.0,52,0.00,,SCT040,0.00,VWS V14.01,2013-01-25 12:54:00,
2013-01-25 07:55:00,7.7,-6.2,30.23,West,259,6.0,8.0,52,0.00,,SCT040,0.00,VWS V14.01,2013-01-25 12:55:00,
2013-01-25 07:56:00,7.7,-6.2,30.23,SW,231,4.0,9.0,52,0.00,,SCT040,0.00,VWS V14.01,2013-01-25 12:56:00,
2013-01-25 07:57:00,7.8,-6.2,30.22,WSW,256,6.0,8.0,52,0.00,,SCT040,0.00,VWS V14.01,2013-01-25 12:57:00,
2013-01-25 07:58:00,7.8,-6.2,30.23,West,266,4.0,5.0,52,0.00,,BKN250,0.00,VWS V14.01,2013-01-25 12:58:00,
2013-01-25 07:59:00,7.8,-6.2,30.23,West,266,4.0,5.0,52,0.00,,SCT040,0.00,VWS V14.01,2013-01-25 12:59:00,
2013-01-25 08:00:00,7.8,-6.2,30.23,West,259,2.0,4.0,52,0.00,,SCT040,0.00,VWS V14.01,2013-01-25 13:00:00,
2013-01-25 08:01:00,7.9,-6.1,30.23,West,277,5.0,8.0,52,0.00,,SCT040,0.00,VWS V14.01,2013-01-25 13:01:00,
2013-01-25 08:02:00,7.9,-6.1,30.23,WSW,250,0.0,5.0,52,0.00,,SCT040,0.00,VWS V14.01,2013-01-25 13:02:00,
2013-01-25 08:03:00,8.0,-6.0,30.23,West,274,4.0,6.0,52,0.00,,BKN250,0.00,VWS V14.01,2013-01-25 13:03:00,
2013-01-25 08:04:00,8.0,-6.0,30.23,West,274,4.0,6.0,52,0.00,,SCT040,0.00,VWS V14.01,2013-01-25 13:04:00,
2013-01-25 08:05:00,8.0,-6.0,30.23,NW,322,4.0,11.0,52,0.00,,SCT040,0.00,VWS V14.01,2013-01-25 13:05:00,
2013-01-25 08:06:00,8.0,-6.4,30.23,North,349,6.0,9.0,51,0.00,,SCT040,0.00,VWS V14.01,2013-01-25 13:06:00,
2013-01-25 08:07:00,7.9,-6.5,30.22,WNW,302,9.0,11.0,51,0.00,,SCT040,0.00,VWS V14.01,2013-01-25 13:07:00,
2013-01-25 08:08:00,8.0,-6.4,30.22,West,278,2.0,2.0,51,0.00,,BKN250,0.00,VWS V14.01,2013-01-25 13:08:00,
2013-01-25 08:09:00,8.0,-6.4,30.22,West,278,2.0,2.0,51,0.00,,SCT040,0.00,VWS V14.01,2013-01-25 13:09:00,
2013-01-25 08:10:00,8.0,-6.0,30.22,West,264,8.0,9.0,52,0.00,,SCT040,0.00,VWS V14.01,2013-01-25 13:10:00,
2013-01-25 08:11:00,8.0,-6.4,30.22,NW,321,5.0,8.0,51,0.00,,SCT040,0.00,VWS V14.01,2013-01-25 13:11:00,
2013-01-25 08:12:00,8.0,-6.4,30.22,WSW,252,2.0,8.0,51,0.00,,SCT040,0.00,VWS V14.01,2013-01-25 13:12:00,
2013-01-25 08:13:00,8.1,-5.9,30.23,WNW,290,7.0,9.0,52,0.00,,BKN250,0.00,VWS V14.01,2013-01-25 13:13:00,
2013-01-25 08:14:00,8.1,-5.9,30.23,WNW,290,7.0,9.0,52,0.00,,SCT040,0.00,VWS V14.01,2013-01-25 13:14:00,
2013-01-25 08:15:00,8.1,-6.3,30.23,WNW,290,4.0,8.0,51,0.00,,SCT040,0.00,VWS V14.01,2013-01-25 13:15:00,
2013-01-25 08:16:00,8.1,-6.3,30.23,West,280,4.0,10.0,51,0.00,,SCT040,0.00,VWS V14.01,2013-01-25 13:16:00,
2013-01-25 08:17:00,8.1,-6.3,30.23,West,273,7.0,7.0,51,0.00,,SCT040,0.00,VWS V14.01,2013-01-25 13:17:00,
2013-01-25 08:18:00,8.1,-6.3,30.22,SW,220,4.0,8.0,51,0.00,,BKN250,0.00,VWS V14.01,2013-01-25 13:18:00,
2013-01-25 08:19:00,8.1,-6.3,30.22,SW,220,4.0,8.0,51,0.00,,SCT040,0.00,VWS V14.01,2013-01-25 13:19:00,
2013-01-25 08:20:00,8.2,-6.2,30.22,NW,322,4.0,5.0,51,0.00,,SCT040,0.00,VWS V14.01,2013-01-25 13:20:00,
2013-01-25 08:21:00,8.3,-6.1,30.22,WNW,295,6.0,9.0,51,0.00,,SCT040,0.00,VWS V14.01,2013-01-25 13:21:00,
2013-01-25 08:22:00,8.3,-6.1,30.22,NW,305,3.0,9.0,51,0.00,,SCT040,0.00,VWS V14.01,2013-01-25 13:22:00,
2013-01-25 08:23:00,8.3,-6.1,30.22,WNW,297,1.0,11.0,51,0.00,,BKN250,0.00,VWS V14.01,2013-01-25 13:23:00,
2013-01-25 08:24:00,8.3,-6.1,30.22,WNW,297,1.0,11.0,51,0.00,,SCT040,0.00,VWS V14.01,2013-01-25 13:24:00,
2013-01-25 08:25:00,8.3,-6.1,30.22,NNW,330,1.0,12.0,51,0.00,,SCT040,0.00,VWS V14.01,2013-01-25 13:25:00,
2013-01-25 08:26:00,8.3,-6.1,30.22,NE,39,3.0,5.0,51,0.00,,SCT040,0.00,VWS V14.01,2013-01-25 13:26:00,
2013-01-25 08:27:00,8.4,-6.0,30.22,NW,322,3.0,7.0,51,0.00,,SCT040,0.00,VWS V14.01,2013-01-25 13:27:00,
2013-01-25 08:28:00,8.5,-5.9,30.22,NW,304,3.0,8.0,51,0.00,,BKN250,0.00,VWS V14.01,2013-01-25 13:28:00,
2013-01-25 08:29:00,8.5,-5.9,30.22,NW,304,3.0,8.0,51,0.00,,SCT040,0.00,VWS V14.01,2013-01-25 13:29:00,
2013-01-25 08:30:00,8.5,-5.9,30.22,West,271,6.0,9.0,51,0.00,,SCT040,0.00,VWS V14.01,2013-01-25 13:30:00,
2013-01-25 08:31:00,8.6,-6.2,30.22,NNW,339,8.0,14.0,50,0.00,,SCT040,0.00,VWS V14.01,2013-01-25 13:31:00,
2013-01-25 08:32:00,8.6,-6.2,30.22,WNW,302,10.0,11.0,50,0.00,,SCT040,0.00,VWS V14.01,2013-01-25 13:32:00,
2013-01-25 08:33:00,8.7,-5.7,30.22,NNW,346,3.0,10.0,51,0.00,,BKN250,0.00,VWS V14.01,2013-01-25 13:33:00,
2013-01-25 08:34:00,8.7,-5.7,30.22,NNW,346,3.0,10.0,51,0.00,,SCT040,0.00,VWS V14.01,2013-01-25 13:34:00,
2013-01-25 08:35:00,8.8,-6.0,30.22,West,259,7.0,11.0,50,0.00,,SCT040,0.00,VWS V14.01,2013-01-25 13:35:00,
2013-01-25 08:36:00,8.8,-6.0,30.22,ENE,58,2.0,11.0,50,0.00,,SCT040,0.00,VWS V14.01,2013-01-25 13:36:00,
2013-01-25 08:37:00,8.8,-6.0,30.22,NNE,19,2.0,5.0,50,0.00,,SCT040,0.00,VWS V14.01,2013-01-25 13:37:00,
2013-01-25 08:38:00,9.0,-5.8,30.22,West,276,5.0,5.0,50,0.00,,BKN250,0.00,VWS V14.01,2013-01-25 13:38:00,
2013-01-25 08:39:00,9.0,-5.8,30.22,NNW,335,8.0,10.0,50,0.00,,SCT040,0.00,VWS V14.01,2013-01-25 13:39:00,
2013-01-25 08:40:00,9.0,-5.8,30.22,West,264,5.0,8.0,50,0.00,,SCT040,0.00,VWS V14.01,2013-01-25 13:40:00,
2013-01-25 08:41:00,9.1,-5.8,30.22,WSW,243,3.0,8.0,50,0.00,,SCT040,0.00,VWS V14.01,2013-01-25 13:41:00,
2013-01-25 08:42:00,9.1,-5.8,30.22,WNW,291,7.0,11.0,50,0.00,,SCT040,0.00,VWS V14.01,2013-01-25 13:42:00,
2013-01-25 08:43:00,9.1,-6.2,30.23,WSW,257,14.0,15.0,49,0.00,,BKN250,0.00,VWS V14.01,2013-01-25 13:43:00,
2013-01-25 08:44:00,9.1,-5.8,30.23,NW,305,6.0,12.0,50,0.00,,SCT040,0.00,VWS V14.01,2013-01-25 13:44:00,
2013-01-25 08:45:00,9.1,-6.2,30.23,NE,50,7.0,15.0,49,0.00,,SCT040,0.00,VWS V14.01,2013-01-25 13:45:00,
2013-01-25 08:46:00,9.0,-6.3,30.23,WSW,253,4.0,12.0,49,0.00,,SCT040,0.00,VWS V14.01,2013-01-25 13:46:00,
2013-01-25 08:47:00,9.1,-6.2,30.23,SW,224,7.0,9.0,49,0.00,,SCT040,0.00,VWS V14.01,2013-01-25 13:47:00,
2013-01-25 08:48:00,9.2,-5.7,30.23,West,264,2.0,10.0,50,0.00,,BKN250,0.00,VWS V14.01,2013-01-25 13:48:00,
2013-01-25 08:49:00,9.2,-5.7,30.23,WSW,257,7.0,12.0,50,0.00,,SCT040,0.00,VWS V14.01,2013-01-25 13:49:00,
2013-01-25 08:50:00,9.2,-5.7,30.23,WSW,256,5.0,10.0,50,0.00,,SCT040,0.00,VWS V14.01,2013-01-25 13:50:00,
2013-01-25 08:51:00,9.3,-6.0,30.23,WNW,291,3.0,12.0,49,0.00,,SCT040,0.00,VWS V14.01,2013-01-25 13:51:00,
2013-01-25 08:52:00,9.3,-6.0,30.23,WSW,248,8.0,14.0,49,0.00,,SCT040,0.00,VWS V14.01,2013-01-25 13:52:00,
2013-01-25 08:53:00,9.4,-5.9,30.23,WNW,300,6.0,15.0,49,0.00,,BKN250,0.00,VWS V14.01,2013-01-25 13:53:00,
2013-01-25 08:54:00,9.3,-6.0,30.23,WNW,283,7.0,9.0,49,0.00,,SCT040,0.00,VWS V14.01,2013-01-25 13:54:00,
2013-01-25 08:55:00,9.4,-5.9,30.23,NNE,19,1.0,15.0,49,0.00,,SCT040,0.00,VWS V14.01,2013-01-25 13:55:00,
2013-01-25 08:56:00,9.4,-5.9,30.23,NNW,329,4.0,9.0,49,0.00,,SCT040,0.00,VWS V14.01,2013-01-25 13:56:00,
2013-01-25 08:57:00,9.5,-5.8,30.23,WNW,302,10.0,11.0,49,0.00,,SCT040,0.00,VWS V14.01,2013-01-25 13:57:00,
2013-01-25 08:58:00,9.6,-5.7,30.23,West,278,4.0,9.0,49,0.00,,BKN250,0.00,VWS V14.01,2013-01-25 13:58:00,
2013-01-25 08:59:00,9.6,-5.7,30.23,WNW,291,5.0,12.0,49,0.00,,SCT040,0.00,VWS V14.01,2013-01-25 13:59:00,
2013-01-25 09:00:00,9.6,-5.7,30.23,WNW,290,5.0,9.0,49,0.00,,SCT040,0.00,VWS V14.01,2013-01-25 14:00:00,
2013-01-25 09:01:00,9.7,-5.6,30.23,WSW,249,3.0,9.0,49,0.00,,SCT040,0.00,VWS V14.01,2013-01-25 14:01:00,
2013-01-25 09:02:00,9.8,-5.5,30.23,West,264,4.0,8.0,49,0.00,,SCT040,0.00,VWS V14.01,2013-01-25 14:02:00,
2013-01-25 09:03:00,9.8,-5.9,30.23,WNW,288,4.0,12.0,48,0.00,,SCT040,0.00,VWS V14.01,2013-01-25 14:03:00,
2013-01-25 09:04:00,9.9,-5.4,30.23,West,262,4.0,5.0,49,0.00,,BKN250,0.00,VWS V14.01,2013-01-25 14:04:00,
2013-01-25 09:05:00,9.9,-5.4,30.23,WNW,283,4.0,5.0,49,0.00,,SCT040,0.00,VWS V14.01,2013-01-25 14:05:00,
2013-01-25 09:06:00,10.0,-5.3,30.23,West,266,3.0,8.0,49,0.00,,SCT040,0.00,VWS V14.01,2013-01-25 14:06:00,
2013-01-25 09:07:00,10.0,-5.3,30.23,WSW,257,13.0,20.0,49,0.00,,SCT040,0.00,VWS V14.01,2013-01-25 14:07:00,
2013-01-25 09:08:00,10.0,-5.8,30.23,SW,232,5.0,14.0,48,0.00,,SCT040,0.00,VWS V14.01,2013-01-25 14:08:00,
2013-01-25 09:09:00,10.0,-5.8,30.23,NNW,332,10.0,12.0,48,0.00,,BKN250,0.00,VWS V14.01,2013-01-25 14:09:00,
2013-01-25 09:10:00,10.0,-5.8,30.23,West,267,13.0,13.0,48,0.00,,SCT040,0.00,VWS V14.01,2013-01-25 14:10:00,
2013-01-25 09:11:00,10.0,-5.8,30.22,NNE,16,5.0,12.0,48,0.00,,SCT040,0.00,VWS V14.01,2013-01-25 14:11:00,
2013-01-25 09:12:00,10.0,-5.8,30.23,NNW,329,3.0,8.0,48,0.00,,SCT040,0.00,VWS V14.01,2013-01-25 14:12:00,
2013-01-25 09:13:00,10.0,-5.8,30.22,NW,310,5.0,11.0,48,0.00,,SCT040,0.00,VWS V14.01,2013-01-25 14:13:00,
2013-01-25 09:14:00,10.0,-5.8,30.22,West,260,11.0,14.0,48,0.00,,BKN250,0.00,VWS V14.01,2013-01-25 14:14:00,
2013-01-25 09:15:00,10.0,-5.8,30.22,West,260,11.0,14.0,48,0.00,,SCT040,0.00,VWS V14.01,2013-01-25 14:15:00,
2013-01-25 09:16:00,10.0,-5.8,30.22,SSW,193,2.0,11.0,48,0.00,,SCT040,0.00,VWS V14.01,2013-01-25 14:16:00,
2013-01-25 09:17:00,10.0,-5.8,30.22,WSW,257,12.0,14.0,48,0.00,,SCT040,0.00,VWS V14.01,2013-01-25 14:17:00,
2013-01-25 09:18:00,10.1,-5.7,30.22,North,1,3.0,12.0,48,0.00,,SCT040,0.00,VWS V14.01,2013-01-25 14:18:00,
2013-01-25 09:19:00,10.2,-5.6,30.22,West,262,6.0,9.0,48,0.00,,BKN250,0.00,VWS V14.01,2013-01-25 14:19:00,
2013-01-25 09:20:00,10.2,-5.6,30.22,West,262,6.0,9.0,48,0.00,,SCT040,0.00,VWS V14.01,2013-01-25 14:20:00,
2013-01-25 09:21:00,10.2,-5.6,30.22,West,266,6.0,13.0,48,0.00,,SCT040,0.00,VWS V14.01,2013-01-25 14:21:00,
2013-01-25 09:22:00,10.3,-5.5,30.22,NNW,338,6.0,9.0,48,0.00,,SCT040,0.00,VWS V14.01,2013-01-25 14:22:00,
2013-01-25 09:23:00,10.3,-5.5,30.22,West,270,1.0,10.0,48,0.00,,SCT040,0.00,VWS V14.01,2013-01-25 14:23:00,
2013-01-25 09:24:00,10.4,-5.4,30.22,SW,217,0.0,4.0,48,0.00,,BKN250,0.00,VWS V14.01,2013-01-25 14:24:00,
2013-01-25 09:25:00,10.4,-5.4,30.22,SW,217,0.0,4.0,48,0.00,,SCT040,0.00,VWS V14.01,2013-01-25 14:25:00,
2013-01-25 09:26:00,10.6,-5.2,30.22,West,269,4.0,5.0,48,0.00,,SCT040,0.00,VWS V14.01,2013-01-25 14:26:00,
2013-01-25 09:27:00,10.7,-5.1,30.22,WNW,290,4.0,6.0,48,0.00,,SCT040,0.00,VWS V14.01,2013-01-25 14:27:00,
2013-01-25 09:28:00,10.9,-4.9,30.22,WSW,245,3.0,8.0,48,0.00,,SCT040,0.00,VWS V14.01,2013-01-25 14:28:00,
2013-01-25 09:29:00,11.1,-4.8,30.22,SSE,162,4.0,7.0,48,0.00,,BKN250,0.00,VWS V14.01,2013-01-25 14:29:00,
2013-01-25 09:30:00,11.1,-4.7,30.22,SSE,162,4.0,7.0,48,0.00,,SCT040,0.00,VWS V14.01,2013-01-25 14:30:00,
2013-01-25 09:31:00,11.2,-4.7,30.22,WSW,253,13.0,14.0,48,0.00,,SCT040,0.00,VWS V14.01,2013-01-25 14:31:00,
2013-01-25 09:32:00,11.1,-5.2,30.21,West,266,8.0,13.0,47,0.00,,SCT040,0.00,VWS V14.01,2013-01-25 14:32:00,
2013-01-25 09:33:00,11.1,-5.6,30.22,WSW,250,4.0,9.0,46,0.00,,SCT040,0.00,VWS V14.01,2013-01-25 14:33:00,
2013-01-25 09:34:00,11.1,-5.2,30.21,WNW,302,4.0,11.0,47,0.00,,BKN250,0.00,VWS V14.01,2013-01-25 14:34:00,
2013-01-25 09:35:00,11.1,-5.2,30.21,WNW,302,4.0,11.0,47,0.00,,SCT040,0.00,VWS V14.01,2013-01-25 14:35:00,
2013-01-25 09:36:00,11.2,-5.1,30.22,West,277,4.0,8.0,47,0.00,,SCT040,0.00,VWS V14.01,2013-01-25 14:36:00,
2013-01-25 09:37:00,11.2,-5.1,30.22,WNW,283,4.0,9.0,47,0.00,,SCT040,0.00,VWS V14.01,2013-01-25 14:37:00,
2013-01-25 09:38:00,11.3,-5.0,30.22,WNW,284,11.0,14.0,47,0.00,,SCT040,0.00,VWS V14.01,2013-01-25 14:38:00,
2013-01-25 09:39:00,11.3,-5.4,30.22,West,281,5.0,11.0,46,0.00,,BKN250,0.00,VWS V14.01,2013-01-25 14:39:00,
2013-01-25 09:40:00,11.3,-5.4,30.22,West,281,5.0,11.0,46,0.00,,SCT040,0.00,VWS V14.01,2013-01-25 14:40:00,
2013-01-25 09:41:00,11.3,-5.4,30.22,NW,306,7.0,7.0,46,0.00,,SCT040,0.00,VWS V14.01,2013-01-25 14:41:00,
2013-01-25 09:42:00,11.3,-5.4,30.22,NW,325,4.0,10.0,46,0.00,,SCT040,0.00,VWS V14.01,2013-01-25 14:42:00,
2013-01-25 09:43:00,11.4,-5.3,30.22,West,276,2.0,7.0,46,0.00,,SCT040,0.00,VWS V14.01,2013-01-25 14:43:00,
2013-01-25 09:44:00,11.5,-5.3,30.22,WNW,297,4.0,11.0,46,0.00,,BKN250,0.00,VWS V14.01,2013-01-25 14:44:00,
2013-01-25 09:45:00,11.5,-5.3,30.22,WNW,297,4.0,11.0,46,0.00,,SCT040,0.00,VWS V14.01,2013-01-25 14:45:00,
2013-01-25 09:47:00,11.6,-5.2,30.22,NW,318,3.0,5.0,46,0.00,,SCT040,0.00,VWS V14.01,2013-01-25 14:47:00,
2013-01-25 09:48:00,11.7,-5.1,30.22,East,96,2.0,6.0,46,0.00,,SCT040,0.00,VWS V14.01,2013-01-25 14:48:00,
2013-01-25 09:49:00,11.8,-5.0,30.23,WNW,287,5.0,7.0,46,0.00,,BKN250,0.00,VWS V14.01,2013-01-25 14:49:00,
2013-01-25 09:50:00,11.8,-5.0,30.23,WNW,287,5.0,7.0,46,0.00,,SCT040,0.00,VWS V14.01,2013-01-25 14:50:00,
2013-01-25 09:51:00,11.8,-5.0,30.23,WSW,250,7.0,10.0,46,0.00,,SCT040,0.00,VWS V14.01,2013-01-25 14:51:00,
2013-01-25 09:52:00,11.7,-5.5,30.23,West,274,8.0,13.0,45,0.00,,SCT040,0.00,VWS V14.01,2013-01-25 14:52:00,
2013-01-25 09:53:00,11.7,-5.5,30.23,West,281,3.0,12.0,45,0.00,,SCT040,0.00,VWS V14.01,2013-01-25 14:53:00,
2013-01-25 09:54:00,11.6,-5.6,30.23,WNW,290,9.0,11.0,45,0.00,,BKN250,0.00,VWS V14.01,2013-01-25 14:54:00,
2013-01-25 09:55:00,11.6,-5.6,30.23,WNW,290,9.0,11.0,45,0.00,,SCT040,0.00,VWS V14.01,2013-01-25 14:55:00,
2013-01-25 09:56:00,11.6,-5.2,30.23,WNW,285,5.0,10.0,46,0.00,,SCT040,0.00,VWS V14.01,2013-01-25 14:56:00,
2013-01-25 09:57:00,11.6,-5.2,30.23,NNW,327,7.0,10.0,46,0.00,,SCT040,0.00,VWS V14.01,2013-01-25 14:57:00,
2013-01-25 09:58:00,11.7,-5.1,30.23,SW,221,9.0,14.0,46,0.00,,SCT040,0.00,VWS V14.01,2013-01-25 14:58:00,
2013-01-25 09:59:00,11.8,-5.4,30.23,NNW,343,7.0,10.0,45,0.00,,BKN250,0.00,VWS V14.01,2013-01-25 14:59:00,
2013-01-25 10:00:00,11.8,-5.4,30.23,NNW,343,7.0,10.0,45,0.00,,SCT040,0.00,VWS V14.01,2013-01-25 15:00:00,
2013-01-25 10:01:00,11.9,-4.9,30.23,West,259,6.0,10.0,46,0.00,,SCT040,0.00,VWS V14.01,2013-01-25 15:01:00,
2013-01-25 10:02:00,11.9,-4.9,30.23,WSW,240,4.0,7.0,46,0.00,,SCT040,0.00,VWS V14.01,2013-01-25 15:02:00,
2013-01-25 10:03:00,12.1,-4.7,30.23,WNW,287,6.0,8.0,46,0.00,,SCT040,0.00,VWS V14.01,2013-01-25 15:03:00,
2013-01-25 10:04:00,12.2,-5.1,30.23,WSW,249,6.0,6.0,45,0.00,,BKN250,0.00,VWS V14.01,2013-01-25 15:04:00,
2013-01-25 10:05:00,12.2,-5.1,30.23,WSW,248,5.0,14.0,45,0.00,,SCT040,0.00,VWS V14.01,2013-01-25 15:05:00,
2013-01-25 10:06:00,12.3,-5.0,30.23,West,267,4.0,9.0,45,0.00,,SCT040,0.00,VWS V14.01,2013-01-25 15:06:00,
2013-01-25 10:07:00,12.3,-5.0,30.23,WSW,252,5.0,10.0,45,0.00,,SCT040,0.00,VWS V14.01,2013-01-25 15:07:00,
2013-01-25 10:08:00,12.4,-4.9,30.23,ENE,72,1.0,6.0,45,0.00,,SCT040,0.00,VWS V14.01,2013-01-25 15:08:00,
2013-01-25 10:09:00,12.7,-4.6,30.23,SSE,159,0.0,1.0,45,0.00,,BKN250,0.00,VWS V14.01,2013-01-25 15:09:00,
2013-01-25 10:10:00,12.7,-4.6,30.23,SE,127,1.0,4.0,45,0.00,,SCT040,0.00,VWS V14.01,2013-01-25 15:10:00,
2013-01-25 10:11:00,12.9,-4.0,30.23,SW,222,7.0,8.0,46,0.00,,SCT040,0.00,VWS V14.01,2013-01-25 15:11:00,
2013-01-25 10:12:00,12.9,-4.4,30.23,NW,307,6.0,11.0,45,0.00,,SCT040,0.00,VWS V14.01,2013-01-25 15:12:00,
2013-01-25 10:13:00,12.9,-4.4,30.23,NNW,330,1.0,6.0,45,0.00,,SCT040,0.00,VWS V14.01,2013-01-25 15:13:00,
2013-01-25 10:14:00,13.3,-4.1,30.23,WSW,238,4.0,8.0,45,0.00,,BKN250,0.00,VWS V14.01,2013-01-25 15:14:00,
2013-01-25 10:15:00,13.3,-4.1,30.23,West,270,8.0,9.0,45,0.00,,SCT040,0.00,VWS V14.01,2013-01-25 15:15:00,
2013-01-25 10:16:00,13.3,-4.5,30.23,NNW,343,2.0,8.0,44,0.00,,SCT040,0.00,VWS V14.01,2013-01-25 15:16:00,
2013-01-25 10:17:00,13.4,-4.4,30.23,West,281,2.0,5.0,44,0.00,,SCT040,0.00,VWS V14.01,2013-01-25 15:17:00,
2013-01-25 10:18:00,13.4,-4.4,30.23,North,359,4.0,9.0,44,0.00,,SCT040,0.00,VWS V14.01,2013-01-25 15:18:00,
2013-01-25 10:19:00,13.4,-4.4,30.23,NE,56,2.0,3.0,44,0.00,,BKN250,0.00,VWS V14.01,2013-01-25 15:19:00,
2013-01-25 10:20:00,13.3,-4.5,30.23,East,79,0.0,4.0,44,0.00,,SCT040,0.00,VWS V14.01,2013-01-25 15:20:00,
2013-01-25 10:21:00,13.4,-4.4,30.23,West,271,4.0,4.0,44,0.00,,SCT040,0.00,VWS V14.01,2013-01-25 15:21:00,
2013-01-25 10:22:00,13.5,-4.3,30.23,SW,229,4.0,9.0,44,0.00,,SCT040,0.00,VWS V14.01,2013-01-25 15:22:00,
2013-01-25 10:23:00,13.5,-4.3,30.23,SSW,207,2.0,10.0,44,0.00,,SCT040,0.00,VWS V14.01,2013-01-25 15:23:00,
2013-01-25 10:24:00,13.4,-4.9,30.23,SW,224,3.0,5.0,43,0.00,,BKN250,0.00,VWS V14.01,2013-01-25 15:24:00,
2013-01-25 10:25:00,13.5,-4.8,30.23,WNW,285,4.0,7.0,43,0.00,,SCT040,0.00,VWS V14.01,2013-01-25 15:25:00,
2013-01-25 10:26:00,13.4,-4.9,30.23,West,260,2.0,5.0,43,0.00,,SCT040,0.00,VWS V14.01,2013-01-25 15:26:00,
2013-01-25 10:27:00,13.5,-4.8,30.22,WNW,293,4.0,8.0,43,0.00,,SCT040,0.00,VWS V14.01,2013-01-25 15:27:00,
2013-01-25 10:28:00,13.5,-4.8,30.22,ENE,67,4.0,9.0,43,0.00,,SCT040,0.00,VWS V14.01,2013-01-25 15:28:00,
2013-01-25 10:29:00,13.4,-4.9,30.23,WSW,248,8.0,8.0,43,0.00,,SCT040,0.00,VWS V14.01,2013-01-25 15:29:00,
2013-01-25 10:30:00,13.4,-4.9,30.23,NW,322,5.0,9.0,43,0.00,,BKN250,0.00,VWS V14.01,2013-01-25 15:30:00,
2013-01-25 10:31:00,13.4,-4.9,30.23,West,277,4.0,9.0,43,0.00,,SCT040,0.00,VWS V14.01,2013-01-25 15:31:00,
2013-01-25 10:32:00,13.4,-4.9,30.23,WNW,293,2.0,6.0,43,0.00,,SCT040,0.00,VWS V14.01,2013-01-25 15:32:00,
2013-01-25 10:33:00,13.4,-4.9,30.23,WSW,240,2.0,9.0,43,0.00,,SCT040,0.00,VWS V14.01,2013-01-25 15:33:00,
2013-01-25 10:34:00,13.4,-4.9,30.22,West,262,3.0,5.0,43,0.00,,SCT040,0.00,VWS V14.01,2013-01-25 15:34:00,
2013-01-25 10:35:00,13.4,-4.9,30.22,NW,324,3.0,6.0,43,0.00,,BKN250,0.00,VWS V14.01,2013-01-25 15:35:00,
2013-01-25 10:36:00,13.4,-4.9,30.22,South,180,4.0,6.0,43,0.00,,SCT040,0.00,VWS V14.01,2013-01-25 15:36:00,
2013-01-25 10:37:00,13.5,-4.3,30.22,WNW,287,5.0,9.0,44,0.00,,SCT040,0.00,VWS V14.01,2013-01-25 15:37:00,
2013-01-25 10:38:00,13.5,-4.8,30.21,WNW,291,6.0,7.0,43,0.00,,SCT040,0.00,VWS V14.01,2013-01-25 15:38:00,
2013-01-25 10:39:00,13.5,-4.8,30.22,NW,305,6.0,8.0,43,0.00,,SCT040,0.00,VWS V14.01,2013-01-25 15:39:00,
2013-01-25 10:40:00,13.5,-4.8,30.22,West,271,3.0,7.0,43,0.00,,BKN230,0.00,VWS V14.01,2013-01-25 15:40:00,
2013-01-25 10:41:00,13.5,-4.8,30.22,West,271,3.0,7.0,43,0.00,,SCT040,0.00,VWS V14.01,2013-01-25 15:41:00,
2013-01-25 10:42:00,13.5,-4.8,30.22,WSW,257,5.0,8.0,43,0.00,,SCT040,0.00,VWS V14.01,2013-01-25 15:42:00,
2013-01-25 10:43:00,13.5,-4.8,30.22,West,280,4.0,7.0,43,0.00,,SCT040,0.00,VWS V14.01,2013-01-25 15:43:00,
2013-01-25 10:44:00,13.6,-4.7,30.21,WSW,255,2.0,7.0,43,0.00,,SCT040,0.00,VWS V14.01,2013-01-25 15:44:00,
2013-01-25 10:45:00,13.7,-4.6,30.21,West,281,3.0,5.0,43,0.00,,BKN230,0.00,VWS V14.01,2013-01-25 15:45:00,
2013-01-25 10:46:00,13.7,-4.6,30.21,West,281,3.0,5.0,43,0.00,,SCT040,0.00,VWS V14.01,2013-01-25 15:46:00,
2013-01-25 10:47:00,13.8,-4.6,30.21,WSW,257,4.0,7.0,43,0.00,,SCT040,0.00,VWS V14.01,2013-01-25 15:47:00,
2013-01-25 10:48:00,13.8,-4.6,30.21,NNW,336,4.0,6.0,43,0.00,,SCT040,0.00,VWS V14.01,2013-01-25 15:48:00,
2013-01-25 10:49:00,13.9,-4.5,30.21,South,173,1.0,7.0,43,0.00,,SCT040,0.00,VWS V14.01,2013-01-25 15:49:00,
2013-01-25 10:50:00,14.1,-4.3,30.21,SE,127,1.0,5.0,43,0.00,,BKN230,0.00,VWS V14.01,2013-01-25 15:50:00,
2013-01-25 10:51:00,14.1,-4.3,30.21,SE,127,1.0,5.0,43,0.00,,SCT040,0.00,VWS V14.01,2013-01-25 15:51:00,
2013-01-25 10:52:00,14.1,-4.3,30.21,WSW,253,4.0,6.0,43,0.00,,SCT040,0.00,VWS V14.01,2013-01-25 15:52:00,
2013-01-25 10:53:00,14.1,-4.3,30.21,WNW,294,6.0,10.0,43,0.00,,SCT040,0.00,VWS V14.01,2013-01-25 15:53:00,
2013-01-25 10:54:00,14.1,-4.8,30.21,West,266,5.0,7.0,42,0.00,,SCT040,0.00,VWS V14.01,2013-01-25 15:54:00,
2013-01-25 10:55:00,14.1,-4.8,30.21,WNW,287,2.0,9.0,42,0.00,,BKN230,0.00,VWS V14.01,2013-01-25 15:55:00,
2013-01-25 10:56:00,14.1,-4.8,30.21,WNW,287,2.0,9.0,42,0.00,,SCT040,0.00,VWS V14.01,2013-01-25 15:56:00,
2013-01-25 10:57:00,14.1,-4.8,30.21,SE,128,2.0,4.0,42,0.00,,SCT040,0.00,VWS V14.01,2013-01-25 15:57:00,
2013-01-25 10:58:00,14.2,-4.2,30.21,WNW,300,10.0,12.0,43,0.00,,SCT040,0.00,VWS V14.01,2013-01-25 15:58:00,
2013-01-25 10:59:00,14.1,-4.8,30.21,West,262,8.0,12.0,42,0.00,,SCT040,0.00,VWS V14.01,2013-01-25 15:59:00,
2013-01-25 11:00:00,14.1,-4.8,30.21,WSW,250,7.0,8.0,42,0.00,,BKN230,0.00,VWS V14.01,2013-01-25 16:00:00,
2013-01-25 11:01:00,14.1,-4.8,30.21,WSW,250,7.0,8.0,42,0.00,,SCT040,0.00,VWS V14.01,2013-01-25 16:01:00,
2013-01-25 11:02:00,14.1,-4.8,30.21,West,267,5.0,10.0,42,0.00,,SCT040,0.00,VWS V14.01,2013-01-25 16:02:00,
2013-01-25 11:03:00,14.1,-4.8,30.21,West,277,3.0,10.0,42,0.00,,SCT040,0.00,VWS V14.01,2013-01-25 16:03:00,
2013-01-25 11:04:00,14.1,-4.8,30.21,West,281,7.0,8.0,42,0.00,,SCT040,0.00,VWS V14.01,2013-01-25 16:04:00,
2013-01-25 11:05:00,14.1,-4.8,30.21,NW,325,3.0,6.0,42,0.00,,BKN230,0.00,VWS V14.01,2013-01-25 16:05:00,
2013-01-25 11:06:00,14.1,-4.8,30.21,NW,325,3.0,6.0,42,0.00,,SCT040,0.00,VWS V14.01,2013-01-25 16:06:00,
2013-01-25 11:07:00,14.1,-4.8,30.21,NW,317,3.0,8.0,42,0.00,,SCT040,0.00,VWS V14.01,2013-01-25 16:07:00,
2013-01-25 11:08:00,14.2,-4.7,30.21,NW,305,2.0,4.0,42,0.00,,SCT040,0.00,VWS V14.01,2013-01-25 16:08:00,
2013-01-25 11:09:00,14.3,-4.6,30.21,West,281,2.0,6.0,42,0.00,,SCT040,0.00,VWS V14.01,2013-01-25 16:09:00,
2013-01-25 11:10:00,14.5,-4.4,30.21,WNW,294,4.0,8.0,42,0.00,,BKN230,0.00,VWS V14.01,2013-01-25 16:10:00,
2013-01-25 11:11:00,14.5,-4.4,30.21,WNW,294,4.0,8.0,42,0.00,,SCT040,0.00,VWS V14.01,2013-01-25 16:11:00,
2013-01-25 11:12:00,14.5,-4.4,30.21,WSW,250,8.0,8.0,42,0.00,,SCT040,0.00,VWS V14.01,2013-01-25 16:12:00,
2013-01-25 11:13:00,14.5,-4.4,30.21,WSW,255,9.0,11.0,42,0.00,,SCT040,0.00,VWS V14.01,2013-01-25 16:13:00,
2013-01-25 11:14:00,14.5,-4.4,30.21,West,262,2.0,15.0,42,0.00,,SCT040,0.00,VWS V14.01,2013-01-25 16:14:00,
2013-01-25 11:15:00,14.4,-4.5,30.21,West,267,6.0,15.0,42,0.00,,BKN230,0.00,VWS V14.01,2013-01-25 16:15:00,
2013-01-25 11:16:00,14.4,-4.5,30.21,West,267,6.0,15.0,42,0.00,,SCT040,0.00,VWS V14.01,2013-01-25 16:16:00,
2013-01-25 11:17:00,14.4,-4.5,30.21,WSW,249,5.0,7.0,42,0.00,,SCT040,0.00,VWS V14.01,2013-01-25 16:17:00,
2013-01-25 11:18:00,14.5,-4.4,30.20,NNW,342,5.0,7.0,42,0.00,,SCT040,0.00,VWS V14.01,2013-01-25 16:18:00,
2013-01-25 11:19:00,14.5,-4.4,30.20,West,269,5.0,9.0,42,0.00,,SCT040,0.00,VWS V14.01,2013-01-25 16:19:00,
2013-01-25 11:20:00,14.7,-4.2,30.20,WSW,252,5.0,8.0,42,0.00,,BKN230,0.00,VWS V14.01,2013-01-25 16:20:00,
2013-01-25 11:21:00,14.7,-4.2,30.20,WSW,252,5.0,8.0,42,0.00,,SCT040,0.00,VWS V14.01,2013-01-25 16:21:00,
2013-01-25 11:22:00,14.7,-4.2,30.20,WSW,243,3.0,8.0,42,0.00,,SCT040,0.00,VWS V14.01,2013-01-25 16:22:00,
2013-01-25 11:23:00,14.8,-4.6,30.20,West,269,3.0,8.0,41,0.00,,SCT040,0.00,VWS V14.01,2013-01-25 16:23:00,
2013-01-25 11:24:00,14.9,-4.5,30.20,West,270,5.0,9.0,41,0.00,,SCT040,0.00,VWS V14.01,2013-01-25 16:24:00,
2013-01-25 11:25:00,15.2,-3.8,30.20,West,277,5.0,9.0,42,0.00,,BKN230,0.00,VWS V14.01,2013-01-25 16:25:00,
2013-01-25 11:26:00,15.2,-3.8,30.20,West,277,5.0,9.0,42,0.00,,SCT040,0.00,VWS V14.01,2013-01-25 16:26:00,
2013-01-25 11:27:00,15.3,-4.2,30.20,SW,221,4.0,7.0,41,0.00,,SCT040,0.00,VWS V14.01,2013-01-25 16:27:00,
2013-01-25 11:28:00,15.4,-4.1,30.20,WSW,250,6.0,10.0,41,0.00,,SCT040,0.00,VWS V14.01,2013-01-25 16:28:00,
2013-01-25 11:29:00,15.5,-4.0,30.20,West,266,3.0,6.0,41,0.00,,SCT040,0.00,VWS V14.01,2013-01-25 16:29:00,
2013-01-25 11:30:00,15.8,-3.7,30.19,WSW,257,4.0,5.0,41,0.00,,BKN230,0.00,VWS V14.01,2013-01-25 16:30:00,
2013-01-25 11:31:00,15.8,-3.7,30.19,WSW,257,4.0,5.0,41,0.00,,SCT040,0.00,VWS V14.01,2013-01-25 16:31:00,
2013-01-25 11:32:00,15.9,-3.6,30.19,SW,236,5.0,11.0,41,0.00,,SCT040,0.00,VWS V14.01,2013-01-25 16:32:00,
2013-01-25 11:33:00,16.0,-4.1,30.19,SW,235,4.0,7.0,40,0.00,,SCT040,0.00,VWS V14.01,2013-01-25 16:33:00,
2013-01-25 11:34:00,16.0,-4.1,30.19,NW,313,4.0,6.0,40,0.00,,SCT040,0.00,VWS V14.01,2013-01-25 16:34:00,
2013-01-25 11:35:00,16.2,-3.9,30.19,WNW,285,3.0,9.0,40,0.00,,BKN250,0.00,VWS V14.01,2013-01-25 16:35:00,
2013-01-25 11:36:00,16.2,-3.9,30.19,WNW,285,3.0,9.0,40,0.00,,SCT040,0.00,VWS V14.01,2013-01-25 16:36:00,
2013-01-25 11:37:00,16.2,-3.9,30.19,WSW,238,3.0,13.0,40,0.00,,SCT040,0.00,VWS V14.01,2013-01-25 16:37:00,
2013-01-25 11:38:00,16.1,-4.0,30.18,NNW,341,2.0,8.0,40,0.00,,SCT040,0.00,VWS V14.01,2013-01-25 16:38:00,
2013-01-25 11:39:00,16.1,-4.0,30.18,WNW,294,14.0,15.0,40,0.00,,SCT040,0.00,VWS V14.01,2013-01-25 16:39:00,
2013-01-25 11:40:00,16.0,-4.6,30.18,West,273,8.0,12.0,39,0.00,,BKN250,0.00,VWS V14.01,2013-01-25 16:40:00,
2013-01-25 11:41:00,16.0,-4.6,30.18,West,273,8.0,12.0,39,0.00,,SCT040,0.00,VWS V14.01,2013-01-25 16:41:00,
2013-01-25 11:42:00,16.0,-4.6,30.18,West,275,7.0,13.0,39,0.00,,SCT040,0.00,VWS V14.01,2013-01-25 16:42:00,
2013-01-25 11:43:00,15.9,-4.7,30.18,NNE,16,3.0,9.0,39,0.00,,SCT040,0.00,VWS V14.01,2013-01-25 16:43:00,
2013-01-25 11:44:00,15.9,-4.1,30.18,West,281,2.0,6.0,40,0.00,,SCT040,0.00,VWS V14.01,2013-01-25 16:44:00,
2013-01-25 11:45:00,16.1,-3.4,30.18,West,259,3.0,16.0,41,0.00,,BKN250,0.00,VWS V14.01,2013-01-25 16:45:00,
2013-01-25 11:46:00,16.1,-3.4,30.18,West,259,3.0,16.0,41,0.00,,SCT040,0.00,VWS V14.01,2013-01-25 16:46:00,
2013-01-25 11:47:00,16.1,-4.0,30.18,West,266,7.0,9.0,40,0.00,,SCT040,0.00,VWS V14.01,2013-01-25 16:47:00,
2013-01-25 11:48:00,16.1,-4.0,30.18,SE,143,1.0,7.0,40,0.00,,SCT040,0.00,VWS V14.01,2013-01-25 16:48:00,
2013-01-25 11:49:00,16.3,-3.8,30.18,WSW,240,8.0,9.0,40,0.00,,SCT040,0.00,VWS V14.01,2013-01-25 16:49:00,
2013-01-25 11:50:00,16.4,-3.7,30.18,West,269,9.0,12.0,40,0.00,,BKN250,0.00,VWS V14.01,2013-01-25 16:50:00,
2013-01-25 11:51:00,16.4,-3.7,30.18,West,269,9.0,12.0,40,0.00,,SCT040,0.00,VWS V14.01,2013-01-25 16:51:00,
2013-01-25 11:52:00,16.4,-4.2,30.18,West,276,7.0,9.0,39,0.00,,SCT040,0.00,VWS V14.01,2013-01-25 16:52:00,
2013-01-25 11:53:00,16.5,-3.6,30.18,WSW,238,5.0,7.0,40,0.00,,SCT040,0.00,VWS V14.01,2013-01-25 16:53:00,
2013-01-25 11:54:00,16.6,-3.5,30.18,WNW,302,3.0,10.0,40,0.00,,SCT040,0.00,VWS V14.01,2013-01-25 16:54:00,
2013-01-25 11:55:00,16.6,-4.0,30.17,West,270,3.0,9.0,39,0.00,,BKN250,0.00,VWS V14.01,2013-01-25 16:55:00,
2013-01-25 11:56:00,16.6,-4.0,30.17,West,270,3.0,9.0,39,0.00,,SCT040,0.00,VWS V14.01,2013-01-25 16:56:00,
2013-01-25 11:57:00,16.7,-3.4,30.18,West,264,3.0,6.0,40,0.00,,SCT040,0.00,VWS V14.01,2013-01-25 16:57:00,
2013-01-25 11:58:00,16.7,-3.9,30.17,NW,305,3.0,12.0,39,0.00,,SCT040,0.00,VWS V14.01,2013-01-25 16:58:00,
2013-01-25 11:59:00,16.8,-3.8,30.17,WSW,238,4.0,6.0,39,0.00,,SCT040,0.00,VWS V14.01,2013-01-25 16:59:00,
2013-01-25 12:00:00,16.9,-3.2,30.17,NNW,330,6.0,13.0,40,0.00,,BKN250,0.00,VWS V14.01,2013-01-25 17:00:00,
2013-01-25 12:01:00,16.9,-3.2,30.17,NNW,330,6.0,13.0,40,0.00,,SCT040,0.00,VWS V14.01,2013-01-25 17:01:00,
2013-01-25 12:02:00,16.9,-3.8,30.17,West,271,8.0,12.0,39,0.00,,SCT040,0.00,VWS V14.01,2013-01-25 17:02:00,
2013-01-25 12:03:00,16.9,-3.8,30.17,SSW,204,1.0,9.0,39,0.00,,SCT040,0.00,VWS V14.01,2013-01-25 17:03:00,
2013-01-25 12:04:00,16.9,-3.8,30.17,West,277,3.0,6.0,39,0.00,,SCT040,0.00,VWS V14.01,2013-01-25 17:04:00,
2013-01-25 12:05:00,17.1,-3.6,30.17,West,274,7.0,9.0,39,0.00,,BKN250,0.00,VWS V14.01,2013-01-25 17:05:00,
2013-01-25 12:07:00,17.1,-3.6,30.17,NNE,23,3.0,9.0,39,0.00,,SCT040,0.00,VWS V14.01,2013-01-25 17:07:00,
2013-01-25 12:08:00,17.2,-3.5,30.17,NW,322,2.0,7.0,39,0.00,,SCT040,0.00,VWS V14.01,2013-01-25 17:08:00,
2013-01-25 12:09:00,17.3,-3.4,30.17,West,262,9.0,12.0,39,0.00,,SCT040,0.00,VWS V14.01,2013-01-25 17:09:00,
2013-01-25 12:10:00,17.4,-3.8,30.17,West,271,6.0,10.0,38,0.00,,BKN250,0.00,VWS V14.01,2013-01-25 17:10:00,
2013-01-25 12:11:00,17.4,-3.8,30.17,West,271,6.0,10.0,38,0.00,,SCT040,0.00,VWS V14.01,2013-01-25 17:11:00,
2013-01-25 12:12:00,17.4,-3.8,30.17,West,275,3.0,6.0,38,0.00,,SCT040,0.00,VWS V14.01,2013-01-25 17:12:00,
2013-01-25 12:13:00,17.5,-3.2,30.17,WSW,253,8.0,8.0,39,0.00,,SCT040,0.00,VWS V14.01,2013-01-25 17:13:00,
2013-01-25 12:14:00,17.6,-3.1,30.17,WNW,294,8.0,11.0,39,0.00,,SCT040,0.00,VWS V14.01,2013-01-25 17:14:00,
2013-01-25 12:15:00,17.6,-3.7,30.16,NNW,346,1.0,7.0,38,0.00,,BKN250,0.00,VWS V14.01,2013-01-25 17:15:00,
2013-01-25 12:16:00,17.6,-3.7,30.16,NNW,346,1.0,7.0,38,0.00,,SCT040,0.00,VWS V14.01,2013-01-25 17:16:00,
2013-01-25 12:17:00,17.7,-3.6,30.16,WSW,250,1.0,5.0,38,0.00,,SCT040,0.00,VWS V14.01,2013-01-25 17:17:00,
2013-01-25 12:18:00,17.8,-3.5,30.16,NW,315,7.0,7.0,38,0.00,,SCT040,0.00,VWS V14.01,2013-01-25 17:18:00,
2013-01-25 12:19:00,17.8,-3.5,30.16,SSW,193,3.0,8.0,38,0.00,,SCT040,0.00,VWS V14.01,2013-01-25 17:19:00,
2013-01-25 12:20:00,18.1,-3.2,30.16,West,278,8.0,8.0,38,0.00,,BKN250,0.00,VWS V14.01,2013-01-25 17:20:00,
2013-01-25 12:21:00,18.1,-3.2,30.16,West,278,8.0,8.0,38,0.00,,SCT040,0.00,VWS V14.01,2013-01-25 17:21:00,
2013-01-25 12:22:00,18.1,-3.2,30.16,NW,322,4.0,10.0,38,0.00,,SCT040,0.00,VWS V14.01,2013-01-25 17:22:00,
2013-01-25 12:23:00,18.1,-3.2,30.16,NW,322,5.0,8.0,38,0.00,,SCT040,0.00,VWS V14.01,2013-01-25 17:23:00,
2013-01-25 12:24:00,18.2,-3.1,30.16,WSW,246,3.0,5.0,38,0.00,,SCT040,0.00,VWS V14.01,2013-01-25 17:24:00,
2013-01-25 12:25:00,18.3,-3.0,30.16,West,260,5.0,6.0,38,0.00,,BKN250,0.00,VWS V14.01,2013-01-25 17:25:00,
2013-01-25 12:26:00,18.3,-3.0,30.15,West,260,5.0,6.0,38,0.00,,SCT040,0.00,VWS V14.01,2013-01-25 17:26:00,
2013-01-25 12:27:00,18.4,-3.0,30.15,West,273,5.0,8.0,38,0.00,,SCT040,0.00,VWS V14.01,2013-01-25 17:27:00,
2013-01-25 12:28:00,18.5,-2.9,30.15,WNW,294,4.0,7.0,38,0.00,,SCT040,0.00,VWS V14.01,2013-01-25 17:28:00,
2013-01-25 12:29:00,18.5,-3.4,30.15,West,259,2.0,6.0,37,0.00,,SCT040,0.00,VWS V14.01,2013-01-25 17:29:00,
2013-01-25 12:30:00,18.5,-3.4,30.16,WNW,284,1.0,7.0,37,0.00,,BKN250,0.00,VWS V14.01,2013-01-25 17:30:00,
2013-01-25 12:31:00,18.5,-3.4,30.16,WNW,284,1.0,7.0,37,0.00,,SCT040,0.00,VWS V14.01,2013-01-25 17:31:00,
2013-01-25 12:32:00,18.6,-3.3,30.16,NE,56,3.0,5.0,37,0.00,,SCT040,0.00,VWS V14.01,2013-01-25 17:32:00,
2013-01-25 12:33:00,18.6,-3.3,30.16,WSW,250,7.0,7.0,37,0.00,,SCT040,0.00,VWS V14.01,2013-01-25 17:33:00,
2013-01-25 12:34:00,18.6,-3.3,30.16,WNW,288,1.0,7.0,37,0.00,,SCT040,0.00,VWS V14.01,2013-01-25 17:34:00,
2013-01-25 12:35:00,18.6,-3.3,30.16,West,273,4.0,7.0,37,0.00,,BKN200,0.00,VWS V14.01,2013-01-25 17:35:00,
2013-01-25 12:36:00,18.6,-3.3,30.16,West,273,4.0,7.0,37,0.00,,SCT040,0.00,VWS V14.01,2013-01-25 17:36:00,
2013-01-25 12:37:00,18.6,-3.3,30.16,West,277,3.0,9.0,37,0.00,,SCT040,0.00,VWS V14.01,2013-01-25 17:37:00,
2013-01-25 12:38:00,18.7,-3.2,30.16,SSW,201,3.0,3.0,37,0.00,,SCT040,0.00,VWS V14.01,2013-01-25 17:38:00,
2013-01-25 12:39:00,18.8,-3.2,30.16,West,262,6.0,12.0,37,0.00,,SCT040,0.00,VWS V14.01,2013-01-25 17:39:00,
2013-01-25 12:40:00,18.7,-3.2,30.16,West,273,3.0,8.0,37,0.00,,BKN200,0.00,VWS V14.01,2013-01-25 17:40:00,
2013-01-25 12:41:00,18.7,-3.2,30.16,West,273,3.0,8.0,37,0.00,,SCT040,0.00,VWS V14.01,2013-01-25 17:41:00,
2013-01-25 12:42:00,18.8,-3.2,30.16,SSW,204,2.0,7.0,37,0.00,,SCT040,0.00,VWS V14.01,2013-01-25 17:42:00,
2013-01-25 12:43:00,18.8,-3.2,30.15,West,274,8.0,10.0,37,0.00,,SCT040,0.00,VWS V14.01,2013-01-25 17:43:00,
2013-01-25 12:44:00,18.7,-3.8,30.16,WSW,238,3.0,8.0,36,0.00,,SCT040,0.00,VWS V14.01,2013-01-25 17:44:00,
2013-01-25 12:45:00,18.8,-3.2,30.15,SW,235,4.0,4.0,37,0.00,,BKN200,0.00,VWS V14.01,2013-01-25 17:45:00,
2013-01-25 12:46:00,18.8,-3.2,30.15,SW,235,4.0,4.0,37,0.00,,SCT040,0.00,VWS V14.01,2013-01-25 17:46:00,
2013-01-25 12:47:00,19.0,-3.0,30.15,WSW,238,1.0,5.0,37,0.00,,SCT040,0.00,VWS V14.01,2013-01-25 17:47:00,
2013-01-25 12:48:00,19.1,-2.3,30.15,SW,233,2.0,6.0,38,0.00,,SCT040,0.00,VWS V14.01,2013-01-25 17:48:00,
2013-01-25 12:49:00,19.2,-2.8,30.15,SW,229,1.0,4.0,37,0.00,,SCT040,0.00,VWS V14.01,2013-01-25 17:49:00,
2013-01-25 12:50:00,19.3,-3.3,30.15,West,263,6.0,9.0,36,0.00,,BKN200,0.00,VWS V14.01,2013-01-25 17:50:00,
2013-01-25 12:51:00,19.3,-3.3,30.15,West,263,6.0,9.0,36,0.00,,SCT040,0.00,VWS V14.01,2013-01-25 17:51:00,
2013-01-25 12:52:00,19.2,-3.4,30.15,West,276,6.0,9.0,36,0.00,,SCT040,0.00,VWS V14.01,2013-01-25 17:52:00,
2013-01-25 12:53:00,19.1,-3.5,30.15,SW,235,5.0,9.0,36,0.00,,SCT040,0.00,VWS V14.01,2013-01-25 17:53:00,
2013-01-25 12:54:00,19.1,-3.5,30.15,West,271,2.0,6.0,36,0.00,,SCT040,0.00,VWS V14.01,2013-01-25 17:54:00,
2013-01-25 12:55:00,19.1,-3.5,30.15,WNW,283,4.0,7.0,36,0.00,,BKN200,0.00,VWS V14.01,2013-01-25 17:55:00,
2013-01-25 12:56:00,19.1,-3.5,30.15,WNW,283,4.0,7.0,36,0.00,,SCT040,0.00,VWS V14.01,2013-01-25 17:56:00,
2013-01-25 12:57:00,19.1,-3.5,30.15,WSW,253,3.0,7.0,36,0.00,,SCT040,0.00,VWS V14.01,2013-01-25 17:57:00,
2013-01-25 12:58:00,19.2,-3.4,30.15,West,260,5.0,7.0,36,0.00,,SCT040,0.00,VWS V14.01,2013-01-25 17:58:00,
2013-01-25 12:59:00,19.2,-3.4,30.15,WNW,300,4.0,12.0,36,0.00,,SCT040,0.00,VWS V14.01,2013-01-25 17:59:00,
2013-01-25 13:00:00,19.1,-3.5,30.15,East,95,1.0,6.0,36,0.00,,BKN200,0.00,VWS V14.01,2013-01-25 18:00:00,
2013-01-25 13:01:00,19.1,-3.5,30.15,East,95,1.0,6.0,36,0.00,,SCT040,0.00,VWS V14.01,2013-01-25 18:01:00,
2013-01-25 13:02:00,19.1,-3.5,30.15,West,259,5.0,8.0,36,0.00,,SCT040,0.00,VWS V14.01,2013-01-25 18:02:00,
2013-01-25 13:03:00,19.1,-3.5,30.15,West,267,2.0,5.0,36,0.00,,SCT040,0.00,VWS V14.01,2013-01-25 18:03:00,
2013-01-25 13:04:00,19.1,-4.0,30.15,NW,311,6.0,8.0,35,0.00,,SCT040,0.00,VWS V14.01,2013-01-25 18:04:00,
2013-01-25 13:05:00,19.0,-4.1,30.15,West,264,10.0,10.0,35,0.00,,BKN200,0.00,VWS V14.01,2013-01-25 18:05:00,
2013-01-25 13:06:00,19.0,-4.1,30.15,West,264,10.0,10.0,35,0.00,,SCT040,0.00,VWS V14.01,2013-01-25 18:06:00,
2013-01-25 13:07:00,18.9,-4.2,30.15,WNW,287,10.0,10.0,35,0.00,,SCT040,0.00,VWS V14.01,2013-01-25 18:07:00,
2013-01-25 13:08:00,18.9,-4.2,30.14,West,269,5.0,10.0,35,0.00,,SCT040,0.00,VWS V14.01,2013-01-25 18:08:00,
2013-01-25 13:09:00,18.8,-4.3,30.14,WNW,283,0.0,7.0,35,0.00,,SCT040,0.00,VWS V14.01,2013-01-25 18:09:00,
2013-01-25 13:10:00,18.9,-3.6,30.14,WSW,250,4.0,4.0,36,0.00,,BKN200,0.00,VWS V14.01,2013-01-25 18:10:00,
2013-01-25 13:11:00,18.9,-3.6,30.14,WSW,250,4.0,4.0,36,0.00,,SCT040,0.00,VWS V14.01,2013-01-25 18:11:00,
2013-01-25 13:12:00,19.0,-3.5,30.14,NW,325,5.0,6.0,36,0.00,,SCT040,0.00,VWS V14.01,2013-01-25 18:12:00,
2013-01-25 13:13:00,19.1,-3.5,30.14,WSW,250,4.0,6.0,36,0.00,,SCT040,0.00,VWS V14.01,2013-01-25 18:13:00,
2013-01-25 13:14:00,19.1,-3.5,30.14,SW,224,3.0,8.0,36,0.00,,SCT040,0.00,VWS V14.01,2013-01-25 18:14:00,
2013-01-25 13:15:00,19.2,-4.0,30.14,West,280,7.0,10.0,35,0.00,,BKN200,0.00,VWS V14.01,2013-01-25 18:15:00,
2013-01-25 13:16:00,19.2,-4.0,30.14,West,280,7.0,10.0,35,0.00,,SCT040,0.00,VWS V14.01,2013-01-25 18:16:00,
2013-01-25 13:17:00,19.1,-4.0,30.14,WNW,287,5.0,7.0,35,0.00,,SCT040,0.00,VWS V14.01,2013-01-25 18:17:00,
2013-01-25 13:18:00,19.1,-4.0,30.14,WNW,288,6.0,7.0,35,0.00,,SCT040,0.00,VWS V14.01,2013-01-25 18:18:00,
2013-01-25 13:19:00,19.0,-4.1,30.14,WNW,284,2.0,10.0,35,0.00,,SCT040,0.00,VWS V14.01,2013-01-25 18:19:00,
2013-01-25 13:20:00,19.2,-4.0,30.14,NNW,333,4.0,5.0,35,0.00,,BKN200,0.00,VWS V14.01,2013-01-25 18:20:00,
2013-01-25 13:21:00,19.2,-4.0,30.14,WNW,282,5.0,6.0,35,0.00,,SCT040,0.00,VWS V14.01,2013-01-25 18:21:00,
2013-01-25 13:22:00,19.2,-4.0,30.14,NNW,340,0.0,10.0,35,0.00,,SCT040,0.00,VWS V14.01,2013-01-25 18:22:00,
2013-01-25 13:23:00,19.2,-4.0,30.14,West,267,9.0,9.0,35,0.00,,SCT040,0.00,VWS V14.01,2013-01-25 18:23:00,
2013-01-25 13:24:00,19.2,-4.6,30.14,WNW,290,4.0,9.0,34,0.00,,SCT040,0.00,VWS V14.01,2013-01-25 18:24:00,
2013-01-25 13:25:00,19.3,-4.5,30.14,West,266,4.0,4.0,34,0.00,,BKN200,0.00,VWS V14.01,2013-01-25 18:25:00,
2013-01-25 13:26:00,19.2,-4.6,30.14,West,278,3.0,10.0,34,0.00,,SCT040,0.00,VWS V14.01,2013-01-25 18:26:00,
2013-01-25 13:27:00,19.3,-4.5,30.14,WSW,253,4.0,8.0,34,0.00,,SCT040,0.00,VWS V14.01,2013-01-25 18:27:00,
2013-01-25 13:28:00,19.3,-4.5,30.14,NNW,332,2.0,8.0,34,0.00,,SCT040,0.00,VWS V14.01,2013-01-25 18:28:00,
2013-01-25 13:29:00,19.4,-4.4,30.14,West,271,4.0,5.0,34,0.00,,SCT040,0.00,VWS V14.01,2013-01-25 18:29:00,
2013-01-25 13:30:00,19.4,-4.4,30.14,NNW,337,1.0,2.0,34,0.00,,BKN200,0.00,VWS V14.01,2013-01-25 18:30:00,
2013-01-25 13:31:00,19.4,-4.4,30.14,NNE,26,2.0,8.0,34,0.00,,SCT040,0.00,VWS V14.01,2013-01-25 18:31:00,
2013-01-25 13:32:00,19.5,-4.3,30.14,NW,322,1.0,3.0,34,0.00,,SCT040,0.00,VWS V14.01,2013-01-25 18:32:00,
2013-01-25 13:33:00,19.6,-3.6,30.14,West,261,4.0,4.0,35,0.00,,SCT040,0.00,VWS V14.01,2013-01-25 18:33:00,
2013-01-25 13:34:00,19.7,-3.5,30.14,WSW,253,1.0,5.0,35,0.00,,SCT040,0.00,VWS V14.01,2013-01-25 18:34:00,
2013-01-25 13:35:00,20.0,-3.2,30.14,SE,135,1.0,6.0,35,0.00,,BKN250,0.00,VWS V14.01,2013-01-25 18:35:00,
2013-01-25 13:36:00,20.0,-3.2,30.14,North,350,6.0,6.0,35,0.00,,SCT040,0.00,VWS V14.01,2013-01-25 18:36:00,
2013-01-25 13:37:00,20.1,-3.2,30.13,WSW,245,8.0,8.0,35,0.00,,SCT040,0.00,VWS V14.01,2013-01-25 18:37:00,
2013-01-25 13:38:00,20.0,-3.8,30.13,NW,322,2.0,8.0,34,0.00,,SCT040,0.00,VWS V14.01,2013-01-25 18:38:00,
2013-01-25 13:39:00,20.0,-4.5,30.13,NW,304,4.0,4.0,33,0.00,,SCT040,0.00,VWS V14.01,2013-01-25 18:39:00,
2013-01-25 13:40:00,20.0,-4.5,30.13,West,266,7.0,8.0,33,0.00,,SCT040,0.00,VWS V14.01,2013-01-25 18:40:00,
2013-01-25 13:41:00,20.0,-3.8,30.13,WNW,294,4.0,4.0,34,0.00,,BKN250,0.00,VWS V14.01,2013-01-25 18:41:00,
2013-01-25 13:42:00,20.0,-3.8,30.13,SSW,212,1.0,4.0,34,0.00,,SCT040,0.00,VWS V14.01,2013-01-25 18:42:00,
2013-01-25 13:43:00,20.0,-3.8,30.13,WSW,243,0.0,5.0,34,0.00,,SCT040,0.00,VWS V14.01,2013-01-25 18:43:00,
2013-01-25 13:44:00,20.0,-3.8,30.13,NE,56,1.0,4.0,34,0.00,,SCT040,0.00,VWS V14.01,2013-01-25 18:44:00,
2013-01-25 13:45:00,20.1,-3.8,30.13,West,260,2.0,4.0,34,0.00,,SCT040,0.00,VWS V14.01,2013-01-25 18:45:00,
2013-01-25 13:46:00,20.2,-3.7,30.13,WSW,256,3.0,4.0,34,0.00,,BKN250,0.00,VWS V14.01,2013-01-25 18:46:00,
2013-01-25 13:47:00,20.2,-3.7,30.13,West,261,2.0,4.0,34,0.00,,SCT040,0.00,VWS V14.01,2013-01-25 18:47:00,
2013-01-25 13:48:00,20.2,-4.3,30.13,West,280,5.0,8.0,33,0.00,,SCT040,0.00,VWS V14.01,2013-01-25 18:48:00,
2013-01-25 13:49:00,20.1,-4.4,30.13,WSW,257,5.0,6.0,33,0.00,,SCT040,0.00,VWS V14.01,2013-01-25 18:49:00,
2013-01-25 13:50:00,20.1,-4.4,30.13,WNW,297,2.0,8.0,33,0.00,,SCT040,0.00,VWS V14.01,2013-01-25 18:50:00,
2013-01-25 13:51:00,20.0,-4.5,30.13,WSW,250,7.0,12.0,33,0.00,,BKN250,0.00,VWS V14.01,2013-01-25 18:51:00,
2013-01-25 13:52:00,20.0,-4.5,30.13,WSW,250,7.0,12.0,33,0.00,,SCT040,0.00,VWS V14.01,2013-01-25 18:52:00,
2013-01-25 13:53:00,20.0,-4.5,30.13,WSW,253,3.0,9.0,33,0.00,,SCT040,0.00,VWS V14.01,2013-01-25 18:53:00,
2013-01-25 13:54:00,19.9,-4.6,30.13,West,263,4.0,6.0,33,0.00,,SCT040,0.00,VWS V14.01,2013-01-25 18:54:00,
2013-01-25 13:55:00,20.0,-3.8,30.13,NW,322,4.0,4.0,34,0.00,,SCT040,0.00,VWS V14.01,2013-01-25 18:55:00,
2013-01-25 13:56:00,20.0,-4.5,30.13,WSW,245,7.0,7.0,33,0.00,,BKN250,0.00,VWS V14.01,2013-01-25 18:56:00,
2013-01-25 13:57:00,20.0,-4.5,30.13,WSW,245,7.0,7.0,33,0.00,,SCT040,0.00,VWS V14.01,2013-01-25 18:57:00,
2013-01-25 13:58:00,20.0,-4.5,30.13,WNW,287,3.0,6.0,33,0.00,,SCT040,0.00,VWS V14.01,2013-01-25 18:58:00,
2013-01-25 13:59:00,20.0,-4.5,30.13,West,263,3.0,7.0,33,0.00,,SCT040,0.00,VWS V14.01,2013-01-25 18:59:00,
2013-01-25 14:00:00,20.0,-4.5,30.13,West,274,4.0,9.0,33,0.00,,SCT040,0.00,VWS V14.01,2013-01-25 19:00:00,
2013-01-25 14:01:00,20.0,-4.5,30.13,SW,221,4.0,6.0,33,0.00,,BKN250,0.00,VWS V14.01,2013-01-25 19:01:00,
2013-01-25 14:02:00,20.0,-4.5,30.13,SW,221,4.0,6.0,33,0.00,,SCT040,0.00,VWS V14.01,2013-01-25 19:02:00,
2013-01-25 14:03:00,20.0,-4.5,30.13,West,278,7.0,8.0,33,0.00,,SCT040,0.00,VWS V14.01,2013-01-25 19:03:00,
2013-01-25 14:04:00,20.0,-4.5,30.13,West,262,4.0,7.0,33,0.00,,SCT040,0.00,VWS V14.01,2013-01-25 19:04:00,
2013-01-25 14:05:00,19.9,-4.6,30.13,West,267,4.0,6.0,33,0.00,,SCT040,0.00,VWS V14.01,2013-01-25 19:05:00,
2013-01-25 14:06:00,19.9,-4.6,30.13,West,266,7.0,7.0,33,0.00,,BKN250,0.00,VWS V14.01,2013-01-25 19:06:00,
2013-01-25 14:07:00,19.9,-4.6,30.13,West,266,7.0,7.0,33,0.00,,SCT040,0.00,VWS V14.01,2013-01-25 19:07:00,
2013-01-25 14:08:00,19.8,-4.6,30.12,West,260,3.0,7.0,33,0.00,,SCT040,0.00,VWS V14.01,2013-01-25 19:08:00,
2013-01-25 14:09:00,19.8,-4.6,30.12,WSW,248,1.0,6.0,33,0.00,,SCT040,0.00,VWS V14.01,2013-01-25 19:09:00,
2013-01-25 14:10:00,19.8,-4.6,30.13,NW,315,4.0,6.0,33,0.00,,SCT040,0.00,VWS V14.01,2013-01-25 19:10:00,
2013-01-25 14:11:00,19.8,-4.6,30.12,WNW,290,5.0,6.0,33,0.00,,BKN250,0.00,VWS V14.01,2013-01-25 19:11:00,
2013-01-25 14:12:00,19.8,-4.6,30.12,WNW,290,5.0,6.0,33,0.00,,SCT040,0.00,VWS V14.01,2013-01-25 19:12:00,
2013-01-25 14:13:00,19.8,-4.0,30.12,West,259,4.0,5.0,34,0.00,,SCT040,0.00,VWS V14.01,2013-01-25 19:13:00,
2013-01-25 14:14:00,19.8,-4.0,30.12,West,262,2.0,8.0,34,0.00,,SCT040,0.00,VWS V14.01,2013-01-25 19:14:00,
2013-01-25 14:15:00,19.8,-3.4,30.12,WSW,253,6.0,6.0,35,0.00,,SCT040,0.00,VWS V14.01,2013-01-25 19:15:00,
2013-01-25 14:16:00,19.8,-4.0,30.12,West,280,2.0,7.0,34,0.00,,BKN250,0.00,VWS V14.01,2013-01-25 19:16:00,
2013-01-25 14:17:00,19.8,-4.0,30.12,West,280,2.0,7.0,34,0.00,,SCT040,0.00,VWS V14.01,2013-01-25 19:17:00,
2013-01-25 14:18:00,19.8,-3.4,30.12,WNW,299,1.0,4.0,35,0.00,,SCT040,0.00,VWS V14.01,2013-01-25 19:18:00,
2013-01-25 14:19:00,19.9,-3.3,30.12,NW,321,2.0,3.0,35,0.00,,SCT040,0.00,VWS V14.01,2013-01-25 19:19:00,
2013-01-25 14:20:00,19.9,-3.3,30.12,WNW,303,2.0,5.0,35,0.00,,SCT040,0.00,VWS V14.01,2013-01-25 19:20:00,
2013-01-25 14:21:00,20.0,-3.2,30.12,West,275,4.0,4.0,35,0.00,,BKN250,0.00,VWS V14.01,2013-01-25 19:21:00,
2013-01-25 14:22:00,20.0,-3.2,30.12,West,275,4.0,4.0,35,0.00,,SCT040,0.00,VWS V14.01,2013-01-25 19:22:00,
2013-01-25 14:23:00,20.0,-3.2,30.12,West,267,2.0,5.0,35,0.00,,SCT040,0.00,VWS V14.01,2013-01-25 19:23:00,
2013-01-25 14:24:00,20.1,-3.2,30.12,NW,319,2.0,5.0,35,0.00,,SCT040,0.00,VWS V14.01,2013-01-25 19:24:00,
2013-01-25 14:25:00,20.1,-3.2,30.12,West,267,3.0,5.0,35,0.00,,SCT040,0.00,VWS V14.01,2013-01-25 19:25:00,
2013-01-25 14:26:00,20.1,-3.8,30.12,SSE,148,1.0,4.0,34,0.00,,BKN250,0.00,VWS V14.01,2013-01-25 19:26:00,
2013-01-25 14:27:00,20.1,-3.8,30.12,SSE,148,1.0,4.0,34,0.00,,SCT040,0.00,VWS V14.01,2013-01-25 19:27:00,
2013-01-25 14:28:00,20.2,-3.7,30.12,WNW,297,3.0,6.0,34,0.00,,SCT040,0.00,VWS V14.01,2013-01-25 19:28:00,
2013-01-25 14:29:00,20.2,-3.7,30.12,WSW,243,3.0,10.0,34,0.00,,SCT040,0.00,VWS V14.01,2013-01-25 19:29:00,
2013-01-25 14:30:00,20.2,-3.7,30.12,West,266,1.0,6.0,34,0.00,,SCT040,0.00,VWS V14.01,2013-01-25 19:30:00,
2013-01-25 14:31:00,20.4,-3.5,30.12,North,356,1.0,4.0,34,0.00,,BKN250,0.00,VWS V14.01,2013-01-25 19:31:00,
2013-01-25 14:32:00,20.4,-3.5,30.12,North,356,1.0,4.0,34,0.00,,SCT040,0.00,VWS V14.01,2013-01-25 19:32:00,
2013-01-25 14:33:00,20.5,-3.4,30.12,ENE,70,3.0,4.0,34,0.00,,SCT040,0.00,VWS V14.01,2013-01-25 19:33:00,
2013-01-25 14:34:00,20.6,-3.3,30.12,West,268,2.0,4.0,34,0.00,,SCT040,0.00,VWS V14.01,2013-01-25 19:34:00,
2013-01-25 14:35:00,20.6,-3.9,30.12,NNW,335,3.0,7.0,33,0.00,,SCT040,0.00,VWS V14.01,2013-01-25 19:35:00,
2013-01-25 14:36:00,20.7,-4.5,30.12,West,273,6.0,8.0,32,0.00,,BKN250,0.00,VWS V14.01,2013-01-25 19:36:00,
2013-01-25 14:37:00,20.7,-4.5,30.12,West,273,6.0,8.0,32,0.00,,SCT040,0.00,VWS V14.01,2013-01-25 19:37:00,
2013-01-25 14:38:00,20.6,-4.6,30.12,West,278,4.0,9.0,32,0.00,,SCT040,0.00,VWS V14.01,2013-01-25 19:38:00,
2013-01-25 14:39:00,20.6,-4.6,30.12,NNW,328,3.0,7.0,32,0.00,,SCT040,0.00,VWS V14.01,2013-01-25 19:39:00,
2013-01-25 14:40:00,20.6,-4.6,30.11,NW,311,3.0,6.0,32,0.00,,SCT040,0.00,VWS V14.01,2013-01-25 19:40:00,
2013-01-25 14:41:00,20.7,-4.5,30.11,SW,235,3.0,6.0,32,0.00,,BKN250,0.00,VWS V14.01,2013-01-25 19:41:00,
2013-01-25 14:42:00,20.7,-4.5,30.11,SW,235,3.0,6.0,32,0.00,,SCT040,0.00,VWS V14.01,2013-01-25 19:42:00,
2013-01-25 14:43:00,20.7,-4.5,30.11,NW,307,2.0,7.0,32,0.00,,SCT040,0.00,VWS V14.01,2013-01-25 19:43:00,
2013-01-25 14:44:00,20.8,-4.4,30.11,NW,321,2.0,6.0,32,0.00,,SCT040,0.00,VWS V14.01,2013-01-25 19:44:00,
2013-01-25 14:45:00,20.8,-4.4,30.11,NW,320,2.0,3.0,32,0.00,,SCT040,0.00,VWS V14.01,2013-01-25 19:45:00,
2013-01-25 14:46:00,20.9,-4.3,30.11,West,278,4.0,11.0,32,0.00,,BKN250,0.00,VWS V14.01,2013-01-25 19:46:00,
2013-01-25 14:47:00,20.9,-4.3,30.11,West,278,4.0,11.0,32,0.00,,SCT040,0.00,VWS V14.01,2013-01-25 19:47:00,
2013-01-25 14:48:00,20.9,-5.0,30.11,NNE,16,3.0,8.0,31,0.00,,SCT040,0.00,VWS V14.01,2013-01-25 19:48:00,
2013-01-25 14:49:00,20.9,-4.3,30.11,NW,321,2.0,3.0,32,0.00,,SCT040,0.00,VWS V14.01,2013-01-25 19:49:00,
2013-01-25 14:50:00,21.0,-4.2,30.11,NW,307,4.0,5.0,32,0.00,,SCT040,0.00,VWS V14.01,2013-01-25 19:50:00,
2013-01-25 14:51:00,20.9,-5.0,30.11,WNW,302,2.0,7.0,31,0.00,,BKN250,0.00,VWS V14.01,2013-01-25 19:51:00,
2013-01-25 14:52:00,20.9,-5.0,30.11,WNW,302,2.0,7.0,31,0.00,,SCT040,0.00,VWS V14.01,2013-01-25 19:52:00,
2013-01-25 14:53:00,20.9,-5.0,30.11,WNW,300,2.0,10.0,31,0.00,,SCT040,0.00,VWS V14.01,2013-01-25 19:53:00,
2013-01-25 14:54:00,20.9,-5.0,30.11,ESE,108,0.0,3.0,31,0.00,,SCT040,0.00,VWS V14.01,2013-01-25 19:54:00,
2013-01-25 14:55:00,20.9,-4.3,30.11,West,274,2.0,4.0,32,0.00,,SCT040,0.00,VWS V14.01,2013-01-25 19:55:00,
2013-01-25 14:56:00,21.1,-4.1,30.11,NW,306,2.0,5.0,32,0.00,,BKN250,0.00,VWS V14.01,2013-01-25 19:56:00,
2013-01-25 14:57:00,21.1,-4.1,30.11,NW,306,2.0,5.0,32,0.00,,SCT040,0.00,VWS V14.01,2013-01-25 19:57:00,
2013-01-25 14:58:00,21.1,-4.8,30.11,WNW,287,2.0,2.0,31,0.00,,SCT040,0.00,VWS V14.01,2013-01-25 19:58:00,
2013-01-25 14:59:00,21.2,-4.7,30.11,West,277,2.0,4.0,31,0.00,,SCT040,0.00,VWS V14.01,2013-01-25 19:59:00,
2013-01-25 15:00:00,21.3,-4.6,30.11,WSW,243,2.0,4.0,31,0.00,,SCT040,0.00,VWS V14.01,2013-01-25 20:00:00,
2013-01-25 15:01:00,21.3,-4.6,30.11,SSW,212,1.0,5.0,31,0.00,,BKN250,0.00,VWS V14.01,2013-01-25 20:01:00,
2013-01-25 15:02:00,21.3,-4.6,30.11,SSW,212,1.0,5.0,31,0.00,,SCT040,0.00,VWS V14.01,2013-01-25 20:02:00,
2013-01-25 15:03:00,21.3,-4.6,30.11,West,260,2.0,6.0,31,0.00,,SCT040,0.00,VWS V14.01,2013-01-25 20:03:00,
2013-01-25 15:04:00,21.2,-5.4,30.11,WNW,294,2.0,3.0,30,0.00,,SCT040,0.00,VWS V14.01,2013-01-25 20:04:00,
2013-01-25 15:05:00,21.2,-5.4,30.11,WNW,283,2.0,5.0,30,0.00,,SCT040,0.00,VWS V14.01,2013-01-25 20:05:00,
2013-01-25 15:06:00,21.1,-4.8,30.11,NW,325,1.0,4.0,31,0.00,,BKN250,0.00,VWS V14.01,2013-01-25 20:06:00,
2013-01-25 15:07:00,21.1,-4.8,30.11,NW,325,1.0,4.0,31,0.00,,SCT040,0.00,VWS V14.01,2013-01-25 20:07:00,
2013-01-25 15:08:00,21.1,-4.8,30.11,NW,318,2.0,5.0,31,0.00,,SCT040,0.00,VWS V14.01,2013-01-25 20:08:00,
2013-01-25 15:09:00,21.0,-4.9,30.11,WNW,283,1.0,3.0,31,0.00,,SCT040,0.00,VWS V14.01,2013-01-25 20:09:00,
2013-01-25 15:10:00,20.9,-5.0,30.11,WNW,294,2.0,4.0,31,0.00,,SCT040,0.00,VWS V14.01,2013-01-25 20:10:00,
2013-01-25 15:11:00,20.8,-5.1,30.11,West,273,3.0,4.0,31,0.00,,BKN250,0.00,VWS V14.01,2013-01-25 20:11:00,
2013-01-25 15:12:00,20.8,-5.1,30.11,West,273,3.0,4.0,31,0.00,,SCT040,0.00,VWS V14.01,2013-01-25 20:12:00,
2013-01-25 15:13:00,20.7,-5.1,30.11,WSW,256,2.0,3.0,31,0.00,,SCT040,0.00,VWS V14.01,2013-01-25 20:13:00,
2013-01-25 15:14:00,20.7,-5.1,30.11,WSW,253,2.0,3.0,31,0.00,,SCT040,0.00,VWS V14.01,2013-01-25 20:14:00,
2013-01-25 15:15:00,20.7,-5.1,30.11,West,264,7.0,7.0,31,0.00,,SCT040,0.00,VWS V14.01,2013-01-25 20:15:00,
2013-01-25 15:16:00,20.6,-5.2,30.11,WNW,287,3.0,5.0,31,0.00,,BKN250,0.00,VWS V14.01,2013-01-25 20:16:00,
2013-01-25 15:17:00,20.6,-5.2,30.11,WNW,287,3.0,5.0,31,0.00,,SCT040,0.00,VWS V14.01,2013-01-25 20:17:00,
2013-01-25 15:18:00,20.5,-5.3,30.11,WSW,245,3.0,4.0,31,0.00,,SCT040,0.00,VWS V14.01,2013-01-25 20:18:00,
2013-01-25 15:19:00,20.5,-5.3,30.11,WSW,257,2.0,5.0,31,0.00,,SCT040,0.00,VWS V14.01,2013-01-25 20:19:00,
2013-01-25 15:20:00,20.5,-5.3,30.11,SE,141,1.0,4.0,31,0.00,,SCT040,0.00,VWS V14.01,2013-01-25 20:20:00,
2013-01-25 15:21:00,20.5,-5.3,30.11,WNW,299,2.0,2.0,31,0.00,,BKN250,0.00,VWS V14.01,2013-01-25 20:21:00,
2013-01-25 15:22:00,20.5,-5.3,30.11,WNW,299,2.0,2.0,31,0.00,,SCT040,0.00,VWS V14.01,2013-01-25 20:22:00,
2013-01-25 15:23:00,20.5,-5.3,30.11,WNW,299,2.0,5.0,31,0.00,,SCT040,0.00,VWS V14.01,2013-01-25 20:23:00,
2013-01-25 15:24:00,20.5,-5.3,30.11,North,358,2.0,5.0,31,0.00,,SCT040,0.00,VWS V14.01,2013-01-25 20:24:00,
2013-01-25 15:25:00,20.4,-5.4,30.10,NW,319,3.0,7.0,31,0.00,,SCT040,0.00,VWS V14.01,2013-01-25 20:25:00,
2013-01-25 15:26:00,20.4,-5.4,30.11,West,260,3.0,4.0,31,0.00,,BKN250,0.00,VWS V14.01,2013-01-25 20:26:00,
2013-01-25 15:27:00,20.4,-5.4,30.11,West,260,3.0,4.0,31,0.00,,SCT040,0.00,VWS V14.01,2013-01-25 20:27:00,
2013-01-25 15:28:00,20.4,-5.4,30.10,West,268,4.0,5.0,31,0.00,,SCT040,0.00,VWS V14.01,2013-01-25 20:28:00,
2013-01-25 15:29:00,20.3,-5.5,30.10,WSW,256,1.0,5.0,31,0.00,,SCT040,0.00,VWS V14.01,2013-01-25 20:29:00,
2013-01-25 15:30:00,20.3,-5.5,30.11,West,271,1.0,4.0,31,0.00,,SCT040,0.00,VWS V14.01,2013-01-25 20:30:00,
2013-01-25 15:31:00,20.4,-5.4,30.11,WSW,243,2.0,3.0,31,0.00,,BKN250,0.00,VWS V14.01,2013-01-25 20:31:00,
2013-01-25 15:32:00,20.4,-5.4,30.11,WSW,243,2.0,3.0,31,0.00,,SCT040,0.00,VWS V14.01,2013-01-25 20:32:00,
2013-01-25 15:33:00,20.4,-5.4,30.11,WNW,287,1.0,6.0,31,0.00,,SCT040,0.00,VWS V14.01,2013-01-25 20:33:00,
2013-01-25 15:34:00,20.4,-5.4,30.10,West,273,2.0,6.0,31,0.00,,SCT040,0.00,VWS V14.01,2013-01-25 20:34:00,
2013-01-25 15:35:00,20.4,-5.4,30.11,NW,304,1.0,3.0,31,0.00,,SCT040,0.00,VWS V14.01,2013-01-25 20:35:00,
2013-01-25 15:36:00,20.4,-5.4,30.10,WSW,256,0.0,2.0,31,0.00,,BKN250,0.00,VWS V14.01,2013-01-25 20:36:00,
2013-01-25 15:37:00,20.4,-5.4,30.10,WSW,256,0.0,2.0,31,0.00,,SCT040,0.00,VWS V14.01,2013-01-25 20:37:00,
2013-01-25 15:38:00,20.4,-5.4,30.10,WSW,256,0.0,0.0,31,0.00,,SCT040,0.00,VWS V14.01,2013-01-25 20:38:00,
2013-01-25 15:39:00,20.4,-4.8,30.10,WNW,285,3.0,5.0,32,0.00,,SCT040,0.00,VWS V14.01,2013-01-25 20:39:00,
2013-01-25 15:40:00,20.4,-4.8,30.10,WNW,297,4.0,8.0,32,0.00,,SCT040,0.00,VWS V14.01,2013-01-25 20:40:00,
2013-01-25 15:41:00,20.4,-5.4,30.10,West,274,4.0,6.0,31,0.00,,BKN250,0.00,VWS V14.01,2013-01-25 20:41:00,
2013-01-25 15:42:00,20.4,-5.4,30.10,West,274,4.0,6.0,31,0.00,,SCT040,0.00,VWS V14.01,2013-01-25 20:42:00,
2013-01-25 15:43:00,20.3,-5.5,30.10,WNW,287,4.0,6.0,31,0.00,,SCT040,0.00,VWS V14.01,2013-01-25 20:43:00,
2013-01-25 15:44:00,20.3,-5.5,30.10,WSW,252,3.0,6.0,31,0.00,,SCT040,0.00,VWS V14.01,2013-01-25 20:44:00,
2013-01-25 15:45:00,20.3,-4.8,30.10,SE,140,1.0,4.0,32,0.00,,SCT040,0.00,VWS V14.01,2013-01-25 20:45:00,
2013-01-25 15:46:00,20.3,-4.8,30.10,WSW,256,1.0,4.0,32,0.00,,BKN250,0.00,VWS V14.01,2013-01-25 20:46:00,
2013-01-25 15:47:00,20.3,-4.8,30.10,WSW,256,1.0,4.0,32,0.00,,SCT040,0.00,VWS V14.01,2013-01-25 20:47:00,
2013-01-25 15:48:00,20.4,-4.8,30.10,WNW,294,2.0,4.0,32,0.00,,SCT040,0.00,VWS V14.01,2013-01-25 20:48:00,
2013-01-25 15:49:00,20.3,-4.8,30.10,WNW,283,5.0,6.0,32,0.00,,SCT040,0.00,VWS V14.01,2013-01-25 20:49:00,
2013-01-25 15:50:00,20.3,-5.5,30.10,NE,56,1.0,5.0,31,0.00,,SCT040,0.00,VWS V14.01,2013-01-25 20:50:00,
2013-01-25 15:51:00,20.2,-4.9,30.10,West,262,4.0,5.0,32,0.00,,BKN250,0.00,VWS V14.01,2013-01-25 20:51:00,
2013-01-25 15:52:00,20.2,-4.9,30.10,West,262,4.0,5.0,32,0.00,,SCT040,0.00,VWS V14.01,2013-01-25 20:52:00,
2013-01-25 15:53:00,20.2,-4.9,30.10,West,278,6.0,6.0,32,0.00,,SCT040,0.00,VWS V14.01,2013-01-25 20:53:00,
2013-01-25 15:54:00,20.2,-4.9,30.10,WNW,294,1.0,6.0,32,0.00,,SCT040,0.00,VWS V14.01,2013-01-25 20:54:00,
2013-01-25 15:55:00,20.2,-4.9,30.10,SW,226,0.0,3.0,32,0.00,,SCT040,0.00,VWS V14.01,2013-01-25 20:55:00,
2013-01-25 15:56:00,20.2,-4.3,30.10,West,281,3.0,5.0,33,0.00,,BKN250,0.00,VWS V14.01,2013-01-25 20:56:00,
2013-01-25 15:57:00,20.2,-4.3,30.10,West,281,3.0,5.0,33,0.00,,SCT040,0.00,VWS V14.01,2013-01-25 20:57:00,
2013-01-25 15:58:00,20.2,-4.9,30.10,West,278,1.0,4.0,32,0.00,,SCT040,0.00,VWS V14.01,2013-01-25 20:58:00,
2013-01-25 15:59:00,20.2,-4.3,30.10,WSW,245,0.0,1.0,33,0.00,,SCT040,0.00,VWS V14.01,2013-01-25 20:59:00,
2013-01-25 16:00:00,20.2,-4.3,30.10,WSW,248,0.0,0.0,33,0.00,,SCT040,0.00,VWS V14.01,2013-01-25 21:00:00,
2013-01-25 16:01:00,20.2,-4.3,30.10,West,269,1.0,5.0,33,0.00,,BKN250,0.00,VWS V14.01,2013-01-25 21:01:00,
2013-01-25 16:02:00,20.2,-4.3,30.10,West,269,1.0,5.0,33,0.00,,SCT040,0.00,VWS V14.01,2013-01-25 21:02:00,
2013-01-25 16:03:00,20.2,-4.3,30.10,West,274,2.0,5.0,33,0.00,,SCT040,0.00,VWS V14.01,2013-01-25 21:03:00,
2013-01-25 16:04:00,20.2,-4.3,30.10,WSW,249,1.0,3.0,33,0.00,,SCT040,0.00,VWS V14.01,2013-01-25 21:04:00,
2013-01-25 16:05:00,20.1,-4.4,30.10,WNW,294,2.0,2.0,33,0.00,,SCT040,0.00,VWS V14.01,2013-01-25 21:05:00,
2013-01-25 16:06:00,20.1,-4.4,30.11,WNW,294,6.0,6.0,33,0.00,,BKN250,0.00,VWS V14.01,2013-01-25 21:06:00,
2013-01-25 16:07:00,20.1,-4.4,30.11,WNW,294,6.0,6.0,33,0.00,,SCT040,0.00,VWS V14.01,2013-01-25 21:07:00,
2013-01-25 16:08:00,20.1,-4.4,30.10,West,264,3.0,7.0,33,0.00,,SCT040,0.00,VWS V14.01,2013-01-25 21:08:00,
2013-01-25 16:09:00,20.0,-4.5,30.10,West,259,1.0,6.0,33,0.00,,SCT040,0.00,VWS V14.01,2013-01-25 21:09:00,
2013-01-25 16:10:00,20.0,-4.5,30.11,West,260,3.0,6.0,33,0.00,,SCT040,0.00,VWS V14.01,2013-01-25 21:10:00,
2013-01-25 16:11:00,20.0,-4.5,30.11,West,281,3.0,4.0,33,0.00,,BKN250,0.00,VWS V14.01,2013-01-25 21:11:00,
2013-01-25 16:12:00,20.0,-4.5,30.10,West,281,3.0,4.0,33,0.00,,SCT040,0.00,VWS V14.01,2013-01-25 21:12:00,
2013-01-25 16:13:00,19.9,-4.6,30.11,WNW,285,2.0,5.0,33,0.00,,SCT040,0.00,VWS V14.01,2013-01-25 21:13:00,
2013-01-25 16:14:00,19.9,-4.6,30.10,West,273,2.0,5.0,33,0.00,,SCT040,0.00,VWS V14.01,2013-01-25 21:14:00,
2013-01-25 16:15:00,19.9,-4.6,30.10,WSW,249,7.0,7.0,33,0.00,,SCT040,0.00,VWS V14.01,2013-01-25 21:15:00,
2013-01-25 16:16:00,19.9,-4.6,30.10,West,263,2.0,3.0,33,0.00,,BKN250,0.00,VWS V14.01,2013-01-25 21:16:00,
2013-01-25 16:17:00,19.9,-4.6,30.10,West,263,2.0,3.0,33,0.00,,SCT040,0.00,VWS V14.01,2013-01-25 21:17:00,
2013-01-25 16:18:00,19.9,-4.6,30.10,WNW,290,0.0,1.0,33,0.00,,SCT040,0.00,VWS V14.01,2013-01-25 21:18:00,
2013-01-25 16:19:00,19.9,-4.6,30.10,NW,305,1.0,2.0,33,0.00,,SCT040,0.00,VWS V14.01,2013-01-25 21:19:00,
2013-01-25 16:20:00,19.9,-3.9,30.11,NW,304,0.0,2.0,34,0.00,,SCT040,0.00,VWS V14.01,2013-01-25 21:20:00,
2013-01-25 16:21:00,19.9,-3.9,30.11,NNW,344,1.0,3.0,34,0.00,,BKN250,0.00,VWS V14.01,2013-01-25 21:21:00,
2013-01-25 16:22:00,19.9,-3.9,30.11,NNW,344,1.0,3.0,34,0.00,,SCT040,0.00,VWS V14.01,2013-01-25 21:22:00,
2013-01-25 16:23:00,19.9,-3.9,30.11,SW,233,0.0,1.0,34,0.00,,SCT040,0.00,VWS V14.01,2013-01-25 21:23:00,
2013-01-25 16:24:00,19.9,-3.9,30.11,West,274,5.0,5.0,34,0.00,,SCT040,0.00,VWS V14.01,2013-01-25 21:24:00,
2013-01-25 16:25:00,19.9,-4.6,30.11,WNW,303,2.0,5.0,33,0.00,,SCT040,0.00,VWS V14.01,2013-01-25 21:25:00,
2013-01-25 16:26:00,19.8,-4.6,30.11,WSW,256,2.0,3.0,33,0.00,,BKN250,0.00,VWS V14.01,2013-01-25 21:26:00,
2013-01-25 16:27:00,19.8,-4.6,30.11,WSW,256,2.0,3.0,33,0.00,,SCT040,0.00,VWS V14.01,2013-01-25 21:27:00,
2013-01-25 16:28:00,19.8,-4.6,30.11,WSW,242,1.0,5.0,33,0.00,,SCT040,0.00,VWS V14.01,2013-01-25 21:28:00,
2013-01-25 16:29:00,19.8,-4.0,30.11,West,260,1.0,4.0,34,0.00,,SCT040,0.00,VWS V14.01,2013-01-25 21:29:00,
2013-01-25 16:30:00,19.8,-4.0,30.11,WNW,293,2.0,2.0,34,0.00,,SCT040,0.00,VWS V14.01,2013-01-25 21:30:00,
2013-01-25 16:31:00,19.7,-4.1,30.11,WNW,295,2.0,2.0,34,0.00,,BKN250,0.00,VWS V14.01,2013-01-25 21:31:00,
2013-01-25 16:32:00,19.7,-4.1,30.11,WSW,238,1.0,4.0,34,0.00,,SCT040,0.00,VWS V14.01,2013-01-25 21:32:00,
2013-01-25 16:33:00,19.7,-4.1,30.11,WSW,256,5.0,5.0,34,0.00,,SCT040,0.00,VWS V14.01,2013-01-25 21:33:00,
2013-01-25 16:34:00,19.7,-4.1,30.10,WSW,256,2.0,5.0,34,0.00,,SCT040,0.00,VWS V14.01,2013-01-25 21:34:00,
2013-01-25 16:35:00,19.7,-4.1,30.11,West,281,1.0,2.0,34,0.00,,SCT040,0.00,VWS V14.01,2013-01-25 21:35:00,
2013-01-25 16:36:00,19.6,-4.8,30.11,WSW,249,5.0,5.0,33,0.00,,BKN230,0.00,VWS V14.01,2013-01-25 21:36:00,
2013-01-25 16:37:00,19.7,-4.7,30.11,WNW,294,3.0,8.0,33,0.00,,SCT040,0.00,VWS V14.01,2013-01-25 21:37:00,
2013-01-25 16:38:00,19.6,-4.8,30.11,SW,229,1.0,5.0,33,0.00,,SCT040,0.00,VWS V14.01,2013-01-25 21:38:00,
2013-01-25 16:39:00,19.6,-4.8,30.11,WNW,294,2.0,3.0,33,0.00,,SCT040,0.00,VWS V14.01,2013-01-25 21:39:00,
2013-01-25 16:40:00,19.6,-4.8,30.11,WSW,254,2.0,5.0,33,0.00,,SCT040,0.00,VWS V14.01,2013-01-25 21:40:00,
2013-01-25 16:41:00,19.6,-4.8,30.11,West,267,2.0,4.0,33,0.00,,BKN230,0.00,VWS V14.01,2013-01-25 21:41:00,
2013-01-25 16:42:00,19.6,-4.8,30.11,West,259,2.0,4.0,33,0.00,,SCT040,0.00,VWS V14.01,2013-01-25 21:42:00,
2013-01-25 16:43:00,19.5,-4.9,30.11,WNW,283,1.0,4.0,33,0.00,,SCT040,0.00,VWS V14.01,2013-01-25 21:43:00,
2013-01-25 16:44:00,19.5,-4.9,30.11,WNW,291,1.0,3.0,33,0.00,,SCT040,0.00,VWS V14.01,2013-01-25 21:44:00,
2013-01-25 16:45:00,19.6,-4.8,30.11,West,274,2.0,2.0,33,0.00,,SCT040,0.00,VWS V14.01,2013-01-25 21:45:00,
2013-01-25 16:46:00,19.5,-5.6,30.11,West,259,5.0,5.0,32,0.00,,BKN230,0.00,VWS V14.01,2013-01-25 21:46:00,
2013-01-25 16:47:00,19.5,-4.9,30.11,WNW,289,2.0,4.0,33,0.00,,SCT040,0.00,VWS V14.01,2013-01-25 21:47:00,
2013-01-25 16:48:00,19.5,-5.6,30.11,West,269,2.0,5.0,32,0.00,,SCT040,0.00,VWS V14.01,2013-01-25 21:48:00,
2013-01-25 16:49:00,19.5,-4.9,30.11,WSW,252,2.0,4.0,33,0.00,,SCT040,0.00,VWS V14.01,2013-01-25 21:49:00,
2013-01-25 16:50:00,19.4,-5.0,30.11,WSW,256,3.0,4.0,33,0.00,,SCT040,0.00,VWS V14.01,2013-01-25 21:50:00,
2013-01-25 16:51:00,19.4,-5.0,30.11,NNW,335,3.0,3.0,33,0.00,,BKN230,0.00,VWS V14.01,2013-01-25 21:51:00,
2013-01-25 16:52:00,19.4,-5.0,30.11,SW,221,3.0,3.0,33,0.00,,SCT040,0.00,VWS V14.01,2013-01-25 21:52:00,
2013-01-25 16:53:00,19.4,-5.0,30.11,West,268,3.0,3.0,33,0.00,,SCT040,0.00,VWS V14.01,2013-01-25 21:53:00,
2013-01-25 16:54:00,19.4,-5.0,30.11,West,270,2.0,3.0,33,0.00,,SCT040,0.00,VWS V14.01,2013-01-25 21:54:00,
2013-01-25 16:55:00,19.4,-5.0,30.11,West,274,1.0,2.0,33,0.00,,SCT040,0.00,VWS V14.01,2013-01-25 21:55:00,
2013-01-25 16:56:00,19.4,-4.4,30.11,WSW,257,1.0,2.0,34,0.00,,SCT040,0.00,VWS V14.01,2013-01-25 21:56:00,
2013-01-25 16:57:00,19.4,-4.4,30.11,WSW,253,2.0,2.0,34,0.00,,BKN230,0.00,VWS V14.01,2013-01-25 21:57:00,
2013-01-25 16:58:00,19.4,-4.4,30.11,WSW,257,1.0,2.0,34,0.00,,SCT040,0.00,VWS V14.01,2013-01-25 21:58:00,
2013-01-25 16:59:00,19.4,-4.4,30.11,South,190,1.0,3.0,34,0.00,,SCT040,0.00,VWS V14.01,2013-01-25 21:59:00,
2013-01-25 17:00:00,19.4,-4.4,30.11,West,277,1.0,2.0,34,0.00,,SCT040,0.00,VWS V14.01,2013-01-25 22:00:00,
2013-01-25 17:01:00,19.4,-4.4,30.11,West,278,0.0,2.0,34,0.00,,SCT040,0.00,VWS V14.01,2013-01-25 22:01:00,
2013-01-25 17:02:00,19.4,-4.4,30.11,WNW,284,0.0,2.0,34,0.00,,BKN230,0.00,VWS V14.01,2013-01-25 22:02:00,
2013-01-25 17:03:00,19.4,-4.4,30.10,West,277,0.0,2.0,34,0.00,,SCT040,0.00,VWS V14.01,2013-01-25 22:03:00,
2013-01-25 17:04:00,19.3,-4.5,30.11,West,273,1.0,2.0,34,0.00,,SCT040,0.00,VWS V14.01,2013-01-25 22:04:00,
2013-01-25 17:05:00,19.4,-4.4,30.11,WNW,302,3.0,4.0,34,0.00,,SCT040,0.00,VWS V14.01,2013-01-25 22:05:00,
2013-01-25 17:06:00,19.4,-4.4,30.11,WSW,243,1.0,3.0,34,0.00,,SCT040,0.00,VWS V14.01,2013-01-25 22:06:00,
2013-01-25 17:07:00,19.3,-4.5,30.11,WSW,238,0.0,4.0,34,0.00,,BKN230,0.00,VWS V14.01,2013-01-25 22:07:00,
2013-01-25 17:08:00,19.3,-4.5,30.10,WSW,238,0.0,4.0,34,0.00,,SCT040,0.00,VWS V14.01,2013-01-25 22:08:00,
2013-01-25 17:09:00,19.3,-3.9,30.10,NNW,327,2.0,3.0,35,0.00,,SCT040,0.00,VWS V14.01,2013-01-25 22:09:00,
2013-01-25 17:10:00,19.3,-4.5,30.10,SW,224,0.0,3.0,34,0.00,,SCT040,0.00,VWS V14.01,2013-01-25 22:10:00,
2013-01-25 17:11:00,19.3,-3.9,30.10,West,271,2.0,2.0,35,0.00,,SCT040,0.00,VWS V14.01,2013-01-25 22:11:00,
2013-01-25 17:12:00,19.3,-3.9,30.11,WSW,250,1.0,3.0,35,0.00,,BKN230,0.00,VWS V14.01,2013-01-25 22:12:00,
2013-01-25 17:13:00,19.3,-3.9,30.10,WSW,250,1.0,3.0,35,0.00,,SCT040,0.00,VWS V14.01,2013-01-25 22:13:00,
2013-01-25 17:14:00,19.3,-3.9,30.10,WSW,245,1.0,1.0,35,0.00,,SCT040,0.00,VWS V14.01,2013-01-25 22:14:00,
2013-01-25 17:15:00,19.3,-3.9,30.10,WSW,240,0.0,2.0,35,0.00,,SCT040,0.00,VWS V14.01,2013-01-25 22:15:00,
2013-01-25 17:16:00,19.3,-3.9,30.10,WSW,243,0.0,0.0,35,0.00,,SCT040,0.00,VWS V14.01,2013-01-25 22:16:00,
2013-01-25 17:17:00,19.2,-4.0,30.11,SW,229,1.0,2.0,35,0.00,,BKN230,0.00,VWS V14.01,2013-01-25 22:17:00,
2013-01-25 17:18:00,19.2,-4.0,30.10,SW,229,1.0,2.0,35,0.00,,SCT040,0.00,VWS V14.01,2013-01-25 22:18:00,
2013-01-25 17:19:00,19.2,-4.0,30.11,NW,305,0.0,1.0,35,0.00,,SCT040,0.00,VWS V14.01,2013-01-25 22:19:00,
2013-01-25 17:20:00,19.2,-4.0,30.11,West,278,0.0,2.0,35,0.00,,SCT040,0.00,VWS V14.01,2013-01-25 22:20:00,
2013-01-25 17:21:00,19.2,-4.0,30.10,West,274,2.0,2.0,35,0.00,,SCT040,0.00,VWS V14.01,2013-01-25 22:21:00,
2013-01-25 17:22:00,19.2,-4.0,30.10,WSW,255,0.0,2.0,35,0.00,,BKN230,0.00,VWS V14.01,2013-01-25 22:22:00,
2013-01-25 17:23:00,19.2,-4.0,30.10,WSW,255,0.0,2.0,35,0.00,,SCT040,0.00,VWS V14.01,2013-01-25 22:23:00,
2013-01-25 17:24:00,19.2,-4.0,30.10,WSW,250,2.0,2.0,35,0.00,,SCT040,0.00,VWS V14.01,2013-01-25 22:24:00,
2013-01-25 17:25:00,19.2,-4.0,30.10,WSW,240,1.0,3.0,35,0.00,,SCT040,0.00,VWS V14.01,2013-01-25 22:25:00,
2013-01-25 17:26:00,19.1,-4.0,30.10,West,262,2.0,2.0,35,0.00,,SCT040,0.00,VWS V14.01,2013-01-25 22:26:00,
2013-01-25 17:27:00,19.1,-4.0,30.10,WSW,243,1.0,2.0,35,0.00,,BKN230,0.00,VWS V14.01,2013-01-25 22:27:00,
2013-01-25 17:28:00,19.1,-4.0,30.10,WSW,243,1.0,2.0,35,0.00,,SCT040,0.00,VWS V14.01,2013-01-25 22:28:00,
2013-01-25 17:29:00,19.1,-4.0,30.10,West,267,1.0,1.0,35,0.00,,SCT040,0.00,VWS V14.01,2013-01-25 22:29:00,
2013-01-25 17:30:00,19.1,-4.0,30.10,WSW,243,1.0,3.0,35,0.00,,SCT040,0.00,VWS V14.01,2013-01-25 22:30:00,
2013-01-25 17:31:00,19.1,-4.0,30.10,SW,221,2.0,2.0,35,0.00,,SCT040,0.00,VWS V14.01,2013-01-25 22:31:00,
2013-01-25 17:32:00,19.1,-4.0,30.10,WSW,257,0.0,1.0,35,0.00,,BKN230,0.00,VWS V14.01,2013-01-25 22:32:00,
2013-01-25 17:33:00,19.1,-4.0,30.10,WSW,257,0.0,1.0,35,0.00,,SCT040,0.00,VWS V14.01,2013-01-25 22:33:00,
2013-01-25 17:34:00,19.0,-4.1,30.10,WSW,253,1.0,3.0,35,0.00,,SCT040,0.00,VWS V14.01,2013-01-25 22:34:00,
2013-01-25 17:35:00,19.1,-4.0,30.10,SW,235,0.0,2.0,35,0.00,,SCT040,0.00,VWS V14.01,2013-01-25 22:35:00,
2013-01-25 17:36:00,19.0,-4.1,30.10,West,278,1.0,1.0,35,0.00,,SCT040,0.00,VWS V14.01,2013-01-25 22:36:00,
2013-01-25 17:37:00,19.0,-4.1,30.10,West,271,1.0,1.0,35,0.00,,BKN250,0.00,VWS V14.01,2013-01-25 22:37:00,
2013-01-25 17:38:00,19.0,-4.1,30.10,West,271,1.0,1.0,35,0.00,,SCT040,0.00,VWS V14.01,2013-01-25 22:38:00,
2013-01-25 17:39:00,19.0,-4.1,30.10,West,260,2.0,4.0,35,0.00,,SCT040,0.00,VWS V14.01,2013-01-25 22:39:00,
2013-01-25 17:40:00,19.0,-4.1,30.11,West,277,0.0,2.0,35,0.00,,SCT040,0.00,VWS V14.01,2013-01-25 22:40:00,
2013-01-25 17:41:00,19.0,-4.1,30.11,WSW,255,3.0,3.0,35,0.00,,SCT040,0.00,VWS V14.01,2013-01-25 22:41:00,
2013-01-25 17:42:00,19.0,-4.1,30.11,WSW,252,1.0,3.0,35,0.00,,BKN250,0.00,VWS V14.01,2013-01-25 22:42:00,
2013-01-25 17:43:00,19.0,-4.1,30.11,WSW,252,1.0,3.0,35,0.00,,SCT040,0.00,VWS V14.01,2013-01-25 22:43:00,
2013-01-25 17:44:00,19.0,-4.1,30.11,West,260,0.0,2.0,35,0.00,,SCT040,0.00,VWS V14.01,2013-01-25 22:44:00,
2013-01-25 17:45:00,18.9,-4.2,30.11,WSW,250,4.0,4.0,35,0.00,,SCT040,0.00,VWS V14.01,2013-01-25 22:45:00,
2013-01-25 17:46:00,18.9,-4.8,30.11,WNW,287,0.0,4.0,34,0.00,,SCT040,0.00,VWS V14.01,2013-01-25 22:46:00,
2013-01-25 17:47:00,18.9,-4.2,30.11,West,269,1.0,2.0,35,0.00,,BKN250,0.00,VWS V14.01,2013-01-25 22:47:00,
2013-01-25 17:48:00,18.9,-4.2,30.11,West,269,1.0,2.0,35,0.00,,SCT040,0.00,VWS V14.01,2013-01-25 22:48:00,
2013-01-25 17:49:00,18.9,-4.2,30.11,West,259,0.0,1.0,35,0.00,,SCT040,0.00,VWS V14.01,2013-01-25 22:49:00,
2013-01-25 17:50:00,18.8,-4.3,30.10,SW,219,1.0,2.0,35,0.00,,SCT040,0.00,VWS V14.01,2013-01-25 22:50:00,
2013-01-25 17:51:00,18.8,-4.3,30.10,SW,229,0.0,1.0,35,0.00,,SCT040,0.00,VWS V14.01,2013-01-25 22:51:00,
2013-01-25 17:52:00,18.8,-4.3,30.11,WNW,283,0.0,2.0,35,0.00,,BKN250,0.00,VWS V14.01,2013-01-25 22:52:00,
2013-01-25 17:53:00,18.8,-4.3,30.11,WNW,283,0.0,2.0,35,0.00,,SCT040,0.00,VWS V14.01,2013-01-25 22:53:00,
2013-01-25 17:54:00,18.8,-4.3,30.10,West,280,0.0,2.0,35,0.00,,SCT040,0.00,VWS V14.01,2013-01-25 22:54:00,
2013-01-25 17:55:00,18.8,-4.3,30.11,West,276,1.0,3.0,35,0.00,,SCT040,0.00,VWS V14.01,2013-01-25 22:55:00,
2013-01-25 17:56:00,18.8,-4.3,30.10,WSW,252,0.0,1.0,35,0.00,,SCT040,0.00,VWS V14.01,2013-01-25 22:56:00,
2013-01-25 17:57:00,18.7,-4.4,30.10,WNW,292,0.0,2.0,35,0.00,,BKN250,0.00,VWS V14.01,2013-01-25 22:57:00,
2013-01-25 17:58:00,18.7,-4.4,30.10,WNW,292,0.0,2.0,35,0.00,,SCT040,0.00,VWS V14.01,2013-01-25 22:58:00,
2013-01-25 17:59:00,18.7,-4.4,30.10,SSW,201,1.0,2.0,35,0.00,,SCT040,0.00,VWS V14.01,2013-01-25 22:59:00,
2013-01-25 18:00:00,18.7,-4.4,30.10,WNW,292,0.0,1.0,35,0.00,,SCT040,0.00,VWS V14.01,2013-01-25 23:00:00,
2013-01-25 18:01:00,18.7,-3.8,30.10,WNW,291,0.0,0.0,36,0.00,,SCT040,0.00,VWS V14.01,2013-01-25 23:01:00,
2013-01-25 18:02:00,18.6,-3.9,30.11,SW,234,0.0,1.0,36,0.00,,BKN250,0.00,VWS V14.01,2013-01-25 23:02:00,
2013-01-25 18:03:00,18.6,-3.9,30.11,SW,234,0.0,1.0,36,0.00,,SCT040,0.00,VWS V14.01,2013-01-25 23:03:00,
2013-01-25 18:04:00,18.6,-3.9,30.11,WSW,250,0.0,1.0,36,0.00,,SCT040,0.00,VWS V14.01,2013-01-25 23:04:00,
2013-01-25 18:05:00,18.6,-3.9,30.11,WSW,240,1.0,1.0,36,0.00,,SCT040,0.00,VWS V14.01,2013-01-25 23:05:00,
2013-01-25 18:06:00,18.6,-3.9,30.11,SW,229,1.0,2.0,36,0.00,,SCT040,0.00,VWS V14.01,2013-01-25 23:06:00,
2013-01-25 18:07:00,18.6,-3.3,30.11,East,88,1.0,1.0,37,0.00,,BKN250,0.00,VWS V14.01,2013-01-25 23:07:00,
2013-01-25 18:08:00,18.6,-3.3,30.11,East,88,1.0,1.0,37,0.00,,SCT040,0.00,VWS V14.01,2013-01-25 23:08:00,
2013-01-25 18:09:00,18.6,-3.9,30.11,SSW,207,1.0,2.0,36,0.00,,SCT040,0.00,VWS V14.01,2013-01-25 23:09:00,
2013-01-25 18:10:00,18.6,-3.9,30.11,WSW,245,0.0,2.0,36,0.00,,SCT040,0.00,VWS V14.01,2013-01-25 23:10:00,
2013-01-25 18:11:00,18.6,-3.9,30.11,East,95,1.0,1.0,36,0.00,,SCT040,0.00,VWS V14.01,2013-01-25 23:11:00,
2013-01-25 18:12:00,18.6,-3.9,30.11,NNW,335,2.0,4.0,36,0.00,,BKN250,0.00,VWS V14.01,2013-01-25 23:12:00,
2013-01-25 18:13:00,18.6,-3.9,30.11,NNW,335,2.0,4.0,36,0.00,,SCT040,0.00,VWS V14.01,2013-01-25 23:13:00,
2013-01-25 18:14:00,18.6,-3.9,30.11,West,259,2.0,2.0,36,0.00,,SCT040,0.00,VWS V14.01,2013-01-25 23:14:00,
2013-01-25 18:15:00,18.6,-3.9,30.11,WSW,245,4.0,4.0,36,0.00,,SCT040,0.00,VWS V14.01,2013-01-25 23:15:00,
2013-01-25 18:16:00,18.6,-3.9,30.11,SW,224,1.0,4.0,36,0.00,,SCT040,0.00,VWS V14.01,2013-01-25 23:16:00,
2013-01-25 18:17:00,18.6,-4.5,30.11,WSW,243,0.0,2.0,35,0.00,,BKN250,0.00,VWS V14.01,2013-01-25 23:17:00,
2013-01-25 18:18:00,18.6,-4.5,30.11,WSW,243,0.0,2.0,35,0.00,,SCT040,0.00,VWS V14.01,2013-01-25 23:18:00,
2013-01-25 18:19:00,18.6,-3.9,30.11,WNW,287,1.0,2.0,36,0.00,,SCT040,0.00,VWS V14.01,2013-01-25 23:19:00,
2013-01-25 18:20:00,18.6,-3.9,30.11,East,98,2.0,3.0,36,0.00,,SCT040,0.00,VWS V14.01,2013-01-25 23:20:00,
2013-01-25 18:21:00,18.7,-3.8,30.11,SW,228,1.0,2.0,36,0.00,,SCT040,0.00,VWS V14.01,2013-01-25 23:21:00,
2013-01-25 18:22:00,18.7,-3.8,30.11,SSW,204,1.0,5.0,36,0.00,,BKN250,0.00,VWS V14.01,2013-01-25 23:22:00,
2013-01-25 18:23:00,18.7,-3.8,30.11,SSW,204,1.0,5.0,36,0.00,,SCT040,0.00,VWS V14.01,2013-01-25 23:23:00,
2013-01-25 18:24:00,18.7,-3.8,30.11,West,264,1.0,1.0,36,0.00,,SCT040,0.00,VWS V14.01,2013-01-25 23:24:00,
2013-01-25 18:25:00,18.7,-3.8,30.11,West,277,2.0,4.0,36,0.00,,SCT040,0.00,VWS V14.01,2013-01-25 23:25:00,
2013-01-25 18:26:00,18.7,-3.8,30.11,WSW,257,2.0,3.0,36,0.00,,SCT040,0.00,VWS V14.01,2013-01-25 23:26:00,
2013-01-25 18:27:00,18.7,-4.4,30.11,WSW,256,1.0,1.0,35,0.00,,BKN250,0.00,VWS V14.01,2013-01-25 23:27:00,
2013-01-25 18:28:00,18.7,-4.4,30.11,WSW,256,1.0,1.0,35,0.00,,SCT040,0.00,VWS V14.01,2013-01-25 23:28:00,
2013-01-25 18:29:00,18.7,-3.8,30.10,WSW,257,0.0,1.0,36,0.00,,SCT040,0.00,VWS V14.01,2013-01-25 23:29:00,
2013-01-25 18:30:00,18.7,-3.8,30.10,WSW,255,0.0,2.0,36,0.00,,SCT040,0.00,VWS V14.01,2013-01-25 23:30:00,
2013-01-25 18:31:00,18.8,-4.3,30.10,WSW,252,2.0,3.0,35,0.00,,SCT040,0.00,VWS V14.01,2013-01-25 23:31:00,
2013-01-25 18:32:00,18.8,-4.3,30.10,West,276,1.0,3.0,35,0.00,,BKN250,0.00,VWS V14.01,2013-01-25 23:32:00,
2013-01-25 18:33:00,18.8,-4.3,30.10,West,276,1.0,3.0,35,0.00,,SCT040,0.00,VWS V14.01,2013-01-25 23:33:00,
2013-01-25 18:34:00,18.7,-4.4,30.10,West,266,0.0,2.0,35,0.00,,SCT040,0.00,VWS V14.01,2013-01-25 23:34:00,
2013-01-25 18:35:00,18.7,-3.8,30.10,NNW,330,0.0,0.0,36,0.00,,SCT040,0.00,VWS V14.01,2013-01-25 23:35:00,
2013-01-25 18:36:00,18.8,-3.7,30.10,North,8,2.0,2.0,36,0.00,,SCT040,0.00,VWS V14.01,2013-01-25 23:36:00,
2013-01-25 18:37:00,18.7,-3.8,30.10,SSW,193,0.0,2.0,36,0.00,,BKN250,0.00,VWS V14.01,2013-01-25 23:37:00,
2013-01-25 18:38:00,18.7,-3.8,30.10,SSW,193,0.0,2.0,36,0.00,,SCT040,0.00,VWS V14.01,2013-01-25 23:38:00,
2013-01-25 18:39:00,18.8,-3.7,30.10,WNW,284,3.0,4.0,36,0.00,,SCT040,0.00,VWS V14.01,2013-01-25 23:39:00,
2013-01-25 18:40:00,18.8,-3.7,30.10,WSW,250,2.0,3.0,36,0.00,,SCT040,0.00,VWS V14.01,2013-01-25 23:40:00,
2013-01-25 18:41:00,18.8,-3.7,30.10,WSW,257,1.0,4.0,36,0.00,,SCT040,0.00,VWS V14.01,2013-01-25 23:41:00,
2013-01-25 18:42:00,18.8,-3.7,30.10,NW,311,1.0,1.0,36,0.00,,BKN250,0.00,VWS V14.01,2013-01-25 23:42:00,
2013-01-25 18:43:00,18.8,-3.7,30.10,NW,311,1.0,1.0,36,0.00,,SCT040,0.00,VWS V14.01,2013-01-25 23:43:00,
2013-01-25 18:44:00,18.8,-3.7,30.10,NW,315,1.0,3.0,36,0.00,,SCT040,0.00,VWS V14.01,2013-01-25 23:44:00,
2013-01-25 18:45:00,18.8,-3.7,30.10,WSW,253,0.0,2.0,36,0.00,,SCT040,0.00,VWS V14.01,2013-01-25 23:45:00,
2013-01-25 18:46:00,18.8,-3.7,30.10,WSW,248,0.0,1.0,36,0.00,,SCT040,0.00,VWS V14.01,2013-01-25 23:46:00,
2013-01-25 18:47:00,18.7,-3.8,30.09,WSW,257,4.0,4.0,36,0.00,,BKN250,0.00,VWS V14.01,2013-01-25 23:47:00,
2013-01-25 18:48:00,18.7,-3.8,30.09,WSW,257,4.0,4.0,36,0.00,,SCT040,0.00,VWS V14.01,2013-01-25 23:48:00,
2013-01-25 18:49:00,18.7,-4.4,30.10,West,262,1.0,4.0,35,0.00,,SCT040,0.00,VWS V14.01,2013-01-25 23:49:00,
2013-01-25 18:50:00,18.7,-4.4,30.09,WSW,256,1.0,3.0,35,0.00,,SCT040,0.00,VWS V14.01,2013-01-25 23:50:00,
2013-01-25 18:51:00,18.7,-4.4,30.09,WSW,238,1.0,1.0,35,0.00,,SCT040,0.00,VWS V14.01,2013-01-25 23:51:00,
2013-01-25 18:52:00,18.7,-4.4,30.09,North,8,1.0,5.0,35,0.00,,BKN250,0.00,VWS V14.01,2013-01-25 23:52:00,
2013-01-25 18:53:00,18.7,-4.4,30.09,North,8,1.0,5.0,35,0.00,,SCT040,0.00,VWS V14.01,2013-01-25 23:53:00,
2013-01-25 18:54:00,18.6,-4.5,30.09,WSW,250,2.0,2.0,35,0.00,,SCT040,0.00,VWS V14.01,2013-01-25 23:54:00,
2013-01-25 18:55:00,18.6,-4.5,30.09,West,263,4.0,7.0,35,0.00,,SCT040,0.00,VWS V14.01,2013-01-25 23:55:00,
2013-01-25 18:56:00,18.6,-4.5,30.09,West,263,1.0,4.0,35,0.00,,SCT040,0.00,VWS V14.01,2013-01-25 23:56:00,
2013-01-25 18:57:00,18.6,-4.5,30.09,NW,311,2.0,6.0,35,0.00,,BKN250,0.00,VWS V14.01,2013-01-25 23:57:00,
2013-01-25 18:58:00,18.6,-4.5,30.09,NW,311,2.0,6.0,35,0.00,,SCT040,0.00,VWS V14.01,2013-01-25 23:58:00,
2013-01-25 18:59:00,18.6,-4.5,30.09,West,270,2.0,5.0,35,0.00,,SCT040,0.00,VWS V14.01,2013-01-25 23:59:00,
2013-01-25 19:00:00,18.6,-4.5,30.09,WNW,287,2.0,2.0,35,0.00,,SCT040,0.00,VWS V14.01,2013-01-26 00:00:00,
2013-01-25 19:01:00,18.6,-4.5,30.09,WSW,246,2.0,3.0,35,0.00,,SCT040,0.00,VWS V14.01,2013-01-26 00:01:00,
2013-01-25 19:02:00,18.5,-4.0,30.09,WSW,255,0.0,1.0,36,0.00,,BKN250,0.00,VWS V14.01,2013-01-26 00:02:00,
2013-01-25 19:03:00,18.5,-4.0,30.09,WSW,255,0.0,1.0,36,0.00,,SCT040,0.00,VWS V14.01,2013-01-26 00:03:00,
2013-01-25 19:04:00,18.6,-3.9,30.09,South,186,1.0,1.0,36,0.00,,SCT040,0.00,VWS V14.01,2013-01-26 00:04:00,
2013-01-25 19:05:00,18.6,-3.3,30.09,WSW,255,4.0,4.0,37,0.00,,SCT040,0.00,VWS V14.01,2013-01-26 00:05:00,
2013-01-25 19:06:00,18.5,-4.0,30.09,NW,314,1.0,3.0,36,0.00,,SCT040,0.00,VWS V14.01,2013-01-26 00:06:00,
2013-01-25 19:07:00,18.5,-3.4,30.08,WSW,243,2.0,4.0,37,0.00,,BKN250,0.00,VWS V14.01,2013-01-26 00:07:00,
2013-01-25 19:08:00,18.5,-3.4,30.08,WSW,243,2.0,4.0,37,0.00,,SCT040,0.00,VWS V14.01,2013-01-26 00:08:00,
2013-01-25 19:09:00,18.5,-4.0,30.09,NNW,341,4.0,4.0,36,0.00,,SCT040,0.00,VWS V14.01,2013-01-26 00:09:00,
2013-01-25 19:10:00,18.5,-4.0,30.09,West,264,1.0,4.0,36,0.00,,SCT040,0.00,VWS V14.01,2013-01-26 00:10:00,
2013-01-25 19:11:00,18.5,-4.0,30.09,West,259,0.0,2.0,36,0.00,,SCT040,0.00,VWS V14.01,2013-01-26 00:11:00,
2013-01-25 19:12:00,18.5,-4.0,30.08,WSW,256,1.0,1.0,36,0.00,,BKN250,0.00,VWS V14.01,2013-01-26 00:12:00,
2013-01-25 19:13:00,18.5,-4.0,30.09,WSW,256,1.0,1.0,36,0.00,,SCT040,0.00,VWS V14.01,2013-01-26 00:13:00,
2013-01-25 19:14:00,18.5,-4.0,30.08,WSW,253,0.0,1.0,36,0.00,,SCT040,0.00,VWS V14.01,2013-01-26 00:14:00,
2013-01-25 19:15:00,18.5,-3.4,30.08,West,267,1.0,1.0,37,0.00,,SCT040,0.00,VWS V14.01,2013-01-26 00:15:00,
2013-01-25 19:16:00,18.5,-4.0,30.08,West,259,1.0,3.0,36,0.00,,SCT040,0.00,VWS V14.01,2013-01-26 00:16:00,
2013-01-25 19:17:00,18.4,-4.1,30.08,WSW,250,0.0,2.0,36,0.00,,BKN250,0.00,VWS V14.01,2013-01-26 00:17:00,
2013-01-25 19:18:00,18.4,-4.1,30.08,WSW,250,0.0,2.0,36,0.00,,SCT040,0.00,VWS V14.01,2013-01-26 00:18:00,
2013-01-25 19:19:00,18.4,-4.1,30.08,WSW,252,0.0,1.0,36,0.00,,SCT040,0.00,VWS V14.01,2013-01-26 00:19:00,
2013-01-25 19:20:00,18.4,-4.1,30.08,WSW,252,0.0,0.0,36,0.00,,SCT040,0.00,VWS V14.01,2013-01-26 00:20:00,
2013-01-25 19:21:00,18.4,-4.1,30.08,WNW,284,0.0,2.0,36,0.00,,SCT040,0.00,VWS V14.01,2013-01-26 00:21:00,
2013-01-25 19:22:00,18.5,-3.4,30.08,East,88,0.0,2.0,37,0.00,,BKN250,0.00,VWS V14.01,2013-01-26 00:22:00,
2013-01-25 19:23:00,18.5,-3.4,30.08,East,88,0.0,2.0,37,0.00,,SCT040,0.00,VWS V14.01,2013-01-26 00:23:00,
2013-01-25 19:24:00,18.5,-3.4,30.08,SW,235,2.0,3.0,37,0.00,,SCT040,0.00,VWS V14.01,2013-01-26 00:24:00,
2013-01-25 19:25:00,18.4,-3.5,30.08,WSW,253,1.0,3.0,37,0.00,,SCT040,0.00,VWS V14.01,2013-01-26 00:25:00,
2013-01-25 19:26:00,18.5,-3.4,30.08,WSW,250,0.0,2.0,37,0.00,,SCT040,0.00,VWS V14.01,2013-01-26 00:26:00,
2013-01-25 19:27:00,18.4,-3.5,30.08,WSW,250,0.0,1.0,37,0.00,,BKN250,0.00,VWS V14.01,2013-01-26 00:27:00,
2013-01-25 19:28:00,18.4,-3.5,30.08,WSW,250,0.0,1.0,37,0.00,,SCT040,0.00,VWS V14.01,2013-01-26 00:28:00,
2013-01-25 19:29:00,18.5,-3.4,30.08,NW,311,1.0,1.0,37,0.00,,SCT040,0.00,VWS V14.01,2013-01-26 00:29:00,
2013-01-25 19:30:00,18.4,-3.5,30.08,WSW,238,1.0,2.0,37,0.00,,SCT040,0.00,VWS V14.01,2013-01-26 00:30:00,
2013-01-25 19:31:00,18.4,-3.5,30.08,NW,322,1.0,2.0,37,0.00,,SCT040,0.00,VWS V14.01,2013-01-26 00:31:00,
2013-01-25 19:32:00,18.3,-3.6,30.08,West,264,1.0,1.0,37,0.00,,BKN250,0.00,VWS V14.01,2013-01-26 00:32:00,
2013-01-25 19:33:00,18.3,-3.6,30.08,West,264,1.0,1.0,37,0.00,,SCT040,0.00,VWS V14.01,2013-01-26 00:33:00,
2013-01-25 19:34:00,18.3,-3.6,30.08,WSW,243,0.0,1.0,37,0.00,,SCT040,0.00,VWS V14.01,2013-01-26 00:34:00,
2013-01-25 19:35:00,18.3,-3.6,30.08,WSW,245,0.0,1.0,37,0.00,,SCT040,0.00,VWS V14.01,2013-01-26 00:35:00,
2013-01-25 19:36:00,18.3,-3.6,30.08,WSW,257,0.0,1.0,37,0.00,,SCT040,0.00,VWS V14.01,2013-01-26 00:36:00,
2013-01-25 19:37:00,18.3,-3.6,30.08,West,268,0.0,2.0,37,0.00,,BKN250,0.00,VWS V14.01,2013-01-26 00:37:00,
2013-01-25 19:38:00,18.3,-3.6,30.08,West,268,0.0,2.0,37,0.00,,SCT040,0.00,VWS V14.01,2013-01-26 00:38:00,
2013-01-25 19:39:00,18.3,-3.6,30.08,West,262,0.0,2.0,37,0.00,,SCT040,0.00,VWS V14.01,2013-01-26 00:39:00,
2013-01-25 19:40:00,18.3,-3.6,30.07,WNW,302,2.0,2.0,37,0.00,,SCT040,0.00,VWS V14.01,2013-01-26 00:40:00,
2013-01-25 19:41:00,18.3,-3.6,30.07,NW,311,1.0,3.0,37,0.00,,SCT040,0.00,VWS V14.01,2013-01-26 00:41:00,
2013-01-25 19:42:00,18.3,-3.6,30.08,West,260,0.0,1.0,37,0.00,,BKN250,0.00,VWS V14.01,2013-01-26 00:42:00,
2013-01-25 19:43:00,18.3,-3.6,30.07,West,260,0.0,1.0,37,0.00,,SCT040,0.00,VWS V14.01,2013-01-26 00:43:00,
2013-01-25 19:44:00,18.3,-3.6,30.08,WSW,243,0.0,0.0,37,0.00,,SCT040,0.00,VWS V14.01,2013-01-26 00:44:00,
2013-01-25 19:45:00,18.3,-3.0,30.07,WSW,248,1.0,1.0,38,0.00,,SCT040,0.00,VWS V14.01,2013-01-26 00:45:00,
2013-01-25 19:46:00,18.3,-3.0,30.07,WSW,248,0.0,1.0,38,0.00,,SCT040,0.00,VWS V14.01,2013-01-26 00:46:00,
2013-01-25 19:47:00,18.3,-3.6,30.07,West,259,0.0,1.0,37,0.00,,BKN250,0.00,VWS V14.01,2013-01-26 00:47:00,
2013-01-25 19:48:00,18.3,-3.6,30.07,West,259,0.0,1.0,37,0.00,,SCT040,0.00,VWS V14.01,2013-01-26 00:48:00,
2013-01-25 19:49:00,18.3,-3.6,30.07,West,260,0.0,2.0,37,0.00,,SCT040,0.00,VWS V14.01,2013-01-26 00:49:00,
2013-01-25 19:50:00,18.3,-3.6,30.07,WSW,257,2.0,3.0,37,0.00,,SCT040,0.00,VWS V14.01,2013-01-26 00:50:00,
2013-01-25 19:51:00,18.3,-3.6,30.07,NW,314,0.0,2.0,37,0.00,,SCT040,0.00,VWS V14.01,2013-01-26 00:51:00,
2013-01-25 19:52:00,18.3,-3.0,30.08,WSW,253,0.0,3.0,38,0.00,,BKN250,0.00,VWS V14.01,2013-01-26 00:52:00,
2013-01-25 19:53:00,18.3,-3.0,30.08,WSW,253,0.0,3.0,38,0.00,,SCT040,0.00,VWS V14.01,2013-01-26 00:53:00,
2013-01-25 19:54:00,18.3,-3.0,30.08,WSW,240,1.0,2.0,38,0.00,,SCT040,0.00,VWS V14.01,2013-01-26 00:54:00,
2013-01-25 19:55:00,18.3,-3.0,30.08,West,260,3.0,4.0,38,0.00,,SCT040,0.00,VWS V14.01,2013-01-26 00:55:00,
2013-01-25 19:56:00,18.3,-3.6,30.08,WSW,256,1.0,3.0,37,0.00,,SCT040,0.00,VWS V14.01,2013-01-26 00:56:00,
2013-01-25 19:57:00,18.3,-3.6,30.08,WSW,245,0.0,1.0,37,0.00,,BKN250,0.00,VWS V14.01,2013-01-26 00:57:00,
2013-01-25 19:58:00,18.3,-3.6,30.08,WSW,245,0.0,1.0,37,0.00,,SCT040,0.00,VWS V14.01,2013-01-26 00:58:00,
2013-01-25 19:59:00,18.3,-3.0,30.08,WSW,245,0.0,0.0,38,0.00,,SCT040,0.00,VWS V14.01,2013-01-26 00:59:00,
2013-01-25 20:00:00,18.3,-3.0,30.08,WSW,245,0.0,0.0,38,0.00,,SCT040,0.00,VWS V14.01,2013-01-26 01:00:00,
2013-01-25 20:02:00,18.3,-3.6,30.08,West,270,1.0,2.0,37,0.00,,BKN250,0.00,VWS V14.01,2013-01-26 01:02:00,
2013-01-25 20:03:00,18.3,-3.6,30.07,West,270,1.0,2.0,37,0.00,,SCT040,0.00,VWS V14.01,2013-01-26 01:03:00,
2013-01-25 20:04:00,18.3,-3.6,30.07,WSW,256,0.0,1.0,37,0.00,,SCT040,0.00,VWS V14.01,2013-01-26 01:04:00,
2013-01-25 20:05:00,18.2,-3.1,30.08,WSW,255,1.0,1.0,38,0.00,,SCT040,0.00,VWS V14.01,2013-01-26 01:05:00,
2013-01-25 20:06:00,18.2,-3.7,30.07,West,271,1.0,2.0,37,0.00,,SCT040,0.00,VWS V14.01,2013-01-26 01:06:00,
2013-01-25 20:07:00,18.2,-3.7,30.07,WSW,252,2.0,4.0,37,0.00,,BKN250,0.00,VWS V14.01,2013-01-26 01:07:00,
2013-01-25 20:08:00,18.2,-3.7,30.07,WSW,252,2.0,4.0,37,0.00,,SCT040,0.00,VWS V14.01,2013-01-26 01:08:00,
2013-01-25 20:09:00,18.2,-3.7,30.07,West,260,1.0,2.0,37,0.00,,SCT040,0.00,VWS V14.01,2013-01-26 01:09:00,
2013-01-25 20:10:00,18.2,-3.7,30.07,WSW,250,1.0,1.0,37,0.00,,SCT040,0.00,VWS V14.01,2013-01-26 01:10:00,
2013-01-25 20:11:00,18.2,-3.1,30.08,WNW,302,1.0,2.0,38,0.00,,SCT040,0.00,VWS V14.01,2013-01-26 01:11:00,
2013-01-25 20:12:00,18.2,-3.7,30.08,WSW,250,2.0,3.0,37,0.00,,BKN250,0.00,VWS V14.01,2013-01-26 01:12:00,
2013-01-25 20:13:00,18.2,-3.7,30.08,WSW,250,2.0,3.0,37,0.00,,SCT040,0.00,VWS V14.01,2013-01-26 01:13:00,
2013-01-25 20:14:00,18.2,-3.7,30.08,WSW,250,0.0,2.0,37,0.00,,SCT040,0.00,VWS V14.01,2013-01-26 01:14:00,
2013-01-25 20:15:00,18.2,-3.7,30.08,West,264,0.0,1.0,37,0.00,,SCT040,0.00,VWS V14.01,2013-01-26 01:15:00,
2013-01-25 20:16:00,18.2,-3.1,30.08,West,266,1.0,1.0,38,0.00,,SCT040,0.00,VWS V14.01,2013-01-26 01:16:00,
2013-01-25 20:17:00,18.3,-3.0,30.08,SW,228,1.0,1.0,38,0.00,,BKN250,0.00,VWS V14.01,2013-01-26 01:17:00,
2013-01-25 20:18:00,18.3,-3.0,30.08,SW,228,1.0,1.0,38,0.00,,SCT040,0.00,VWS V14.01,2013-01-26 01:18:00,
2013-01-25 20:19:00,18.2,-3.1,30.08,WSW,240,0.0,3.0,38,0.00,,SCT040,0.00,VWS V14.01,2013-01-26 01:19:00,
2013-01-25 20:20:00,18.3,-3.0,30.08,West,259,1.0,2.0,38,0.00,,SCT040,0.00,VWS V14.01,2013-01-26 01:20:00,
2013-01-25 20:21:00,18.2,-3.1,30.08,WSW,238,0.0,2.0,38,0.00,,SCT040,0.00,VWS V14.01,2013-01-26 01:21:00,
2013-01-25 20:22:00,18.3,-3.0,30.08,WSW,240,0.0,2.0,38,0.00,,BKN250,0.00,VWS V14.01,2013-01-26 01:22:00,
2013-01-25 20:23:00,18.3,-3.0,30.08,WSW,240,0.0,2.0,38,0.00,,SCT040,0.00,VWS V14.01,2013-01-26 01:23:00,
2013-01-25 20:24:00,18.3,-3.0,30.08,SSW,203,3.0,3.0,38,0.00,,SCT040,0.00,VWS V14.01,2013-01-26 01:24:00,
2013-01-25 20:25:00,18.3,-3.0,30.08,SW,229,1.0,4.0,38,0.00,,SCT040,0.00,VWS V14.01,2013-01-26 01:25:00,
2013-01-25 20:26:00,18.3,-3.0,30.08,WNW,285,0.0,2.0,38,0.00,,SCT040,0.00,VWS V14.01,2013-01-26 01:26:00,
2013-01-25 20:27:00,18.3,-3.6,30.08,WSW,252,0.0,2.0,37,0.00,,BKN250,0.00,VWS V14.01,2013-01-26 01:27:00,
2013-01-25 20:28:00,18.3,-3.6,30.08,WSW,252,0.0,2.0,37,0.00,,SCT040,0.00,VWS V14.01,2013-01-26 01:28:00,
2013-01-25 20:29:00,18.3,-3.0,30.08,WSW,256,1.0,2.0,38,0.00,,SCT040,0.00,VWS V14.01,2013-01-26 01:29:00,
2013-01-25 20:30:00,18.3,-3.0,30.08,WSW,253,1.0,2.0,38,0.00,,SCT040,0.00,VWS V14.01,2013-01-26 01:30:00,
2013-01-25 20:31:00,18.3,-3.0,30.08,WSW,257,1.0,1.0,38,0.00,,SCT040,0.00,VWS V14.01,2013-01-26 01:31:00,
2013-01-25 20:32:00,18.3,-3.0,30.08,WSW,257,0.0,1.0,38,0.00,,BKN250,0.00,VWS V14.01,2013-01-26 01:32:00,
2013-01-25 20:33:00,18.3,-3.0,30.07,WSW,257,0.0,1.0,38,0.00,,SCT040,0.00,VWS V14.01,2013-01-26 01:33:00,
2013-01-25 20:34:00,18.2,-3.1,30.08,WSW,257,0.0,0.0,38,0.00,,SCT040,0.00,VWS V14.01,2013-01-26 01:34:00,
2013-01-25 20:35:00,18.3,-3.0,30.07,SE,125,0.0,1.0,38,0.00,,SCT040,0.00,VWS V14.01,2013-01-26 01:35:00,
2013-01-25 20:36:00,18.3,-3.0,30.07,SW,215,1.0,1.0,38,0.00,,SCT040,0.00,VWS V14.01,2013-01-26 01:36:00,
2013-01-25 20:37:00,18.3,-3.0,30.07,WSW,255,0.0,1.0,38,0.00,,OVC250,0.00,VWS V14.01,2013-01-26 01:37:00,
2013-01-25 20:38:00,18.3,-3.0,30.07,WSW,255,0.0,1.0,38,0.00,,SCT040,0.00,VWS V14.01,2013-01-26 01:38:00,
2013-01-25 20:39:00,18.3,-3.0,30.07,WSW,255,0.0,0.0,38,0.00,,SCT040,0.00,VWS V14.01,2013-01-26 01:39:00,
2013-01-25 20:40:00,18.3,-2.5,30.07,WSW,255,0.0,0.0,39,0.00,,SCT040,0.00,VWS V14.01,2013-01-26 01:40:00,
2013-01-25 20:41:00,18.4,-3.0,30.07,WSW,257,0.0,1.0,38,0.00,,SCT040,0.00,VWS V14.01,2013-01-26 01:41:00,
2013-01-25 20:42:00,18.3,-3.0,30.07,West,267,0.0,1.0,38,0.00,,OVC250,0.00,VWS V14.01,2013-01-26 01:42:00,
2013-01-25 20:43:00,18.3,-3.0,30.07,West,267,0.0,1.0,38,0.00,,SCT040,0.00,VWS V14.01,2013-01-26 01:43:00,
2013-01-25 20:44:00,18.3,-3.0,30.07,West,266,0.0,1.0,38,0.00,,SCT040,0.00,VWS V14.01,2013-01-26 01:44:00,
2013-01-25 20:45:00,18.3,-3.0,30.07,West,266,0.0,0.0,38,0.00,,SCT040,0.00,VWS V14.01,2013-01-26 01:45:00,
2013-01-25 20:46:00,18.3,-3.0,30.07,West,267,0.0,0.0,38,0.00,,SCT040,0.00,VWS V14.01,2013-01-26 01:46:00,
2013-01-25 20:47:00,18.3,-3.0,30.07,WSW,250,1.0,1.0,38,0.00,,OVC250,0.00,VWS V14.01,2013-01-26 01:47:00,
2013-01-25 20:48:00,18.3,-3.0,30.07,WSW,250,1.0,1.0,38,0.00,,SCT040,0.00,VWS V14.01,2013-01-26 01:48:00,
2013-01-25 20:49:00,18.3,-3.0,30.07,WSW,250,0.0,1.0,38,0.00,,SCT040,0.00,VWS V14.01,2013-01-26 01:49:00,
2013-01-25 20:50:00,18.3,-3.0,30.07,WSW,250,0.0,0.0,38,0.00,,SCT040,0.00,VWS V14.01,2013-01-26 01:50:00,
2013-01-25 20:51:00,18.3,-3.0,30.07,WSW,240,1.0,1.0,38,0.00,,SCT040,0.00,VWS V14.01,2013-01-26 01:51:00,
2013-01-25 20:52:00,18.3,-3.0,30.07,WSW,254,0.0,0.0,38,0.00,,OVC250,0.00,VWS V14.01,2013-01-26 01:52:00,
2013-01-25 20:53:00,18.3,-3.0,30.07,WSW,254,0.0,0.0,38,0.00,,SCT040,0.00,VWS V14.01,2013-01-26 01:53:00,
2013-01-25 20:54:00,18.3,-3.0,30.07,WSW,255,0.0,1.0,38,0.00,,SCT040,0.00,VWS V14.01,2013-01-26 01:54:00,
2013-01-25 20:55:00,18.3,-3.0,30.07,WSW,255,0.0,1.0,38,0.00,,SCT040,0.00,VWS V14.01,2013-01-26 01:55:00,
2013-01-25 20:56:00,18.3,-3.0,30.06,WSW,255,0.0,1.0,38,0.00,,SCT040,0.00,VWS V14.01,2013-01-26 01:56:00,
2013-01-25 20:57:00,18.3,-3.0,30.07,WSW,255,0.0,0.0,38,0.00,,OVC250,0.00,VWS V14.01,2013-01-26 01:57:00,
2013-01-25 20:58:00,18.3,-3.0,30.06,WSW,255,0.0,0.0,38,0.00,,SCT040,0.00,VWS V14.01,2013-01-26 01:58:00,
2013-01-25 20:59:00,18.3,-3.0,30.06,WSW,255,0.0,0.0,38,0.00,,SCT040,0.00,VWS V14.01,2013-01-26 01:59:00,
2013-01-25 21:00:00,18.3,-2.5,30.06,WSW,255,0.0,0.0,39,0.00,,SCT040,0.00,VWS V14.01,2013-01-26 02:00:00,
2013-01-25 21:01:00,18.4,-1.9,30.06,WSW,243,1.0,1.0,40,0.00,,SCT040,0.00,VWS V14.01,2013-01-26 02:01:00,
2013-01-25 21:02:00,18.4,-3.0,30.06,WSW,238,0.0,1.0,38,0.00,,OVC250,0.00,VWS V14.01,2013-01-26 02:02:00,
2013-01-25 21:03:00,18.4,-3.0,30.06,WSW,238,0.0,1.0,38,0.00,,SCT040,0.00,VWS V14.01,2013-01-26 02:03:00,
2013-01-25 21:04:00,18.4,-3.0,30.06,WSW,238,0.0,0.0,38,0.00,,SCT040,0.00,VWS V14.01,2013-01-26 02:04:00,
2013-01-25 21:05:00,18.3,-2.5,30.06,WSW,238,0.0,0.0,39,0.00,,SCT040,0.00,VWS V14.01,2013-01-26 02:05:00,
2013-01-25 21:06:00,18.4,-3.0,30.06,WSW,238,0.0,0.0,38,0.00,,SCT040,0.00,VWS V14.01,2013-01-26 02:06:00,
2013-01-25 21:07:00,18.4,-3.0,30.06,WSW,238,0.0,0.0,38,0.00,,OVC250,0.00,VWS V14.01,2013-01-26 02:07:00,
2013-01-25 21:08:00,18.4,-3.0,30.06,WSW,238,0.0,0.0,38,0.00,,SCT040,0.00,VWS V14.01,2013-01-26 02:08:00,
2013-01-25 21:09:00,18.4,-2.4,30.06,WSW,255,1.0,1.0,39,0.00,,SCT040,0.00,VWS V14.01,2013-01-26 02:09:00,
2013-01-25 21:10:00,18.4,-3.0,30.06,WSW,248,0.0,1.0,38,0.00,,SCT040,0.00,VWS V14.01,2013-01-26 02:10:00,
2013-01-25 21:11:00,18.4,-3.0,30.06,WSW,248,0.0,1.0,38,0.00,,SCT040,0.00,VWS V14.01,2013-01-26 02:11:00,
2013-01-25 21:12:00,18.3,-3.6,30.06,West,266,0.0,1.0,37,0.00,,OVC250,0.00,VWS V14.01,2013-01-26 02:12:00,
2013-01-25 21:13:00,18.3,-3.6,30.06,West,266,0.0,1.0,37,0.00,,SCT040,0.00,VWS V14.01,2013-01-26 02:13:00,
2013-01-25 21:14:00,18.3,-3.6,30.06,West,264,0.0,0.0,37,0.00,,SCT040,0.00,VWS V14.01,2013-01-26 02:14:00,
2013-01-25 21:15:00,18.3,-3.6,30.06,WSW,246,0.0,1.0,37,0.00,,SCT040,0.00,VWS V14.01,2013-01-26 02:15:00,
2013-01-25 21:16:00,18.3,-3.6,30.06,WSW,256,0.0,1.0,37,0.00,,SCT040,0.00,VWS V14.01,2013-01-26 02:16:00,
2013-01-25 21:17:00,18.3,-3.6,30.06,WSW,252,0.0,1.0,37,0.00,,OVC250,0.00,VWS V14.01,2013-01-26 02:17:00,
2013-01-25 21:18:00,18.3,-3.6,30.06,WSW,252,0.0,1.0,37,0.00,,SCT040,0.00,VWS V14.01,2013-01-26 02:18:00,
2013-01-25 21:19:00,18.3,-3.6,30.06,WSW,252,0.0,0.0,37,0.00,,SCT040,0.00,VWS V14.01,2013-01-26 02:19:00,
2013-01-25 21:20:00,18.3,-3.6,30.06,WSW,252,0.0,1.0,37,0.00,,SCT040,0.00,VWS V14.01,2013-01-26 02:20:00,
2013-01-25 21:21:00,18.4,-3.5,30.06,West,262,2.0,2.0,37,0.00,,SCT040,0.00,VWS V14.01,2013-01-26 02:21:00,
2013-01-25 21:22:00,18.3,-3.6,30.06,West,266,0.0,1.0,37,0.00,,OVC250,0.00,VWS V14.01,2013-01-26 02:22:00,
2013-01-25 21:23:00,18.3,-3.6,30.06,West,266,0.0,1.0,37,0.00,,SCT040,0.00,VWS V14.01,2013-01-26 02:23:00,
2013-01-25 21:24:00,18.3,-3.6,30.06,West,262,1.0,1.0,37,0.00,,SCT040,0.00,VWS V14.01,2013-01-26 02:24:00,
2013-01-25 21:25:00,18.3,-3.6,30.06,West,263,0.0,1.0,37,0.00,,SCT040,0.00,VWS V14.01,2013-01-26 02:25:00,
2013-01-25 21:26:00,18.3,-3.6,30.05,West,263,0.0,0.0,37,0.00,,SCT040,0.00,VWS V14.01,2013-01-26 02:26:00,
2013-01-25 21:27:00,18.3,-3.0,30.05,West,259,1.0,2.0,38,0.00,,OVC250,0.00,VWS V14.01,2013-01-26 02:27:00,
2013-01-25 21:28:00,18.3,-3.0,30.06,West,259,1.0,2.0,38,0.00,,SCT040,0.00,VWS V14.01,2013-01-26 02:28:00,
2013-01-25 21:29:00,18.3,-3.0,30.06,West,268,1.0,1.0,38,0.00,,SCT040,0.00,VWS V14.01,2013-01-26 02:29:00,
2013-01-25 21:30:00,18.3,-3.0,30.05,West,274,0.0,1.0,38,0.00,,SCT040,0.00,VWS V14.01,2013-01-26 02:30:00,
2013-01-25 21:31:00,18.3,-3.0,30.06,West,273,0.0,0.0,38,0.00,,SCT040,0.00,VWS V14.01,2013-01-26 02:31:00,
2013-01-25 21:32:00,18.3,-3.0,30.06,WSW,250,0.0,1.0,38,0.00,,OVC250,0.00,VWS V14.01,2013-01-26 02:32:00,
2013-01-25 21:33:00,18.3,-3.0,30.06,WSW,250,0.0,1.0,38,0.00,,SCT040,0.00,VWS V14.01,2013-01-26 02:33:00,
2013-01-25 21:34:00,18.4,-3.0,30.06,WSW,257,0.0,1.0,38,0.00,,SCT040,0.00,VWS V14.01,2013-01-26 02:34:00,
2013-01-25 21:35:00,18.4,-3.0,30.06,WSW,257,1.0,1.0,38,0.00,,SCT040,0.00,VWS V14.01,2013-01-26 02:35:00,
2013-01-25 21:36:00,18.4,-3.0,30.06,West,266,1.0,2.0,38,0.00,,SCT040,0.00,VWS V14.01,2013-01-26 02:36:00,
2013-01-25 21:37:00,18.3,-3.6,30.06,WSW,252,1.0,2.0,37,0.00,,OVC130,0.00,VWS V14.01,2013-01-26 02:37:00,
2013-01-25 21:38:00,18.3,-3.6,30.06,WSW,252,1.0,2.0,37,0.00,,SCT040,0.00,VWS V14.01,2013-01-26 02:38:00,
2013-01-25 21:39:00,18.3,-3.6,30.06,NNW,328,2.0,3.0,37,0.00,,SCT040,0.00,VWS V14.01,2013-01-26 02:39:00,
2013-01-25 21:40:00,18.3,-3.6,30.05,North,11,0.0,2.0,37,0.00,,SCT040,0.00,VWS V14.01,2013-01-26 02:40:00,
2013-01-25 21:41:00,18.3,-3.6,30.06,NW,315,0.0,0.0,37,0.00,,SCT040,0.00,VWS V14.01,2013-01-26 02:41:00,
2013-01-25 21:42:00,18.3,-3.6,30.05,West,259,2.0,2.0,37,0.00,,OVC130,0.00,VWS V14.01,2013-01-26 02:42:00,
2013-01-25 21:43:00,18.3,-3.6,30.06,West,259,2.0,2.0,37,0.00,,SCT040,0.00,VWS V14.01,2013-01-26 02:43:00,
2013-01-25 21:44:00,18.3,-3.6,30.06,West,280,0.0,2.0,37,0.00,,SCT040,0.00,VWS V14.01,2013-01-26 02:44:00,
2013-01-25 21:45:00,18.3,-3.6,30.05,WNW,284,0.0,1.0,37,0.00,,SCT040,0.00,VWS V14.01,2013-01-26 02:45:00,
2013-01-25 21:46:00,18.3,-3.0,30.05,WSW,255,0.0,0.0,38,0.00,,SCT040,0.00,VWS V14.01,2013-01-26 02:46:00,
2013-01-25 21:47:00,18.3,-3.0,30.05,West,259,0.0,0.0,38,0.00,,OVC130,0.00,VWS V14.01,2013-01-26 02:47:00,
2013-01-25 21:48:00,18.3,-3.0,30.05,West,259,0.0,0.0,38,0.00,,SCT040,0.00,VWS V14.01,2013-01-26 02:48:00,
2013-01-25 21:49:00,18.3,-3.0,30.05,SW,233,0.0,1.0,38,0.00,,SCT040,0.00,VWS V14.01,2013-01-26 02:49:00,
2013-01-25 21:50:00,18.3,-3.0,30.05,WSW,253,1.0,1.0,38,0.00,,SCT040,0.00,VWS V14.01,2013-01-26 02:50:00,
2013-01-25 21:51:00,18.3,-3.6,30.05,West,278,2.0,3.0,37,0.00,,SCT040,0.00,VWS V14.01,2013-01-26 02:51:00,
2013-01-25 21:52:00,18.3,-3.6,30.05,WNW,284,1.0,4.0,37,0.00,,OVC130,0.00,VWS V14.01,2013-01-26 02:52:00,
2013-01-25 21:53:00,18.3,-3.6,30.05,WNW,284,1.0,4.0,37,0.00,,SCT040,0.00,VWS V14.01,2013-01-26 02:53:00,
2013-01-25 21:54:00,18.3,-3.6,30.05,SW,218,1.0,2.0,37,0.00,,SCT040,0.00,VWS V14.01,2013-01-26 02:54:00,
2013-01-25 21:55:00,18.3,-3.6,30.05,WSW,246,0.0,2.0,37,0.00,,SCT040,0.00,VWS V14.01,2013-01-26 02:55:00,
2013-01-25 21:56:00,18.2,-3.7,30.05,WSW,249,0.0,0.0,37,0.00,,SCT040,0.00,VWS V14.01,2013-01-26 02:56:00,
2013-01-25 21:57:00,18.2,-3.7,30.05,West,262,1.0,2.0,37,0.00,,OVC130,0.00,VWS V14.01,2013-01-26 02:57:00,
2013-01-25 21:58:00,18.2,-3.7,30.05,West,262,1.0,2.0,37,0.00,,SCT040,0.00,VWS V14.01,2013-01-26 02:58:00,
2013-01-25 21:59:00,18.3,-3.6,30.05,West,266,2.0,4.0,37,0.00,,SCT040,0.00,VWS V14.01,2013-01-26 02:59:00,
2013-01-25 22:00:00,18.3,-3.6,30.06,WSW,245,1.0,2.0,37,0.00,,SCT040,0.00,VWS V14.01,2013-01-26 03:00:00,
2013-01-25 22:01:00,18.3,-3.6,30.06,ENE,68,0.0,2.0,37,0.00,,SCT040,0.00,VWS V14.01,2013-01-26 03:01:00,
2013-01-25 22:02:00,18.3,-3.6,30.05,West,275,1.0,3.0,37,0.00,,OVC130,0.00,VWS V14.01,2013-01-26 03:02:00,
2013-01-25 22:03:00,18.3,-3.6,30.06,West,275,1.0,3.0,37,0.00,,SCT040,0.00,VWS V14.01,2013-01-26 03:03:00,
2013-01-25 22:04:00,18.3,-3.6,30.05,West,269,0.0,1.0,37,0.00,,SCT040,0.00,VWS V14.01,2013-01-26 03:04:00,
2013-01-25 22:05:00,18.3,-3.6,30.05,WNW,302,2.0,2.0,37,0.00,,SCT040,0.00,VWS V14.01,2013-01-26 03:05:00,
2013-01-25 22:06:00,18.3,-3.6,30.05,WNW,287,2.0,3.0,37,0.00,,SCT040,0.00,VWS V14.01,2013-01-26 03:06:00,
2013-01-25 22:07:00,18.3,-3.6,30.05,West,263,1.0,4.0,37,0.00,,OVC130,0.00,VWS V14.01,2013-01-26 03:07:00,
2013-01-25 22:08:00,18.3,-3.6,30.05,West,263,1.0,4.0,37,0.00,,SCT040,0.00,VWS V14.01,2013-01-26 03:08:00,
2013-01-25 22:09:00,18.2,-3.7,30.05,WSW,252,3.0,3.0,37,0.00,,SCT040,0.00,VWS V14.01,2013-01-26 03:09:00,
2013-01-25 22:10:00,18.2,-3.7,30.05,West,262,1.0,3.0,37,0.00,,SCT040,0.00,VWS V14.01,2013-01-26 03:10:00,
2013-01-25 22:11:00,18.2,-3.7,30.05,WNW,302,0.0,1.0,37,0.00,,SCT040,0.00,VWS V14.01,2013-01-26 03:11:00,
2013-01-25 22:12:00,18.2,-3.7,30.05,WSW,246,2.0,4.0,37,0.00,,OVC130,0.00,VWS V14.01,2013-01-26 03:12:00,
2013-01-25 22:13:00,18.2,-3.7,30.05,WSW,246,2.0,4.0,37,0.00,,SCT040,0.00,VWS V14.01,2013-01-26 03:13:00,
2013-01-25 22:14:00,18.2,-3.7,30.05,West,265,1.0,2.0,37,0.00,,SCT040,0.00,VWS V14.01,2013-01-26 03:14:00,
2013-01-25 22:15:00,18.2,-3.1,30.05,West,263,2.0,2.0,38,0.00,,SCT040,0.00,VWS V14.01,2013-01-26 03:15:00,
2013-01-25 22:16:00,18.2,-3.1,30.05,WNW,284,1.0,2.0,38,0.00,,SCT040,0.00,VWS V14.01,2013-01-26 03:16:00,
2013-01-25 22:17:00,18.2,-3.1,30.05,West,271,3.0,3.0,38,0.00,,OVC130,0.00,VWS V14.01,2013-01-26 03:17:00,
2013-01-25 22:18:00,18.2,-3.1,30.05,West,271,3.0,3.0,38,0.00,,SCT040,0.00,VWS V14.01,2013-01-26 03:18:00,
2013-01-25 22:19:00,18.2,-3.7,30.05,WSW,250,0.0,3.0,37,0.00,,SCT040,0.00,VWS V14.01,2013-01-26 03:19:00,
2013-01-25 22:20:00,18.2,-3.1,30.05,West,277,1.0,2.0,38,0.00,,SCT040,0.00,VWS V14.01,2013-01-26 03:20:00,
2013-01-25 22:21:00,18.2,-3.1,30.05,WNW,300,3.0,3.0,38,0.00,,SCT040,0.00,VWS V14.01,2013-01-26 03:21:00,
2013-01-25 22:22:00,18.2,-3.1,30.05,West,280,1.0,2.0,38,0.00,,OVC130,0.00,VWS V14.01,2013-01-26 03:22:00,
2013-01-25 22:23:00,18.2,-3.1,30.05,West,280,1.0,2.0,38,0.00,,SCT040,0.00,VWS V14.01,2013-01-26 03:23:00,
2013-01-25 22:24:00,18.2,-3.1,30.05,West,270,2.0,2.0,38,0.00,,SCT040,0.00,VWS V14.01,2013-01-26 03:24:00,
2013-01-25 22:25:00,18.2,-3.1,30.05,West,260,0.0,2.0,38,0.00,,SCT040,0.00,VWS V14.01,2013-01-26 03:25:00,
2013-01-25 22:26:00,18.2,-3.1,30.05,SSW,195,3.0,3.0,38,0.00,,SCT040,0.00,VWS V14.01,2013-01-26 03:26:00,
2013-01-25 22:27:00,18.2,-3.1,30.05,West,259,1.0,2.0,38,0.00,,OVC130,0.00,VWS V14.01,2013-01-26 03:27:00,
2013-01-25 22:28:00,18.2,-3.1,30.05,West,259,1.0,2.0,38,0.00,,SCT040,0.00,VWS V14.01,2013-01-26 03:28:00,
2013-01-25 22:29:00,18.2,-3.1,30.05,NW,305,1.0,2.0,38,0.00,,SCT040,0.00,VWS V14.01,2013-01-26 03:29:00,
2013-01-25 22:30:00,18.2,-3.1,30.05,WSW,250,1.0,5.0,38,0.00,,SCT040,0.00,VWS V14.01,2013-01-26 03:30:00,
2013-01-25 22:31:00,18.2,-3.1,30.05,WSW,252,1.0,4.0,38,0.00,,SCT040,0.00,VWS V14.01,2013-01-26 03:31:00,
2013-01-25 22:32:00,18.2,-3.1,30.05,West,262,3.0,3.0,38,0.00,,OVC130,0.00,VWS V14.01,2013-01-26 03:32:00,
2013-01-25 22:33:00,18.2,-3.1,30.05,West,262,3.0,3.0,38,0.00,,SCT040,0.00,VWS V14.01,2013-01-26 03:33:00,
2013-01-25 22:34:00,18.2,-3.7,30.05,NW,314,3.0,4.0,37,0.00,,SCT040,0.00,VWS V14.01,2013-01-26 03:34:00,
2013-01-25 22:35:00,18.2,-3.7,30.05,West,276,0.0,3.0,37,0.00,,SCT040,0.00,VWS V14.01,2013-01-26 03:35:00,
2013-01-25 22:36:00,18.2,-3.1,30.05,SW,224,1.0,1.0,38,0.00,,SCT040,0.00,VWS V14.01,2013-01-26 03:36:00,
2013-01-25 22:37:00,18.2,-3.1,30.05,West,264,0.0,1.0,38,0.00,,OVC060,0.00,VWS V14.01,2013-01-26 03:37:00,
2013-01-25 22:38:00,18.2,-3.1,30.05,West,264,0.0,1.0,38,0.00,,SCT040,0.00,VWS V14.01,2013-01-26 03:38:00,
2013-01-25 22:39:00,18.2,-3.1,30.05,West,264,1.0,1.0,38,0.00,,SCT040,0.00,VWS V14.01,2013-01-26 03:39:00,
2013-01-25 22:40:00,18.2,-3.1,30.05,West,263,0.0,1.0,38,0.00,,SCT040,0.00,VWS V14.01,2013-01-26 03:40:00,
2013-01-25 22:41:00,18.2,-3.1,30.05,West,280,0.0,1.0,38,0.00,,SCT040,0.00,VWS V14.01,2013-01-26 03:41:00,
2013-01-25 22:42:00,18.2,-2.6,30.05,WNW,284,2.0,3.0,39,0.00,,OVC060,0.00,VWS V14.01,2013-01-26 03:42:00,
2013-01-25 22:43:00,18.2,-2.6,30.05,WNW,284,2.0,3.0,39,0.00,,SCT040,0.00,VWS V14.01,2013-01-26 03:43:00,
2013-01-25 22:44:00,18.2,-3.1,30.05,WNW,291,0.0,3.0,38,0.00,,SCT040,0.00,VWS V14.01,2013-01-26 03:44:00,
2013-01-25 22:45:00,18.2,-3.1,30.04,West,264,1.0,1.0,38,0.00,,SCT040,0.00,VWS V14.01,2013-01-26 03:45:00,
2013-01-25 22:46:00,18.2,-3.1,30.04,West,263,2.0,2.0,38,0.00,,SCT040,0.00,VWS V14.01,2013-01-26 03:46:00,
2013-01-25 22:47:00,18.2,-2.6,30.05,West,280,2.0,3.0,39,0.00,,OVC060,0.00,VWS V14.01,2013-01-26 03:47:00,
2013-01-25 22:48:00,18.2,-2.6,30.04,West,280,2.0,3.0,39,0.00,,SCT040,0.00,VWS V14.01,2013-01-26 03:48:00,
2013-01-25 22:49:00,18.2,-2.6,30.04,West,270,3.0,3.0,39,0.00,,SCT040,0.00,VWS V14.01,2013-01-26 03:49:00,
2013-01-25 22:50:00,18.2,-2.6,30.04,NW,307,1.0,3.0,39,0.00,,SCT040,0.00,VWS V14.01,2013-01-26 03:50:00,
2013-01-25 22:51:00,18.2,-2.6,30.04,NW,308,0.0,1.0,39,0.00,,SCT040,0.00,VWS V14.01,2013-01-26 03:51:00,
2013-01-25 22:52:00,18.1,-2.7,30.04,West,276,1.0,4.0,39,0.00,,OVC060,0.00,VWS V14.01,2013-01-26 03:52:00,
2013-01-25 22:53:00,18.1,-2.7,30.04,West,276,1.0,4.0,39,0.00,,SCT040,0.00,VWS V14.01,2013-01-26 03:53:00,
2013-01-25 22:54:00,18.1,-2.2,30.04,WSW,257,1.0,1.0,40,0.00,,SCT040,0.00,VWS V14.01,2013-01-26 03:54:00,
2013-01-25 22:55:00,18.1,-2.2,30.04,NW,315,1.0,3.0,40,0.00,,SCT040,0.00,VWS V14.01,2013-01-26 03:55:00,
2013-01-25 22:56:00,18.1,-1.6,30.05,West,267,2.0,2.0,41,0.00,,SCT040,0.00,VWS V14.01,2013-01-26 03:56:00,
2013-01-25 22:57:00,18.1,-1.6,30.05,WSW,240,2.0,2.0,41,0.00,,OVC060,0.00,VWS V14.01,2013-01-26 03:57:00,
2013-01-25 22:58:00,18.1,-1.6,30.04,WSW,240,2.0,2.0,41,0.00,,SCT040,0.00,VWS V14.01,2013-01-26 03:58:00,
2013-01-25 22:59:00,18.1,-1.6,30.05,West,259,3.0,3.0,41,0.00,,SCT040,0.00,VWS V14.01,2013-01-26 03:59:00,
2013-01-25 23:00:00,18.1,-2.2,30.05,WNW,297,0.0,3.0,40,0.00,,SCT040,0.00,VWS V14.01,2013-01-26 04:00:00,
2013-01-25 23:01:00,18.1,-2.2,30.04,West,278,0.0,1.0,40,0.00,,SCT040,0.00,VWS V14.01,2013-01-26 04:01:00,
2013-01-25 23:02:00,18.1,-2.2,30.05,NW,310,0.0,2.0,40,0.00,,OVC060,0.00,VWS V14.01,2013-01-26 04:02:00,
2013-01-25 23:03:00,18.1,-2.2,30.04,NW,310,0.0,2.0,40,0.00,,SCT040,0.00,VWS V14.01,2013-01-26 04:03:00,
2013-01-25 23:04:00,18.1,-2.2,30.04,WNW,290,2.0,4.0,40,0.00,,SCT040,0.00,VWS V14.01,2013-01-26 04:04:00,
2013-01-25 23:05:00,18.0,-2.2,30.05,WNW,297,1.0,2.0,40,0.00,,SCT040,0.00,VWS V14.01,2013-01-26 04:05:00,
2013-01-25 23:06:00,18.0,-2.2,30.04,WNW,287,0.0,1.0,40,0.00,,SCT040,0.00,VWS V14.01,2013-01-26 04:06:00,
2013-01-25 23:07:00,18.0,-1.7,30.05,WNW,290,0.0,0.0,41,0.00,,OVC060,0.00,VWS V14.01,2013-01-26 04:07:00,
2013-01-25 23:08:00,18.0,-1.7,30.05,WNW,290,0.0,0.0,41,0.00,,SCT040,0.00,VWS V14.01,2013-01-26 04:08:00,
2013-01-25 23:09:00,18.0,-1.7,30.05,NNW,337,1.0,1.0,41,0.00,,SCT040,0.00,VWS V14.01,2013-01-26 04:09:00,
2013-01-25 23:10:00,18.0,-1.7,30.04,NE,41,1.0,2.0,41,0.00,,SCT040,0.00,VWS V14.01,2013-01-26 04:10:00,
2013-01-25 23:11:00,18.0,-1.2,30.04,NNE,15,2.0,2.0,42,0.00,,SCT040,0.00,VWS V14.01,2013-01-26 04:11:00,
2013-01-25 23:12:00,17.9,-0.3,30.05,North,354,0.0,1.0,44,0.00,,OVC060,0.00,VWS V14.01,2013-01-26 04:12:00,
2013-01-25 23:13:00,17.9,-0.3,30.05,North,354,0.0,1.0,44,0.00,,SCT040,0.00,VWS V14.01,2013-01-26 04:13:00,
2013-01-25 23:14:00,17.9,0.2,30.04,West,278,0.0,1.0,45,0.00,,SCT040,0.00,VWS V14.01,2013-01-26 04:14:00,
2013-01-25 23:15:00,17.9,0.2,30.04,WSW,250,0.0,2.0,45,0.00,,SCT040,0.00,VWS V14.01,2013-01-26 04:15:00,
2013-01-25 23:16:00,17.9,0.2,30.04,NE,37,0.0,2.0,45,0.00,,SCT040,0.00,VWS V14.01,2013-01-26 04:16:00,
2013-01-25 23:17:00,17.8,1.5,30.05,North,4,2.0,2.0,48,0.00,,OVC060,0.00,VWS V14.01,2013-01-26 04:17:00,
2013-01-25 23:18:00,17.8,1.5,30.04,North,4,2.0,2.0,48,0.00,,SCT040,0.00,VWS V14.01,2013-01-26 04:18:00,
2013-01-25 23:19:00,17.7,2.2,30.04,NW,321,1.0,2.0,50,0.00,,SCT040,0.00,VWS V14.01,2013-01-26 04:19:00,
2013-01-25 23:20:00,17.7,2.2,30.04,NE,51,1.0,2.0,50,0.00,,SCT040,0.00,VWS V14.01,2013-01-26 04:20:00,
2013-01-25 23:21:00,17.6,2.6,30.04,West,271,1.0,3.0,51,0.00,,SCT040,0.00,VWS V14.01,2013-01-26 04:21:00,
2013-01-25 23:22:00,17.4,3.2,30.04,WNW,284,1.0,3.0,53,0.00,,OVC060,0.00,VWS V14.01,2013-01-26 04:22:00,
2013-01-25 23:23:00,17.4,3.2,30.04,WNW,284,1.0,3.0,53,0.00,,SCT040,0.00,VWS V14.01,2013-01-26 04:23:00,
2013-01-25 23:24:00,17.4,3.6,30.04,West,280,4.0,5.0,54,0.00,,SCT040,0.00,VWS V14.01,2013-01-26 04:24:00,
2013-01-25 23:25:00,17.3,3.9,30.04,NW,305,1.0,4.0,55,0.00,,SCT040,0.00,VWS V14.01,2013-01-26 04:25:00,
2013-01-25 23:26:00,17.2,3.8,30.04,West,270,2.0,5.0,55,0.00,,SCT040,0.00,VWS V14.01,2013-01-26 04:26:00,
2013-01-25 23:27:00,17.1,4.5,30.05,West,259,1.0,2.0,57,0.00,,OVC060,0.00,VWS V14.01,2013-01-26 04:27:00,
2013-01-25 23:28:00,17.1,4.5,30.05,West,259,1.0,2.0,57,0.00,,SCT040,0.00,VWS V14.01,2013-01-26 04:28:00,
2013-01-25 23:29:00,17.1,4.5,30.04,NNW,337,1.0,1.0,57,0.00,,SCT040,0.00,VWS V14.01,2013-01-26 04:29:00,
2013-01-25 23:30:00,17.1,4.5,30.05,West,266,0.0,1.0,57,0.00,,SCT040,0.00,VWS V14.01,2013-01-26 04:30:00,
2013-01-25 23:31:00,17.1,4.9,30.05,West,271,0.0,0.0,58,0.00,,SCT040,0.00,VWS V14.01,2013-01-26 04:31:00,
2013-01-25 23:32:00,17.1,5.2,30.05,WNW,302,2.0,2.0,59,0.00,,OVC060,0.00,VWS V14.01,2013-01-26 04:32:00,
2013-01-25 23:33:00,17.1,5.2,30.04,WNW,302,2.0,2.0,59,0.00,,SCT040,0.00,VWS V14.01,2013-01-26 04:33:00,
2013-01-25 23:34:00,17.0,5.2,30.04,NW,311,0.0,2.0,59,0.00,,SCT040,0.00,VWS V14.01,2013-01-26 04:34:00,
2013-01-25 23:35:00,17.0,5.2,30.04,SW,221,0.0,0.0,59,0.00,,SCT040,0.00,VWS V14.01,2013-01-26 04:35:00,
2013-01-25 23:36:00,16.9,5.1,30.04,North,349,0.0,1.0,59,0.00,,SCT040,0.00,VWS V14.01,2013-01-26 04:36:00,
2013-01-25 23:37:00,16.8,5.0,30.05,North,355,1.0,2.0,59,0.00,,,0.00,VWS V14.01,2013-01-26 04:37:00,
2013-01-25 23:38:00,16.8,5.0,30.04,North,355,1.0,2.0,59,0.00,,SCT040,0.00,VWS V14.01,2013-01-26 04:38:00,
2013-01-25 23:39:00,16.8,5.0,30.04,NW,316,0.0,1.0,59,0.00,,SCT040,0.00,VWS V14.01,2013-01-26 04:39:00,
2013-01-25 23:40:00,16.7,5.2,30.04,WSW,250,0.0,0.0,60,0.00,,SCT040,0.00,VWS V14.01,2013-01-26 04:40:00,
2013-01-25 23:41:00,16.8,5.0,30.04,WSW,257,0.0,0.0,59,0.00,,SCT040,0.00,VWS V14.01,2013-01-26 04:41:00,
2013-01-25 23:42:00,16.7,4.9,30.04,WNW,299,1.0,1.0,59,0.00,,,0.00,VWS V14.01,2013-01-26 04:42:00,
2013-01-25 23:43:00,16.7,4.9,30.04,WNW,299,1.0,1.0,59,0.00,,SCT040,0.00,VWS V14.01,2013-01-26 04:43:00,
2013-01-25 23:44:00,16.7,5.2,30.04,WNW,291,0.0,1.0,60,0.00,,SCT040,0.00,VWS V14.01,2013-01-26 04:44:00,
2013-01-25 23:45:00,16.7,5.2,30.04,NNE,12,1.0,1.0,60,0.00,,SCT040,0.00,VWS V14.01,2013-01-26 04:45:00,
2013-01-25 23:46:00,16.7,5.2,30.04,NNE,19,0.0,2.0,60,0.00,,SCT040,0.00,VWS V14.01,2013-01-26 04:46:00,
2013-01-25 23:47:00,16.7,4.9,30.04,NNW,340,0.0,1.0,59,0.00,,,0.00,VWS V14.01,2013-01-26 04:47:00,
2013-01-25 23:48:00,16.7,4.9,30.04,NNW,340,0.0,1.0,59,0.00,,SCT040,0.00,VWS V14.01,2013-01-26 04:48:00,
2013-01-25 23:49:00,16.7,4.9,30.04,NNW,340,0.0,0.0,59,0.00,,SCT040,0.00,VWS V14.01,2013-01-26 04:49:00,
2013-01-25 23:50:00,16.7,4.9,30.04,North,4,1.0,1.0,59,0.00,,SCT040,0.00,VWS V14.01,2013-01-26 04:50:00,
2013-01-25 23:51:00,16.7,4.9,30.04,North,1,1.0,1.0,59,0.00,,SCT040,0.00,VWS V14.01,2013-01-26 04:51:00,
2013-01-25 23:52:00,16.7,4.9,30.04,West,271,0.0,2.0,59,0.00,,,0.00,VWS V14.01,2013-01-26 04:52:00,
2013-01-25 23:53:00,16.7,4.9,30.04,West,271,0.0,2.0,59,0.00,,SCT040,0.00,VWS V14.01,2013-01-26 04:53:00,
2013-01-25 23:54:00,16.7,4.9,30.04,SW,224,1.0,3.0,59,0.00,,SCT040,0.00,VWS V14.01,2013-01-26 04:54:00,
2013-01-25 23:55:00,16.8,5.3,30.04,WSW,249,1.0,4.0,60,0.00,,SCT040,0.00,VWS V14.01,2013-01-26 04:55:00,
2013-01-25 23:56:00,16.8,5.3,30.04,West,263,2.0,2.0,60,0.00,,SCT040,0.00,VWS V14.01,2013-01-26 04:56:00,
2013-01-25 23:57:00,16.7,5.6,30.04,West,266,1.0,3.0,61,0.00,,,0.00,VWS V14.01,2013-01-26 04:57:00,
2013-01-25 23:58:00,16.7,5.6,30.04,West,266,1.0,3.0,61,0.00,,SCT040,0.00,VWS V14.01,2013-01-26 04:58:00,
2013-01-25 23:59:00,16.7,6.0,30.04,West,263,1.0,2.0,62,0.00,,SCT040,0.00,VWS V14.01,2013-01-26 04:59:00,